GFSCGP_sfc_temp_000.txt.gz
Temp
62 56 52 56 59 61 59 55 54 58 63 59 58 58 64 60 58 56 54 54 53 55 58 58 59 59 59 58 58 57 57 57 56 57 56 56 56 57 58 59 61 62 62 61
57 53 59 62 61 59 55 52 51 57 60 57 57 56 58 58 59 59 55 53 53 54 56 58 58 57 58 58 58 58 58 58 57 55 56 56 57 59 59 60 61 61 62 62
53 58 64 62 59 56 55 51 52 53 55 56 52 50 54 58 56 57 55 56 54 54 54 56 57 56 57 58 57 59 58 57 56 57 57 58 59 59 60 60 60 61 63 62
57 63 62 57 57 58 50 59 58 55 50 43 53 38 50 53 54 55 54 53 54 54 55 56 56 55 56 59 59 58 58 58 58 57 58 57 57 57 59 60 60 61 62 63
58 57 57 56 59 60 56 60 57 54 48 44 46 38 47 49 52 54 52 54 54 54 55 56 56 58 57 60 58 58 59 58 58 59 59 59 58 58 59 59 60 60 62 63
61 64 63 62 64 63 63 56 51 46 43 35 46 43 43 48 54 55 53 55 55 54 55 56 57 57 57 58 59 57 59 58 58 59 60 59 58 57 57 58 58 59 61 62
56 57 61 66 58 58 56 47 37 33 33 34 46 43 47 56 59 59 57 55 55 56 54 55 55 55 56 58 59 58 58 58 58 59 59 60 58 58 59 59 59 59 60 61
48 47 59 63 60 55 51 49 39 32 32 39 46 41 50 58 60 60 59 58 57 55 56 54 55 55 57 58 58 58 58 58 58 58 59 59 59 59 58 59 60 59 60 60
47 49 60 63 64 63 51 47 52 43 40 38 42 48 55 57 57 56 54 55 54 55 53 54 55 55 56 57 58 58 58 57 58 58 58 59 59 60 59 58 60 59 60 62
53 46 57 63 63 59 59 59 46 40 34 32 39 42 44 54 56 55 52 51 54 54 53 54 55 55 56 57 57 58 58 58 58 58 58 59 59 60 59 58 58 61 61 62
54 51 49 57 52 52 51 47 46 46 42 35 30 38 51 55 58 57 54 54 55 56 56 56 56 56 57 57 56 58 58 58 57 57 58 58 59 59 59 58 58 59 60 61
56 50 45 50 53 58 58 52 50 42 40 41 39 42 56 56 57 58 57 56 55 57 58 57 57 56 56 56 56 57 57 58 57 57 58 58 59 59 59 59 58 59 59 60
56 46 40 42 48 51 51 51 49 46 42 40 39 43 57 57 57 60 57 55 56 56 55 54 55 55 56 56 57 57 58 59 59 58 58 57 57 58 58 58 58 59 59 59
64 48 49 46 46 50 48 50 51 49 39 43 43 50 54 57 59 58 54 56 56 57 57 56 56 55 56 57 58 58 58 59 59 59 58 57 56 57 57 58 59 59 59 58
56 46 49 52 56 55 56 53 51 50 51 47 50 49 57 56 59 59 56 55 56 56 57 58 58 57 55 56 58 59 59 59 59 59 58 57 56 57 57 57 57 58 58 58
50 46 48 48 54 55 53 55 54 56 51 50 53 50 58 58 60 61 57 57 58 59 60 61 61 60 57 59 59 59 59 59 59 59 58 58 57 57 56 56 56 56 56 56
48 45 41 39 49 49 45 54 53 53 53 54 49 55 56 55 58 60 59 59 59 61 62 62 62 62 62 61 61 59 59 59 59 59 60 59 57 57 56 56 55 54 54 54
46 44 42 38 44 35 49 57 60 58 56 55 55 57 59 61 63 66 62 59 60 62 63 64 64 63 63 62 60 60 59 60 60 59 60 60 59 58 56 55 54 52 52 53
49 43 39 37 33 44 48 51 53 53 53 58 58 57 60 60 60 62 64 64 64 64 66 67 67 66 64 62 62 60 59 60 60 60 61 61 60 57 55 55 53 51 51 51
46 47 44 33 35 35 46 55 58 58 47 56 60 56 58 58 53 63 65 64 64 63 68 68 67 66 64 63 62 60 60 60 61 62 63 62 60 58 56 54 52 52 52 53
39 39 42 33 32 41 52 56 60 45 49 57 60 61 55 58 65 66 66 66 65 64 65 67 67 66 65 65 63 61 61 61 64 65 64 62 60 58 57 54 53 53 53 53
41 37 37 34 35 38 55 55 53 55 57 59 57 58 58 63 61 63 64 65 65 63 64 67 66 66 66 65 65 63 61 65 66 66 64 63 59 62 59 54 53 54 53 52
44 46 43 45 44 52 58 58 60 58 59 58 57 57 60 62 61 63 62 64 64 64 66 68 67 66 66 66 67 65 64 66 66 65 63 62 61 61 58 55 53 54 53 53
47 49 47 48 51 53 57 57 57 58 59 58 58 60 59 60 60 61 61 62 64 64 66 68 67 66 65 66 68 68 68 68 67 64 63 63 62 60 58 60 58 57 55 54
51 51 47 48 50 52 55 60 58 58 58 59 60 61 60 60 60 62 62 62 64 64 66 68 68 67 66 68 68 70 69 69 66 65 65 64 64 61 61 61 60 60 59 59
49 48 50 49 52 54 56 61 59 57 57 59 60 60 61 62 62 62 62 62 64 65 64 67 68 67 68 69 69 70 70 69 67 66 66 65 65 62 64 62 61 50 50 49

GFSCGP_sfc_temp_003.txt.gz
Temp
73 68 64 69 70 70 69 65 63 66 72 68 68 68 71 74 68 68 66 66 66 66 70 70 70 70 70 70 70 69 69 68 68 70 69 64 67 65 68 66 62 63 67 67
67 64 71 72 70 67 66 63 63 67 69 67 67 66 71 71 70 70 68 66 66 66 67 68 69 69 70 69 69 70 70 69 68 69 68 63 67 65 64 65 65 65 64 67
67 69 70 69 66 64 64 63 62 63 65 67 64 63 67 74 68 68 69 70 68 67 67 68 68 69 71 70 70 70 70 69 68 67 69 68 67 66 66 63 61 61 62 63
69 71 67 66 65 67 60 68 67 63 61 56 65 52 63 70 68 67 68 66 67 67 68 69 69 69 70 71 70 70 70 69 70 68 70 66 66 63 64 64 65 65 63 64
66 65 65 63 66 68 65 68 66 64 61 58 59 54 63 63 66 71 72 67 67 68 68 68 69 71 72 72 72 71 70 70 69 69 69 69 67 67 67 67 65 67 65 69
71 72 72 71 71 70 72 65 61 59 59 51 60 58 61 65 68 73 73 69 66 68 69 70 71 71 71 72 71 71 71 69 70 70 69 68 67 68 67 66 66 64 63 67
65 67 70 73 67 67 68 62 53 49 50 50 56 55 62 71 73 73 74 70 67 68 68 69 68 69 70 71 71 71 71 70 69 70 70 69 67 67 62 61 61 62 63 63
56 54 65 70 70 66 64 64 54 42 47 53 55 53 63 72 72 70 71 70 67 67 69 69 70 70 71 71 71 71 70 71 70 70 70 70 69 72 68 68 61 63 63 63
57 58 68 71 73 72 61 59 67 58 54 53 58 61 68 71 70 69 67 64 63 66 68 69 70 70 71 71 71 71 71 71 71 70 70 70 70 69 69 66 64 67 65 65
62 55 67 70 73 70 67 69 56 58 46 44 54 54 59 68 72 69 64 63 63 66 69 70 71 70 71 72 71 71 72 72 71 70 71 71 69 70 70 70 70 69 69 68
68 64 58 65 63 64 63 61 60 61 58 50 47 55 69 69 70 69 68 67 65 67 69 70 72 72 72 73 72 71 71 71 71 71 71 70 70 70 70 69 70 70 70 69
68 63 57 60 66 72 70 65 64 56 52 57 56 57 72 70 71 70 68 67 68 69 71 72 72 72 72 71 72 71 71 72 72 72 71 70 70 70 70 69 70 71 71 72
64 61 53 55 59 62 62 65 66 63 61 56 53 58 70 70 71 69 68 67 66 68 69 71 72 72 72 72 72 73 72 73 73 72 71 69 69 70 69 69 68 70 72 71
67 61 58 52 57 63 59 60 64 62 57 59 59 64 68 70 71 69 68 68 69 67 68 70 70 72 73 73 73 73 73 74 72 73 71 69 69 69 70 69 70 71 72 72
65 57 62 65 66 65 64 63 63 60 63 58 63 61 70 74 73 74 71 68 67 68 69 70 70 71 72 72 72 73 74 73 72 72 71 70 69 69 69 70 70 69 70 72
59 58 61 60 65 66 62 65 66 64 66 65 67 65 74 74 74 71 68 67 67 69 71 72 71 71 72 72 72 73 72 72 72 72 72 71 69 69 68 68 68 69 69 70
58 57 55 53 61 62 54 63 64 64 67 67 62 70 71 69 71 73 69 69 70 70 72 72 72 71 72 73 72 72 73 73 72 72 72 71 70 69 69 69 68 67 67 67
55 56 57 54 55 43 60 70 70 67 67 69 72 74 71 76 77 79 76 72 72 72 72 73 74 72 72 75 74 75 74 72 73 72 72 72 71 71 70 69 68 66 66 67
59 55 50 48 49 57 58 60 64 63 64 69 70 74 74 75 75 74 77 77 75 73 75 75 76 74 73 73 75 74 73 73 74 73 73 73 72 71 69 69 66 65 65 65
56 58 55 47 47 46 63 66 66 71 59 70 71 72 71 72 68 75 76 78 77 75 76 76 76 76 73 73 75 73 73 73 73 75 74 74 74 71 69 69 66 65 66 67
50 50 49 48 47 54 63 67 69 56 62 72 70 73 71 70 76 79 78 78 80 77 75 77 75 74 72 73 73 72 74 72 76 78 76 74 72 70 70 68 66 65 66 67
52 49 49 49 47 46 65 64 62 69 68 70 70 72 69 74 77 76 78 79 78 76 75 76 74 73 73 73 73 73 72 76 78 78 76 74 71 72 71 67 66 67 66 65
48 58 55 56 58 64 67 70 72 72 73 68 72 72 73 74 75 76 76 76 79 78 76 77 76 74 73 73 74 73 73 77 77 76 74 73 72 72 70 68 66 67 66 69
58 61 58 59 64 66 66 70 72 69 70 69 74 73 72 73 74 74 75 75 77 80 76 77 76 74 71 73 74 76 76 78 76 74 73 73 71 70 70 72 71 71 69 70
61 62 58 60 65 64 66 70 70 70 70 71 71 74 74 74 74 75 76 76 77 79 78 77 75 75 74 74 74 77 78 77 75 74 74 73 74 69 70 71 72 72 72 71
58 59 57 58 67 67 70 71 71 70 69 71 72 71 73 75 76 76 76 76 76 77 78 76 75 75 76 76 75 76 78 77 74 72 74 75 76 73 75 73 72 52 51 48

GFSCGP_sfc_temp_006.txt.gz
Temp
80 75 70 75 78 78 77 72 71 76 80 75 75 76 79 83 84 83 81 79 78 77 80 79 78 78 78 76 75 76 75 76 75 77 77 73 70 69 68 66 64 63 71 73
75 69 79 82 81 76 74 71 71 76 78 75 74 74 79 82 83 84 82 79 78 78 78 77 77 77 77 76 75 76 76 76 75 77 75 74 72 74 66 63 63 66 68 72
72 76 82 79 76 72 73 70 70 69 75 76 73 70 76 80 83 84 82 83 81 78 76 75 75 76 78 76 75 76 76 76 75 75 74 71 71 73 68 65 65 64 66 70
76 83 78 74 73 75 68 76 73 71 68 63 73 59 71 77 79 82 82 80 80 79 78 77 76 75 77 78 78 77 77 75 77 76 76 72 68 71 70 68 68 65 70 66
73 77 74 72 74 78 71 78 74 72 68 67 68 63 70 77 74 79 83 83 81 80 78 77 77 77 79 79 78 79 77 77 76 76 74 76 73 69 71 72 68 70 69 70
78 84 80 78 80 79 79 73 71 71 69 57 67 66 68 75 75 79 83 83 81 79 79 79 78 79 79 80 79 78 77 76 77 77 75 73 67 68 64 65 67 69 68 68
72 74 80 81 75 77 75 68 58 55 56 55 67 63 68 77 81 82 82 84 80 79 79 78 77 78 78 78 78 78 77 76 77 77 76 75 73 70 65 64 63 65 64 68
64 61 73 78 76 71 71 69 61 48 52 59 66 59 71 80 83 82 82 82 80 78 79 78 78 78 79 78 78 78 77 77 77 78 76 76 75 77 67 71 66 65 66 63
66 66 79 79 80 79 71 65 75 64 66 59 65 69 76 81 81 80 79 77 76 77 77 78 79 79 79 78 78 78 77 78 78 77 76 76 76 75 74 72 73 71 66 67
72 63 74 77 80 80 76 78 62 65 51 49 61 62 67 73 76 77 76 76 75 77 78 79 79 78 80 79 79 78 79 78 78 78 77 77 76 77 77 76 73 73 72 68
76 70 68 74 69 70 71 69 69 69 67 55 53 62 77 75 78 78 80 78 76 77 79 80 80 80 80 80 80 78 79 78 78 78 77 76 77 77 77 77 77 75 71 74
76 69 62 65 77 80 77 71 69 62 58 64 63 64 81 80 81 81 81 79 80 80 81 82 81 80 80 79 80 78 78 80 79 79 78 76 77 77 76 77 77 77 75 74
74 66 58 62 67 73 70 73 73 71 69 62 60 63 81 81 80 80 81 80 79 80 81 81 81 80 80 80 80 80 80 80 81 80 78 76 75 76 75 75 74 78 74 77
72 68 63 59 63 69 64 69 73 70 62 63 65 69 76 78 79 80 81 80 80 80 80 81 80 81 81 81 81 81 80 81 80 80 78 76 75 76 76 77 77 78 79 77
72 62 67 70 73 72 69 69 70 67 68 63 68 70 75 80 81 83 82 80 79 79 80 80 79 80 81 80 80 81 81 81 80 80 78 75 75 76 77 77 77 78 78 79
71 62 68 66 72 72 68 71 71 71 71 71 72 71 82 85 86 83 81 80 79 79 81 82 81 81 80 80 80 81 81 80 80 79 78 78 77 77 76 76 76 76 77 78
67 64 63 58 68 68 61 69 71 71 74 73 67 75 83 81 81 82 82 81 80 81 83 82 81 81 80 81 80 80 81 81 80 79 79 78 77 77 76 77 77 76 75 75
65 63 65 61 64 49 68 78 77 73 75 77 77 79 82 84 85 87 89 85 83 83 83 84 83 82 81 83 82 82 83 81 80 80 80 79 78 78 77 76 75 74 74 74
70 67 62 57 58 64 68 72 73 70 70 79 78 81 84 86 86 85 89 88 87 85 86 86 86 84 82 82 83 82 82 82 81 81 80 80 80 78 77 76 74 74 73 73
65 69 64 59 52 50 69 76 80 80 65 80 80 80 82 84 75 82 87 88 88 88 88 87 87 85 82 82 83 81 81 81 81 83 82 82 82 78 76 75 73 73 74 74
57 60 57 58 55 64 74 80 79 61 67 81 82 82 82 80 83 88 91 87 89 88 87 88 86 83 82 82 82 80 81 80 84 86 85 83 80 78 77 75 74 73 73 76
57 55 57 60 56 53 78 77 68 76 79 82 83 84 82 83 85 87 87 87 88 87 86 87 85 83 82 83 82 80 79 83 85 86 84 82 79 80 78 74 73 73 73 72
57 65 62 64 64 72 78 78 80 84 82 83 84 84 85 84 84 86 85 86 87 87 86 87 86 83 82 82 83 80 82 84 85 84 82 81 80 79 78 74 73 74 72 75
63 68 63 63 70 72 77 79 82 84 83 85 86 86 85 83 86 85 85 86 86 88 87 87 86 84 80 82 83 84 85 86 85 82 81 80 78 77 78 79 78 78 76 77
64 67 62 62 68 74 77 79 82 82 83 81 86 87 86 86 85 86 85 85 87 88 89 87 86 85 83 82 83 85 87 86 83 81 80 79 80 76 77 78 80 80 79 77
65 63 62 61 71 71 74 80 84 80 80 82 84 84 86 86 86 86 87 88 87 87 89 87 86 86 86 84 84 84 88 86 83 80 81 81 82 79 80 79 79 56 55 53

GFSCGP_sfc_temp_009.txt.gz
Temp
81 75 70 76 79 80 80 77 76 81 85 81 79 78 82 87 88 87 87 88 86 85 87 85 83 82 81 80 79 78 77 78 77 77 75 73 71 76 75 71 68 70 72 74
77 70 80 83 82 79 79 76 75 80 84 81 78 76 82 85 86 88 87 88 86 85 84 82 81 80 79 79 79 78 78 78 77 79 76 76 73 74 75 72 71 72 74 72
73 78 83 82 79 77 77 74 74 74 80 82 77 73 78 85 87 88 89 88 88 85 82 80 79 79 80 79 78 79 78 77 77 77 78 76 75 74 70 71 73 70 72 74
78 85 82 79 77 80 72 81 78 75 72 65 79 63 74 80 82 85 87 87 87 85 84 81 80 79 79 80 81 80 79 78 78 77 78 73 70 67 70 70 70 68 73 72
75 79 79 76 78 83 76 83 79 76 71 70 71 66 72 81 78 81 86 88 87 86 83 81 81 80 81 81 80 80 79 78 78 77 76 74 71 70 69 68 69 69 69 71
81 89 85 83 85 83 84 79 77 76 72 60 68 68 70 76 78 81 86 88 86 86 84 83 83 82 81 82 81 80 79 77 78 79 77 75 72 70 68 65 67 70 67 67
77 80 86 87 79 83 80 72 61 56 58 57 73 68 71 80 83 84 84 87 87 86 84 82 80 81 80 80 80 80 79 77 78 78 77 77 75 72 69 68 67 66 67 63
68 65 80 85 79 76 75 72 63 50 56 63 72 62 73 83 86 86 87 87 86 84 83 82 81 81 81 80 80 81 79 78 79 78 77 77 77 75 74 70 67 64 69 69
69 70 83 84 84 83 75 68 77 67 69 65 69 74 79 83 83 85 85 83 82 82 81 82 82 82 82 80 79 80 80 79 79 78 77 77 77 76 72 73 70 70 72 68
78 67 81 82 84 84 79 81 66 69 54 52 64 67 71 75 79 82 82 81 80 82 82 82 83 81 82 82 80 80 80 79 80 79 79 79 78 78 77 77 75 73 69 73
80 75 74 80 74 73 75 73 73 72 69 59 56 65 80 79 81 81 83 83 81 82 83 83 83 83 83 83 83 80 80 80 79 79 79 78 79 78 78 77 76 72 72 69
80 74 68 72 82 83 80 75 74 64 60 68 67 68 84 83 84 84 85 84 84 84 85 85 85 83 83 82 82 80 80 81 81 80 79 78 79 78 77 77 76 75 74 69
79 70 63 67 74 78 74 77 77 74 71 65 62 66 86 85 84 86 85 86 85 84 85 85 85 83 83 82 82 82 81 82 82 82 79 77 77 77 76 75 76 77 77 74
75 72 66 63 67 74 68 73 76 72 65 65 68 72 78 80 82 85 85 86 86 84 84 85 84 84 84 83 84 83 82 83 83 82 80 76 77 77 77 78 78 78 79 77
75 65 71 74 78 76 74 72 74 71 71 66 70 72 78 83 84 86 86 86 85 84 84 84 83 83 84 83 83 84 84 83 83 82 80 76 77 78 78 78 79 79 79 79
76 65 70 68 75 77 71 74 74 75 75 74 74 74 85 87 89 87 86 86 84 84 85 85 85 85 84 83 83 84 83 83 83 81 80 79 78 79 77 77 78 78 79 79
70 68 65 61 72 72 66 73 74 75 77 76 70 77 85 84 85 86 86 86 85 85 86 86 85 84 84 84 83 83 83 84 82 81 81 80 79 78 77 78 78 77 76 77
69 67 68 63 67 53 72 83 81 77 77 80 79 82 84 85 88 90 92 88 87 87 87 87 86 85 85 86 85 85 85 83 83 82 82 81 81 79 79 78 77 75 75 76
75 69 63 59 61 67 73 77 77 74 73 81 80 83 86 88 89 87 92 93 90 89 90 90 89 87 85 85 85 85 84 84 83 83 83 83 82 79 78 77 75 75 75 75
74 72 65 63 56 54 71 81 85 84 67 83 83 82 83 86 78 84 92 94 92 92 92 91 90 88 85 85 85 83 83 83 83 85 85 84 84 80 78 77 75 75 75 75
62 64 60 61 58 67 79 83 84 64 69 83 84 84 84 82 86 90 94 93 94 93 92 92 91 87 85 86 85 82 83 83 86 88 87 85 83 80 79 77 76 75 75 77
60 59 61 62 59 57 84 82 71 78 84 85 86 86 85 87 89 91 92 91 92 92 92 92 90 87 86 86 85 82 82 86 88 89 87 85 82 82 80 76 75 75 74 74
60 68 65 68 67 79 85 82 85 86 84 86 86 88 89 88 89 91 90 90 92 92 92 93 91 88 86 86 86 83 84 87 88 87 85 83 81 81 79 76 74 75 74 76
67 75 68 69 72 76 81 85 86 87 86 88 90 89 90 88 90 90 90 90 91 92 91 92 91 88 85 86 86 85 86 88 87 85 84 83 80 79 79 79 78 77 76 77
61 64 68 68 75 76 80 84 85 86 88 87 88 90 90 90 89 90 90 90 92 92 92 92 90 89 88 87 86 87 88 88 86 85 84 83 82 78 79 79 80 80 79 78
62 57 61 64 73 74 76 83 85 84 85 86 86 88 91 91 90 91 91 91 91 92 93 91 90 90 90 89 87 88 90 88 85 83 84 84 83 81 81 80 80 58 58 56

GFSCGP_sfc_temp_012.txt.gz
Temp
77 69 66 70 74 75 75 74 73 79 85 79 77 78 82 86 86 85 86 86 86 85 85 83 81 80 78 78 77 76 77 77 75 73 68 70 68 68 70 68 69 68 69 70
72 66 74 78 78 75 74 72 72 79 84 81 79 77 82 84 84 85 85 85 86 84 82 81 78 78 76 75 76 77 77 77 75 70 70 71 71 71 70 69 70 70 67 69
67 72 78 77 75 73 73 71 72 73 80 82 78 73 77 83 86 88 89 88 88 82 80 78 77 76 76 76 75 76 77 77 76 74 71 70 70 68 66 67 65 66 70 70
72 79 77 74 73 76 68 79 78 76 72 64 78 60 73 79 80 85 86 86 85 83 82 79 77 75 75 76 77 77 77 77 76 75 71 69 66 65 66 64 66 65 69 71
70 74 74 73 75 80 74 82 78 77 71 69 69 63 69 78 76 81 84 87 85 83 81 79 78 77 78 78 76 76 76 77 77 75 73 69 67 67 67 66 66 65 64 68
75 84 81 79 83 83 84 79 78 76 71 59 67 65 66 72 77 81 85 86 84 84 83 81 80 79 78 78 77 76 75 76 78 76 75 70 67 66 66 65 66 65 65 66
73 75 82 85 78 83 80 72 60 55 56 55 70 66 68 78 83 83 84 86 84 84 82 79 78 77 77 76 76 77 75 74 77 75 75 72 69 69 66 65 65 66 64 65
64 62 76 84 79 75 76 71 62 49 52 58 71 61 70 83 86 87 87 86 85 83 81 79 79 78 78 77 76 77 76 74 76 76 75 74 69 68 68 67 66 66 64 65
65 66 82 83 85 82 75 68 77 65 68 62 66 71 79 82 82 84 85 83 80 81 79 79 79 78 78 76 75 77 76 76 77 75 75 75 72 69 68 68 68 69 67 67
73 64 79 82 85 84 78 81 65 67 52 50 62 66 68 73 77 81 80 80 80 80 80 80 80 78 78 77 76 77 77 76 77 76 76 76 75 72 72 71 69 67 67 67
77 71 73 80 75 73 74 72 72 70 67 56 53 62 75 76 80 78 79 81 79 79 80 80 80 80 80 79 78 76 77 77 75 76 76 76 74 75 72 69 69 67 66 68
77 71 64 72 82 84 79 74 73 63 59 66 65 63 82 81 83 83 81 81 81 81 82 82 81 80 80 78 78 77 77 77 77 77 75 76 74 74 71 69 70 68 64 69
75 66 60 65 75 79 73 76 76 73 70 63 59 64 82 83 83 84 82 82 81 81 82 82 82 80 80 79 79 78 78 78 78 78 75 75 73 71 71 69 71 71 67 68
74 68 63 61 68 74 68 73 76 71 63 64 66 70 76 79 80 83 84 82 82 81 81 82 81 80 80 80 80 80 79 80 79 78 75 73 72 72 73 71 73 71 71 68
73 62 69 72 76 76 74 72 73 71 71 65 69 71 76 80 81 84 85 84 83 82 82 81 80 80 80 79 80 80 80 80 79 78 75 72 73 74 75 73 73 73 72 71
73 62 68 67 74 75 72 74 74 74 74 72 73 72 83 86 86 85 84 84 83 82 83 83 82 82 80 80 80 80 80 79 78 77 75 75 74 75 74 74 74 72 72 71
67 67 63 59 71 71 65 73 74 74 77 76 69 75 83 83 84 85 83 85 84 84 84 83 82 81 80 80 80 79 80 80 78 78 77 76 75 75 74 74 74 73 71 71
61 65 66 60 65 52 71 82 81 76 78 80 80 81 83 84 87 89 89 86 85 86 85 84 84 82 80 82 82 80 82 80 79 78 78 78 76 75 74 73 72 71 71 70
70 68 63 57 57 66 71 77 77 74 73 81 80 82 84 87 87 85 91 91 87 86 87 86 85 83 81 81 81 81 81 80 80 79 79 79 78 74 73 72 69 70 70 70
72 71 63 60 53 51 69 80 86 84 66 83 83 82 82 85 76 82 89 92 89 89 89 87 86 84 81 80 81 79 80 79 79 81 81 80 79 76 73 71 69 70 71 71
61 63 58 58 57 64 78 84 86 63 68 81 84 82 82 79 82 86 89 90 90 89 89 89 86 83 80 81 80 78 79 78 82 84 84 81 77 74 73 71 70 70 70 71
60 57 59 59 56 55 83 82 73 76 82 83 84 84 82 83 86 88 91 90 89 89 90 90 86 83 81 82 80 78 77 82 84 85 84 80 75 78 76 70 70 70 69 69
50 66 60 65 64 76 82 80 83 84 82 85 84 86 85 85 86 89 89 90 90 90 90 91 87 83 81 82 82 78 79 83 84 83 80 78 76 76 74 71 69 70 68 69
60 58 58 65 71 76 79 84 84 87 86 87 89 87 87 84 87 89 89 89 89 90 90 90 88 84 80 81 82 81 83 85 84 80 78 77 74 73 73 74 72 71 69 69
54 55 55 58 73 78 81 72 85 87 88 88 89 90 88 88 89 90 90 89 90 91 90 90 88 85 83 83 83 83 84 84 81 79 78 76 76 72 72 73 73 72 71 70
53 48 51 52 56 65 72 73 66 82 86 87 86 88 89 90 89 91 90 90 90 90 91 89 88 86 87 85 84 84 86 84 80 78 79 78 77 74 75 73 73 51 57 51

GFSCGP_sfc_temp_015.txt.gz
Temp
69 60 57 63 67 68 66 63 63 69 76 74 70 72 74 76 76 74 73 72 73 72 70 71 71 70 68 67 66 67 65 65 64 62 62 61 61 62 63 64 64 63 63 64
62 57 67 71 71 67 66 63 62 69 76 72 70 69 72 75 74 74 74 72 69 68 69 70 68 67 66 66 66 66 67 65 65 63 63 63 63 63 63 63 65 65 65 63
58 64 72 70 67 65 65 62 63 63 71 73 67 61 66 74 75 77 77 74 70 69 67 68 68 65 65 65 65 66 65 66 66 65 63 62 62 62 61 62 63 62 66 65
62 70 69 66 64 67 59 71 70 68 64 53 66 48 60 67 69 73 77 70 69 70 69 69 67 64 65 65 67 66 66 66 67 65 63 62 60 59 60 62 63 62 64 65
60 64 65 64 66 71 64 73 70 69 63 58 59 50 56 65 65 69 71 72 69 70 69 67 66 67 67 67 65 66 66 66 66 66 64 61 60 60 61 60 60 60 61 63
66 75 71 68 74 74 75 70 68 67 64 46 56 54 56 59 66 69 72 72 71 69 68 68 69 68 67 66 66 65 65 65 67 66 64 62 61 61 60 59 59 60 62 62
64 66 73 76 68 73 71 62 49 41 44 41 60 55 57 66 71 73 68 69 69 70 69 67 67 66 65 64 64 65 65 64 66 66 64 63 62 61 60 59 59 59 60 61
53 51 67 75 70 66 66 63 50 38 39 47 61 52 60 72 76 74 75 72 71 68 69 67 67 66 66 65 65 66 64 64 65 65 64 63 63 61 61 60 60 60 60 61
53 55 72 75 77 73 65 59 66 53 52 47 54 61 66 71 71 72 71 70 66 67 67 67 67 65 65 64 65 65 64 65 65 65 65 62 63 63 62 62 62 61 62 63
58 51 69 73 76 75 70 70 56 49 41 37 50 54 54 65 67 69 67 66 65 65 66 67 68 65 65 65 65 65 65 65 65 66 65 65 64 64 63 62 62 62 62 62
65 55 59 70 66 64 65 63 58 56 51 41 40 47 63 65 67 67 66 67 66 67 67 67 66 66 66 65 65 65 66 65 65 65 65 64 65 65 64 62 64 61 62 63
67 54 52 59 73 76 71 62 58 54 46 51 49 50 72 66 68 69 68 70 66 67 66 68 67 66 66 64 65 65 65 65 65 66 66 64 65 64 64 62 63 63 62 63
67 58 44 51 60 69 66 67 65 57 54 50 47 49 69 72 69 72 68 70 70 68 67 67 69 67 67 64 66 66 66 66 66 66 65 63 63 64 63 62 62 64 62 62
69 58 55 47 55 64 63 66 67 58 49 53 56 58 64 69 68 67 70 70 70 71 71 69 69 66 68 67 69 68 67 67 66 66 64 62 62 64 63 64 62 64 64 63
57 56 58 63 66 66 68 67 67 62 60 57 59 59 64 69 69 69 71 71 71 70 70 70 68 67 67 66 67 69 68 67 66 65 64 63 63 64 65 65 65 64 65 64
51 55 61 58 66 67 66 69 69 68 65 62 64 63 70 74 73 71 72 73 73 72 73 72 71 70 69 69 67 70 68 67 66 65 64 65 65 66 64 64 64 63 63 63
44 47 54 51 62 62 55 67 67 68 67 67 60 63 68 69 72 69 73 75 74 75 75 74 73 72 70 70 69 67 67 67 66 66 67 66 66 66 65 66 64 62 61 60
44 44 49 51 55 43 60 71 74 69 70 68 67 71 71 71 72 73 78 75 76 77 76 75 74 72 70 70 68 67 70 68 67 67 68 68 66 66 66 64 62 61 60 59
53 47 44 46 48 56 63 69 69 65 64 73 68 72 75 75 73 69 79 79 78 78 78 77 75 73 69 73 69 70 70 69 69 67 68 69 67 65 64 62 61 61 60 58
56 54 47 46 41 44 58 70 75 70 57 70 71 69 70 71 66 65 74 79 78 78 79 76 75 75 73 72 71 70 69 69 68 69 71 71 68 65 63 61 60 61 61 61
50 49 46 46 43 53 67 73 73 55 54 69 73 69 69 66 66 72 75 78 79 79 78 78 76 75 74 74 72 71 68 69 71 72 73 70 66 65 62 61 61 61 61 61
46 47 46 47 44 44 71 70 60 62 66 69 69 70 69 71 73 75 76 76 78 78 77 79 76 74 73 74 73 70 67 71 73 72 72 70 65 71 67 63 60 61 60 59
42 46 42 48 50 62 69 65 70 70 69 71 71 70 73 72 73 75 76 75 79 79 79 79 77 73 73 74 75 71 69 72 73 70 68 68 68 67 65 64 60 59 59 58
46 48 43 46 54 57 65 64 65 71 71 73 74 73 73 72 74 75 74 76 79 79 80 80 76 74 72 73 75 74 72 74 74 68 66 68 67 63 65 66 64 63 58 57
43 45 46 46 52 54 57 60 63 65 67 74 76 76 76 75 74 75 74 80 81 80 80 80 77 75 74 74 73 74 76 75 72 67 68 69 68 65 64 65 65 64 60 60
46 44 44 42 52 50 52 58 64 62 61 62 58 72 76 78 76 77 75 79 78 77 81 79 78 76 75 76 75 75 78 76 70 67 69 68 68 64 66 64 60 47 50 51

GFSCGP_sfc_temp_018.txt.gz
Temp
65 56 52 58 62 63 60 57 56 64 71 66 64 66 72 75 69 71 70 70 70 68 65 66 67 66 64 63 63 63 63 61 61 61 60 60 60 60 61 61 63 63 61 62
58 54 63 67 65 62 60 57 57 65 70 64 65 65 72 72 69 70 71 69 64 61 64 66 64 63 63 62 63 62 63 62 62 61 60 61 61 61 61 61 63 65 62 62
56 60 69 66 62 60 60 58 58 59 66 66 63 60 64 71 70 72 72 70 65 64 63 64 64 62 61 61 62 63 62 63 63 63 61 60 60 60 60 60 62 62 64 64
58 67 65 63 60 62 55 66 65 63 58 49 62 45 56 64 67 69 72 65 62 65 66 65 63 59 61 62 63 63 63 62 64 63 61 59 57 57 58 58 60 60 62 64
55 61 60 59 61 66 60 67 64 63 58 54 58 48 54 61 63 67 69 63 63 66 65 63 63 64 63 63 61 62 62 63 63 63 61 59 58 58 59 58 59 59 61 63
61 68 66 63 68 68 69 63 61 59 55 44 56 51 56 57 64 66 66 64 63 62 62 62 65 64 62 62 61 61 62 63 63 62 61 60 58 58 58 57 58 58 60 61
60 61 67 70 62 67 63 53 41 37 41 42 57 51 58 61 66 69 66 63 62 63 62 63 62 62 60 60 60 61 62 62 62 62 62 61 59 60 58 58 58 58 58 59
49 47 62 69 64 59 59 56 44 36 36 43 56 48 59 68 71 71 68 66 66 62 63 64 63 62 63 62 61 62 62 62 62 61 61 61 61 59 59 59 59 58 59 60
49 51 66 69 71 67 58 53 62 49 47 44 49 56 63 64 64 65 64 65 62 61 62 63 62 62 61 60 61 61 61 61 62 62 61 61 61 61 61 60 60 59 61 62
54 46 63 67 70 69 64 64 51 44 40 35 45 49 51 58 61 63 62 61 59 60 61 63 63 62 61 62 61 61 62 61 62 62 61 62 62 62 62 62 60 60 61 61
59 50 53 64 60 59 56 58 54 54 48 40 38 47 57 63 62 62 64 63 61 61 63 64 63 63 61 61 60 61 61 62 61 62 61 61 61 62 62 61 60 61 61 61
61 49 47 53 61 70 65 57 59 50 45 47 46 47 63 60 65 67 63 65 63 64 64 64 63 61 60 60 60 61 61 62 62 62 62 61 61 62 61 61 60 60 61 62
50 52 41 46 52 60 61 63 61 52 48 47 45 48 65 63 66 68 64 63 65 63 63 63 61 62 63 61 62 62 61 62 62 63 61 61 60 61 60 60 61 61 61 62
51 46 51 46 52 57 54 62 62 57 46 47 56 53 59 61 63 63 64 65 65 65 65 65 63 63 63 64 64 63 62 63 62 63 60 60 60 60 61 60 62 61 62 63
44 40 54 58 60 59 59 63 63 59 58 55 55 56 61 62 64 66 66 65 66 65 65 66 64 63 62 62 64 65 63 62 62 62 60 60 61 62 62 62 62 62 62 63
43 36 51 53 62 61 58 61 65 65 60 58 60 56 64 70 71 68 67 67 67 67 68 68 68 66 65 64 65 67 64 63 64 62 61 62 62 63 62 61 61 61 61 60
38 38 39 47 58 58 51 60 61 65 65 62 56 60 65 65 67 68 66 70 69 70 70 69 69 68 68 66 68 65 63 63 63 62 63 63 63 63 62 61 60 59 59 58
39 38 39 41 49 38 57 66 67 66 65 67 62 65 67 68 69 71 72 71 71 72 72 71 71 69 69 67 67 66 65 65 65 63 64 64 63 63 62 60 59 57 56 56
46 40 35 37 45 51 58 62 63 60 58 64 68 67 69 68 67 62 74 75 74 74 74 73 73 71 69 67 67 67 66 65 66 65 64 64 64 62 61 59 57 57 56 55
48 46 40 38 38 41 54 67 70 66 56 65 67 66 67 66 62 61 73 76 76 76 76 74 73 71 70 69 68 67 66 65 65 66 67 66 64 62 60 58 58 57 56 56
42 40 37 37 37 48 61 69 68 54 56 65 67 67 65 66 71 69 73 76 77 76 75 74 72 71 71 69 69 67 67 66 68 69 68 66 63 61 60 58 58 57 57 57
37 38 39 40 40 42 56 63 55 53 59 65 67 65 65 67 69 67 74 76 75 75 73 73 72 71 71 71 70 67 67 70 70 69 69 66 63 67 62 59 58 58 57 56
35 40 37 41 41 50 55 54 55 58 57 59 67 67 71 68 69 69 70 74 74 74 74 75 74 70 70 71 72 67 69 69 70 67 67 65 64 65 62 61 58 57 57 55
41 45 39 43 47 48 53 56 57 60 60 60 62 67 69 70 70 69 69 73 75 75 75 75 72 70 69 71 73 73 69 72 71 66 66 65 64 61 62 64 62 61 57 56
41 43 42 43 46 49 53 54 56 57 61 62 62 64 74 72 69 71 69 73 76 75 76 75 72 71 71 71 71 71 71 73 70 65 65 65 65 63 62 63 63 63 62 61
44 41 39 38 46 45 48 53 57 54 56 61 60 60 65 67 70 71 72 76 76 76 76 74 73 72 72 72 72 71 74 73 70 65 65 65 65 63 63 62 56 46 52 49

GFSCGP_sfc_temp_021.txt.gz
Temp
59 53 49 55 59 61 57 53 52 58 65 61 59 60 65 70 68 69 69 66 68 65 64 62 63 65 62 61 60 60 60 59 59 59 59 58 59 59 59 60 61 63 62 61
55 51 60 64 63 59 56 52 53 61 65 61 59 59 65 67 69 67 69 68 63 60 59 62 62 64 64 61 60 60 61 59 60 59 59 59 59 59 59 59 61 62 63 62
54 60 66 63 59 56 55 53 54 55 60 62 58 56 60 68 66 69 68 68 64 63 58 60 62 62 60 59 60 60 60 60 61 61 59 59 58 59 59 58 59 60 62 63
56 65 62 59 56 59 51 61 61 58 53 44 57 42 54 60 64 66 69 66 65 60 60 62 62 57 60 60 60 60 60 61 61 61 59 58 56 56 57 57 58 59 62 63
52 58 58 57 59 63 57 64 59 58 51 47 53 45 51 56 59 63 66 66 60 59 61 60 60 61 60 60 59 60 60 61 61 61 59 57 56 56 57 57 58 58 60 61
58 66 65 62 65 65 65 58 54 53 49 41 52 47 47 54 60 64 65 61 59 58 58 58 60 60 59 59 59 59 60 60 60 60 59 58 57 57 55 56 56 57 58 59
53 57 61 66 58 60 58 47 36 32 35 37 53 47 54 58 63 66 67 61 58 58 58 60 61 59 58 58 58 59 59 59 60 60 59 59 58 57 56 56 56 57 57 57
45 43 58 65 59 55 55 53 39 31 33 40 52 45 53 64 68 67 68 61 59 57 59 61 60 60 60 59 58 60 59 59 59 60 60 59 59 57 57 59 58 57 57 58
46 48 62 66 66 63 53 48 57 45 43 40 45 52 61 62 63 62 59 59 57 58 58 60 60 59 59 58 58 59 59 59 59 60 59 59 60 59 60 59 58 59 59 61
49 43 59 63 66 65 56 59 46 42 34 34 43 46 50 57 59 58 57 56 57 56 57 60 59 58 60 59 58 58 59 60 60 60 59 61 60 60 60 60 60 59 59 59
50 46 49 57 55 55 51 51 48 50 45 36 35 43 55 60 59 59 58 57 57 57 59 61 60 60 60 58 57 58 58 59 59 59 59 60 60 60 59 59 59 59 59 60
45 45 42 50 57 65 61 54 53 47 39 46 43 47 61 61 61 63 61 60 57 59 61 61 60 58 57 57 57 57 58 59 60 60 59 59 60 60 58 59 59 59 59 60
44 40 39 42 49 55 56 58 59 51 45 42 45 49 61 60 59 63 59 60 59 58 58 58 57 59 59 57 58 58 59 60 60 60 59 59 59 59 58 59 59 60 60 60
47 38 43 42 46 53 49 57 56 56 49 49 50 50 55 57 60 59 59 59 59 60 61 60 59 60 60 60 60 60 59 60 60 60 59 58 58 58 59 59 60 60 61 60
40 32 41 48 56 56 54 56 59 54 56 51 55 55 58 58 59 62 62 59 59 60 61 62 60 59 59 58 59 61 60 60 59 60 59 59 58 59 60 60 60 60 61 61
40 32 39 43 54 56 54 56 60 60 60 58 55 55 62 63 63 61 62 62 62 62 64 64 63 61 60 62 61 62 60 60 60 59 60 60 60 61 60 59 59 59 59 60
40 34 36 34 51 52 46 55 55 59 62 62 53 58 60 59 64 63 61 65 65 65 65 65 65 63 63 63 65 60 60 60 60 59 61 61 61 61 59 59 59 57 56 58
40 35 35 31 41 34 53 63 63 58 62 61 59 62 64 65 68 68 69 66 66 67 67 67 67 66 65 65 64 61 61 62 62 60 61 61 62 60 59 58 57 55 55 55
45 37 31 29 33 46 54 57 59 54 56 63 65 63 65 65 63 59 69 71 70 70 70 70 69 67 64 63 64 62 61 62 63 61 61 61 62 59 58 57 55 54 54 55
47 43 36 33 30 34 48 56 64 62 54 61 63 61 62 63 60 59 65 71 71 71 71 70 69 67 64 64 63 63 61 62 62 63 63 62 61 60 58 56 55 54 54 55
36 35 32 35 31 41 48 51 58 51 48 53 60 63 59 65 70 70 69 71 73 72 70 70 68 67 66 65 65 63 62 62 65 66 64 61 60 59 58 56 56 54 54 54
33 34 32 37 33 35 52 51 45 46 51 55 56 61 62 68 67 65 70 71 72 69 67 70 68 68 67 66 66 64 62 66 66 65 64 61 58 63 60 57 56 55 54 53
32 36 34 37 40 48 50 47 52 52 51 54 54 56 61 66 65 66 68 70 72 72 72 71 70 66 66 67 69 65 66 65 65 64 62 60 59 59 58 57 55 55 54 53
39 44 39 39 48 49 49 52 54 54 53 55 59 58 59 64 65 67 70 70 72 72 71 71 69 67 65 67 70 70 67 68 66 63 61 60 60 56 56 59 58 57 55 53
38 41 39 39 46 49 50 52 53 54 57 56 59 60 59 63 64 68 69 71 72 73 72 71 70 68 67 68 69 68 68 68 65 64 62 60 62 59 58 60 59 59 58 59
42 40 38 36 47 44 46 52 54 53 54 56 56 58 60 61 65 63 70 73 73 72 72 71 70 69 69 70 69 68 69 69 66 63 62 61 61 60 60 59 54 45 48 47

GFSCGP_sfc_temp_024.txt.gz
Temp
55 50 48 54 58 57 56 53 51 58 63 57 55 56 62 67 64 64 66 68 68 64 63 61 60 61 62 62 61 60 59 59 58 58 59 59 60 60 60 61 62 63 63 63
51 48 57 60 59 57 55 52 51 60 62 57 56 55 61 65 65 64 67 68 64 62 60 58 57 60 63 62 60 59 60 58 59 59 59 60 59 60 60 60 61 63 63 62
51 56 63 59 56 53 54 52 54 55 56 57 54 53 57 64 64 65 66 66 64 62 59 56 58 58 59 59 59 59 59 59 60 61 59 59 59 59 59 59 60 61 63 63
52 62 59 57 54 57 49 59 59 56 49 41 53 38 53 59 61 63 67 63 64 60 56 57 57 56 59 59 59 59 59 60 61 60 60 59 57 56 57 58 59 59 62 63
48 55 55 54 56 59 54 63 58 55 47 43 47 41 48 54 57 61 65 66 63 57 56 56 58 59 60 59 59 59 60 60 60 60 59 58 57 57 58 58 59 59 61 63
54 62 62 61 64 63 63 58 53 48 44 36 46 45 47 50 59 61 64 63 57 55 55 56 59 59 58 58 58 59 59 59 60 60 60 59 58 58 57 58 58 58 60 61
50 53 57 63 55 58 56 47 34 31 32 33 50 44 51 56 60 64 65 63 56 54 55 57 59 58 57 57 57 59 59 59 60 60 60 59 59 59 59 58 58 58 59 59
41 39 55 61 56 52 53 48 37 30 31 39 51 41 49 61 68 65 65 62 55 53 56 59 59 58 59 58 58 59 59 59 59 60 60 60 60 59 59 60 59 59 59 59
43 43 58 63 63 62 49 46 50 41 41 37 41 48 57 61 62 63 59 56 53 53 54 57 57 58 57 57 58 59 58 59 59 60 60 60 61 61 60 60 61 60 61 61
47 40 56 60 62 63 56 57 43 40 32 30 40 44 48 56 62 59 56 54 52 52 55 58 58 57 58 58 58 58 59 59 60 60 60 61 62 62 61 61 60 60 61 61
45 43 46 55 53 50 47 48 44 47 39 33 33 41 53 59 61 59 56 55 52 54 57 59 58 58 58 57 57 58 58 59 60 59 60 61 61 61 60 60 60 61 61 61
42 38 39 48 55 63 59 50 48 45 39 40 40 42 58 59 60 58 59 56 54 55 57 59 58 57 56 57 57 57 58 59 60 60 60 61 61 61 60 60 60 61 61 61
43 35 34 39 47 51 54 54 52 44 42 42 38 42 60 59 59 58 57 56 56 56 55 55 56 57 58 57 57 58 58 59 60 60 60 60 60 60 60 60 60 61 61 61
48 35 34 36 41 48 48 53 55 47 38 41 51 49 58 58 57 56 57 55 54 56 57 58 57 57 57 58 59 59 59 60 60 60 59 59 60 60 60 60 61 61 62 61
42 30 37 40 45 47 49 53 54 52 53 46 49 51 56 58 59 58 58 55 56 56 57 59 58 57 56 56 58 59 59 59 59 59 59 59 60 60 61 61 61 62 62 62
42 30 36 36 48 49 47 51 55 56 55 54 53 52 60 61 59 58 59 58 58 58 60 61 60 59 57 59 59 60 59 59 59 59 60 59 60 61 61 61 61 61 61 62
38 32 31 30 41 42 41 50 51 54 59 56 50 60 57 57 60 59 57 61 61 61 62 62 62 61 60 61 61 59 59 59 59 60 60 61 61 61 61 61 60 59 59 60
39 36 33 29 35 32 48 57 59 54 56 59 57 59 61 63 64 63 65 64 62 63 64 64 64 62 61 62 61 60 59 60 60 60 61 61 62 60 60 59 58 57 57 58
45 39 31 28 30 41 49 47 47 48 52 58 59 63 62 63 61 60 65 66 66 66 67 67 66 64 60 61 62 61 59 60 61 60 61 61 62 60 59 58 57 57 57 57
45 42 37 31 29 31 40 49 52 49 46 49 50 57 59 60 56 61 63 66 65 65 66 66 65 63 62 62 61 61 59 59 60 62 62 62 62 60 59 57 57 57 57 57
33 33 30 31 28 36 46 49 52 44 40 48 50 51 51 59 67 71 66 66 68 68 66 66 65 63 63 61 62 61 60 60 63 64 63 61 61 60 59 57 57 56 56 57
34 32 30 32 29 31 48 48 39 43 47 49 50 51 51 55 64 64 66 68 65 66 65 67 65 63 63 63 64 61 60 64 63 64 63 61 59 63 60 58 57 56 56 55
32 37 34 36 38 48 49 50 52 49 48 50 50 53 53 54 56 63 64 64 66 68 69 69 67 63 62 63 66 62 62 62 63 63 61 59 59 60 59 58 56 56 55 56
40 43 38 39 47 47 50 54 55 53 50 53 54 54 54 54 57 63 63 65 67 69 68 69 66 63 61 64 66 67 63 65 64 61 59 58 59 57 58 59 59 58 56 55
38 41 39 39 45 47 53 52 51 52 53 54 55 56 56 56 56 63 64 65 68 69 68 68 67 65 64 65 66 65 65 65 63 62 60 59 60 59 58 59 59 60 59 58
41 38 37 37 45 44 46 52 53 50 51 54 54 54 58 57 57 63 64 68 68 69 68 68 67 66 65 67 67 65 67 66 63 61 60 60 60 59 60 59 56 44 48 47

GFSCGP_sfc_temp_027.txt.gz
Temp
63 57 55 60 61 63 64 61 61 66 71 66 67 67 70 75 75 74 75 76 77 78 82 75 73 72 71 71 70 71 71 71 72 72 72 72 72 73 73 73 72 72 72 72
57 54 63 67 65 61 60 59 60 66 69 66 66 65 70 72 73 76 76 76 77 79 78 70 68 69 70 69 70 70 71 70 72 72 72 74 73 74 73 72 71 71 72 71
56 61 66 63 62 58 58 58 59 60 64 66 64 61 66 74 74 77 78 78 78 77 76 68 67 68 70 69 69 71 71 70 72 71 71 71 71 71 72 72 72 72 71 70
58 67 63 59 58 61 53 64 63 60 57 54 63 51 63 68 70 74 76 77 79 78 70 68 67 67 68 70 72 72 71 70 72 71 71 70 71 70 71 71 71 71 70 70
54 58 59 57 59 62 58 66 61 59 55 55 58 53 60 66 65 70 76 77 78 73 71 68 68 69 71 71 72 72 71 71 71 71 72 71 69 71 71 70 68 68 70 69
60 67 65 65 65 65 67 63 61 60 58 47 56 55 55 63 66 72 77 79 72 68 68 68 69 70 71 73 72 71 71 70 71 71 70 70 68 68 70 69 69 69 68 67
55 58 64 67 61 65 63 57 46 44 45 45 59 54 56 68 72 72 75 79 71 68 68 67 67 70 70 70 71 72 71 69 71 71 71 70 69 68 68 68 69 67 67 66
47 45 58 65 62 59 59 58 50 40 42 49 56 49 56 70 75 76 77 77 70 68 68 68 70 71 71 71 71 72 71 71 71 72 71 70 69 72 72 70 70 69 68 69
48 50 63 65 67 66 58 54 65 55 52 52 56 56 65 71 70 72 74 72 69 67 67 68 70 71 71 71 71 71 71 72 72 72 71 70 71 70 70 69 69 71 69 69
50 46 60 63 68 68 63 65 50 55 44 42 50 52 59 66 69 72 72 70 67 66 67 69 70 70 72 72 72 72 73 72 72 72 72 73 72 72 71 71 69 69 69 70
51 50 54 62 58 58 59 57 58 59 56 48 46 54 68 70 71 74 75 71 67 66 68 69 71 71 73 73 73 71 72 72 72 72 72 71 72 71 70 71 70 70 70 70
48 47 48 54 65 68 64 59 59 52 47 55 54 56 69 70 72 73 72 68 68 69 70 72 72 72 72 72 72 72 72 73 73 73 72 72 72 71 70 70 70 71 69 70
43 45 45 49 56 63 59 61 62 59 58 52 51 56 70 70 71 72 72 68 67 68 69 71 71 71 72 72 72 73 72 73 74 73 72 71 70 70 69 69 69 70 70 69
44 42 43 46 50 56 54 58 61 59 54 54 55 61 69 71 72 72 70 68 68 68 68 70 70 72 73 73 73 73 73 74 73 73 72 71 70 70 70 70 70 70 70 69
39 37 42 45 47 49 51 58 59 56 58 53 58 60 67 71 74 72 70 68 68 68 68 70 70 71 72 72 72 74 74 73 73 72 72 70 70 71 71 70 70 70 70 70
44 37 42 45 51 52 50 54 59 60 61 60 61 62 72 75 72 72 69 68 69 70 70 71 71 72 72 72 72 73 73 73 73 72 72 72 72 71 70 70 70 70 69 65
42 40 40 43 47 50 47 55 57 59 63 63 58 65 72 72 73 74 72 71 72 72 71 71 71 72 72 73 73 72 73 73 72 72 72 72 72 71 71 71 70 69 67 68
42 40 41 41 45 38 56 60 65 60 63 67 68 70 73 75 79 81 79 75 74 74 73 73 73 73 73 75 74 75 75 73 73 73 73 73 73 72 71 71 69 67 66 65
48 43 40 38 41 49 53 51 50 58 58 55 61 70 73 76 76 77 79 79 77 76 76 75 76 75 73 73 75 74 73 74 74 73 73 74 74 72 71 70 68 67 68 68
48 47 41 40 36 41 45 52 57 55 52 54 55 56 58 63 67 76 84 79 78 78 77 76 76 75 73 73 74 73 73 73 73 75 75 75 75 73 71 70 68 67 69 68
36 34 34 38 38 45 50 54 57 47 48 54 55 55 56 58 73 70 68 79 79 77 77 77 75 74 72 73 72 73 73 72 76 77 76 75 74 72 72 69 68 68 69 68
36 35 35 38 37 38 53 55 49 51 54 55 56 56 56 59 61 64 68 73 77 76 76 76 74 74 73 73 73 74 72 76 77 76 75 74 72 74 72 69 68 69 68 67
35 39 37 42 46 51 52 52 57 57 55 56 56 58 59 59 61 64 67 70 76 77 77 78 76 73 72 73 75 73 74 76 75 74 74 73 72 73 72 70 68 69 68 70
42 44 42 43 48 50 50 54 56 57 57 59 60 59 60 60 63 65 68 70 76 77 77 77 77 74 71 72 75 76 76 76 75 73 72 72 71 71 71 73 72 72 70 71
38 41 40 42 48 50 52 52 54 55 60 60 62 62 61 63 64 66 67 70 77 77 78 78 77 75 74 73 75 77 76 76 73 72 72 71 73 70 70 72 73 73 72 71
43 43 41 42 49 46 46 53 55 54 57 59 60 61 64 64 64 66 68 73 77 78 78 76 77 77 76 75 76 77 77 76 73 71 72 72 74 72 73 72 69 44 51 49

GFSCGP_sfc_temp_030.txt.gz
Temp
68 63 61 67 70 72 72 70 69 73 80 76 74 76 81 85 84 84 85 85 86 88 93 93 85 83 82 81 79 79 79 77 80 81 81 81 81 82 82 82 80 79 79 76
65 59 70 74 73 70 69 67 68 75 79 76 73 73 80 83 83 84 84 85 86 88 91 92 81 79 79 78 78 78 77 77 79 82 82 83 83 84 84 84 79 79 78 74
61 65 73 71 69 67 66 65 66 67 74 76 72 68 72 80 84 86 86 87 88 89 89 87 79 78 79 77 77 77 77 77 80 80 80 79 79 80 80 80 80 78 77 76
63 72 70 69 67 70 62 71 69 67 65 59 72 58 69 76 78 81 84 86 88 90 90 84 80 78 78 78 79 79 78 77 78 78 79 77 80 79 82 80 82 78 77 76
59 64 66 66 68 73 67 74 70 68 64 63 65 60 67 75 72 77 83 85 89 90 87 82 81 79 80 79 79 79 78 78 77 78 79 78 77 80 81 81 74 75 73 72
63 74 71 71 74 74 74 70 69 68 65 53 61 60 62 69 73 78 84 86 89 85 82 81 81 80 79 81 80 78 77 76 77 78 77 76 75 75 78 77 73 73 72 70
59 62 70 73 68 72 70 63 54 50 51 50 65 61 62 73 79 80 83 85 86 83 81 79 78 79 79 79 79 79 77 76 77 77 77 76 75 74 73 74 73 72 70 70
50 48 62 71 68 65 65 64 58 46 49 56 65 56 66 76 81 83 85 87 86 83 81 80 80 79 80 79 79 79 78 77 77 78 77 77 76 80 77 76 76 77 70 74
50 53 69 70 73 73 65 60 72 63 64 59 65 67 72 75 78 82 83 85 82 81 79 79 80 80 80 79 78 78 78 78 78 78 77 77 77 75 77 75 76 72 74 75
54 47 66 68 73 74 70 73 59 63 49 48 59 61 61 72 77 80 81 83 84 80 79 80 80 79 81 80 79 79 80 78 79 79 78 79 77 78 78 76 75 73 74 76
54 52 58 66 63 64 67 64 66 66 63 53 53 60 72 73 79 80 83 85 81 79 80 80 81 81 82 81 81 79 79 79 78 79 79 78 78 79 78 76 77 74 74 76
54 51 48 59 70 74 71 67 66 58 54 63 64 62 75 79 80 83 86 83 81 81 81 82 82 81 81 81 80 79 79 80 80 80 79 78 78 79 77 75 75 74 74 77
44 50 47 53 64 69 66 68 68 68 67 58 57 59 79 79 80 81 81 80 80 80 81 82 82 81 81 81 80 80 80 81 81 81 79 77 75 77 74 75 74 75 74 75
47 47 50 51 57 65 61 65 68 65 60 62 62 66 74 78 79 80 80 79 80 80 80 81 81 81 82 81 81 81 81 82 81 81 79 77 76 75 75 75 75 75 75 75
48 45 52 55 56 56 61 64 66 63 65 61 66 65 75 80 79 81 81 80 79 81 80 80 80 81 82 81 81 82 82 81 81 80 79 77 76 76 77 76 75 75 74 73
48 42 51 50 57 57 56 62 66 66 67 66 68 66 79 82 84 81 79 80 80 81 81 81 81 82 81 81 81 81 81 81 81 79 79 78 78 76 76 75 75 74 70 72
41 43 47 46 57 55 52 60 64 66 69 68 63 71 79 77 79 81 82 81 82 83 82 81 81 81 81 81 81 80 81 82 80 79 80 78 78 77 76 77 75 71 71 64
44 42 46 49 54 41 59 68 70 67 69 72 72 75 78 79 83 86 89 85 84 85 84 83 83 82 82 83 83 82 83 81 81 80 80 79 79 78 77 77 75 73 69 65
53 44 39 45 48 57 59 58 61 64 63 65 67 75 78 82 81 81 87 90 88 87 87 86 86 84 83 83 83 83 82 81 81 81 80 80 81 78 77 76 74 74 70 71
53 50 40 45 44 44 52 59 64 63 57 62 63 65 66 71 69 78 78 83 89 90 89 87 86 85 83 83 83 81 81 81 81 82 82 82 82 79 77 75 74 75 73 73
41 41 37 39 47 51 57 62 64 50 52 61 63 64 64 65 74 73 76 78 83 89 88 88 86 83 82 83 82 80 81 80 83 84 84 82 81 79 78 75 75 74 75 74
40 37 38 39 42 41 58 60 54 56 61 62 64 65 64 67 69 72 75 77 81 85 88 87 85 84 83 83 82 81 80 83 85 85 84 82 79 80 79 75 75 75 74 72
37 42 41 46 40 53 57 58 62 62 62 63 64 66 66 67 69 73 75 77 80 85 87 88 86 83 83 83 83 81 82 84 85 83 81 80 79 79 78 75 74 76 75 76
47 51 44 49 54 56 52 59 62 63 63 66 68 68 69 68 71 73 76 78 81 84 85 87 87 84 81 83 84 84 84 86 84 81 80 80 78 77 78 79 78 79 77 78
39 41 44 50 54 57 54 55 59 60 64 66 68 69 69 71 72 74 76 78 81 85 87 88 86 85 83 84 84 86 86 85 82 80 80 79 80 77 77 79 80 80 79 76
47 45 40 39 52 52 53 56 59 58 59 64 66 68 71 73 73 75 76 79 80 84 88 87 86 86 86 86 86 86 88 85 82 79 81 81 82 79 80 79 77 45 49 54

GFSCGP_sfc_temp_033.txt.gz
Temp
71 64 62 68 72 74 74 73 71 76 83 78 77 79 84 86 87 87 89 90 89 90 95 98 98 91 89 88 85 83 82 83 83 82 83 83 83 83 85 86 85 83 81 80
66 60 70 75 76 73 72 70 70 77 82 79 78 77 83 86 85 87 88 89 90 91 94 95 94 87 85 83 82 81 81 80 81 83 84 86 85 87 86 87 85 83 81 77
60 67 74 72 72 70 71 68 69 70 77 80 77 73 76 84 87 88 88 90 91 91 91 93 90 85 84 82 81 80 80 78 81 84 84 83 83 83 82 83 82 81 78 77
64 71 71 70 69 72 65 76 74 71 69 63 77 61 72 79 81 84 86 89 90 91 93 95 89 84 82 82 82 81 79 79 82 81 81 79 81 81 83 83 84 82 79 77
60 65 66 66 69 75 70 78 75 73 68 67 68 64 70 78 76 80 85 88 89 92 94 94 88 85 85 83 81 80 79 79 79 80 81 80 79 83 83 83 79 78 76 76
65 74 72 70 75 77 79 74 74 73 69 58 65 65 66 72 76 80 85 88 90 93 94 92 88 85 83 84 82 80 79 78 79 80 80 78 78 79 79 79 78 75 72 72
59 63 71 74 68 74 75 68 57 55 56 56 69 65 68 76 81 82 83 87 91 94 90 87 84 83 82 81 81 80 79 77 79 79 79 79 78 77 76 76 73 73 71 72
51 48 64 72 69 67 69 68 59 47 52 58 70 60 69 82 85 86 87 90 92 88 88 85 84 83 83 81 81 81 79 78 79 80 79 79 79 80 79 77 75 73 75 72
51 53 70 71 74 74 68 65 74 64 68 63 69 73 79 81 82 83 85 87 88 87 85 84 85 84 83 81 81 81 80 80 80 80 79 79 79 78 78 76 75 75 75 76
52 47 65 70 73 74 71 77 62 66 51 52 64 66 69 74 78 82 83 85 87 86 85 85 84 83 83 83 82 82 82 80 81 81 80 80 76 79 80 76 74 75 75 79
54 48 55 66 64 64 67 68 68 69 67 58 55 63 80 78 81 82 85 87 87 85 85 85 85 85 84 83 83 81 82 81 81 81 81 79 76 79 79 76 76 75 76 77
57 46 45 56 72 74 72 69 69 62 58 66 65 65 82 81 84 86 87 88 89 86 86 86 86 85 84 83 83 81 82 82 82 82 82 80 77 79 75 75 75 76 76 79
50 47 43 47 59 70 67 71 72 69 70 62 61 66 83 83 83 88 87 88 85 85 86 86 85 85 84 83 83 83 82 83 83 83 82 79 77 76 74 74 75 76 75 79
45 46 44 40 53 65 62 68 72 69 62 65 66 69 76 80 81 84 83 83 84 85 84 85 84 85 85 84 84 84 83 84 84 83 82 79 75 76 76 76 75 73 75 76
41 43 49 49 49 56 67 67 70 67 69 65 69 69 77 81 83 84 83 84 84 85 85 84 84 85 85 84 84 84 84 84 84 83 81 79 75 79 76 77 76 75 76 75
43 41 50 47 47 54 61 68 70 71 70 73 74 70 84 84 87 85 84 84 83 84 86 85 85 85 84 84 84 84 84 83 83 82 81 81 75 77 75 75 76 74 75 73
45 43 49 37 47 52 53 65 69 71 74 73 67 72 82 81 82 83 84 85 85 85 87 86 85 85 84 84 84 83 84 84 82 82 82 81 76 75 73 76 75 72 71 70
48 42 48 41 44 36 61 73 73 72 73 76 74 76 82 82 85 88 91 86 86 88 88 87 87 86 85 86 86 85 85 84 83 83 82 83 82 76 74 73 73 71 69 66
55 46 38 38 40 54 57 67 67 68 67 75 75 79 82 85 85 82 85 87 89 90 91 89 89 87 86 85 86 85 84 84 84 83 83 83 84 78 74 74 71 71 73 70
58 54 42 43 38 38 46 65 70 70 58 67 70 72 73 76 72 71 78 83 86 93 93 90 90 88 86 85 85 83 84 83 83 85 85 85 85 82 80 77 71 72 72 70
48 47 41 43 45 48 58 67 69 55 49 65 69 69 69 69 75 75 79 81 85 90 93 92 90 87 85 86 85 83 84 83 86 87 87 85 84 81 79 77 72 72 73 71
43 39 45 47 44 36 60 64 57 58 65 67 68 69 68 71 74 76 79 81 84 87 92 92 89 87 86 87 85 83 82 86 88 88 86 84 82 83 80 76 74 72 70 69
39 45 45 49 43 51 59 59 63 65 64 67 69 70 71 72 74 77 78 81 84 87 91 93 90 87 86 86 86 83 84 87 87 86 84 83 81 82 79 77 75 71 74 77
41 50 49 52 47 53 59 63 64 66 65 68 71 71 73 72 76 77 80 82 85 88 90 92 90 87 84 86 86 86 87 88 87 84 83 82 80 80 79 80 80 81 79 80
42 46 48 46 47 55 59 61 63 65 68 68 71 72 73 74 76 78 80 82 85 88 90 92 90 88 86 87 87 88 88 88 85 83 82 81 81 79 79 81 80 83 82 76
49 45 40 38 49 51 54 63 64 64 64 67 68 70 74 76 75 79 80 83 84 86 90 91 90 89 89 88 88 89 90 88 85 82 82 82 83 80 81 81 79 44 50 50

GFSCGP_sfc_temp_036.txt.gz
Temp
68 61 58 62 68 70 70 69 67 73 81 77 76 76 80 86 87 85 86 86 86 88 93 93 92 91 87 86 83 81 80 80 79 78 77 77 77 76 77 78 80 80 79 78
62 57 66 70 70 69 68 66 67 74 79 78 76 75 81 84 84 86 86 85 86 88 89 92 91 85 83 81 80 79 79 78 78 78 76 78 77 78 78 78 78 78 78 76
57 63 70 68 66 66 67 65 66 67 74 78 75 71 75 83 86 88 88 89 88 87 87 87 90 82 81 79 78 78 78 77 77 78 77 78 78 78 77 77 76 76 77 76
61 68 66 66 64 68 62 73 71 69 67 61 74 58 70 77 79 84 86 87 87 88 89 89 87 80 79 79 79 78 77 76 77 78 77 75 74 73 75 76 73 73 76 75
56 62 62 61 66 70 66 74 72 71 67 66 67 62 67 76 75 79 83 86 87 88 90 90 83 81 81 80 78 77 76 76 77 77 76 75 75 76 77 76 75 75 74 73
60 69 67 66 70 71 74 70 69 70 68 56 64 63 62 69 75 79 84 86 88 90 91 90 84 82 80 80 78 76 75 75 76 77 77 76 74 74 74 74 71 72 72 70
57 59 66 69 64 70 69 64 53 51 53 52 68 63 65 75 80 82 82 85 87 89 90 83 81 80 78 78 77 76 76 74 75 77 76 77 75 75 75 74 71 71 69 69
43 43 60 67 64 62 64 63 56 44 48 55 66 58 67 80 84 86 87 87 88 88 86 83 81 79 79 77 76 77 75 74 76 76 75 76 75 74 73 72 72 69 69 69
40 44 63 67 69 68 63 58 69 60 64 58 65 70 75 80 82 84 84 85 84 84 82 81 81 79 78 77 76 76 76 76 76 76 75 75 75 76 74 72 73 70 72 71
46 38 55 62 69 69 66 72 57 61 48 47 60 63 67 75 78 82 81 82 84 83 83 82 80 79 79 78 78 77 78 77 77 77 76 76 75 76 72 73 72 72 72 71
51 43 46 58 59 59 63 61 64 65 62 53 51 60 77 77 80 80 82 84 84 83 83 82 81 81 81 80 80 77 78 77 77 77 76 72 74 73 73 72 73 72 72 72
52 44 41 49 64 69 68 64 64 57 54 62 61 62 81 81 83 84 84 86 85 84 83 83 82 81 80 79 79 78 78 78 78 78 78 72 73 72 72 72 72 73 73 74
44 44 38 44 54 60 58 66 67 66 66 58 57 62 82 83 82 85 85 86 83 83 82 82 81 81 80 80 79 79 79 79 80 80 77 72 71 72 72 72 73 73 73 71
46 40 40 36 40 44 47 61 67 65 59 60 64 67 75 78 80 84 84 83 83 82 80 82 81 81 81 81 81 80 80 81 80 81 78 72 72 72 71 72 73 73 74 72
40 35 43 46 45 42 42 50 64 64 67 61 67 70 75 79 81 81 83 82 81 80 81 81 80 81 81 80 80 81 81 81 80 80 77 72 74 73 74 72 71 72 73 72
42 35 43 43 49 42 40 51 57 69 69 70 69 70 78 79 84 81 80 82 80 81 83 82 83 82 81 81 81 80 80 80 80 79 77 73 75 70 72 72 71 71 71 69
46 39 39 37 46 41 38 52 58 65 72 72 66 71 77 75 82 81 81 82 82 82 83 82 82 82 81 81 81 79 80 81 79 79 78 75 74 73 73 72 71 68 68 67
47 45 41 37 37 27 50 69 69 70 73 76 73 74 79 80 83 80 85 85 83 84 85 84 84 82 82 83 82 81 82 80 80 80 80 77 76 74 73 71 69 68 68 65
55 47 37 35 36 39 48 60 65 66 65 67 71 77 79 83 77 73 80 82 86 86 86 85 86 84 82 82 82 82 81 81 81 81 80 79 77 73 73 70 68 68 68 66
57 53 41 40 33 32 46 58 68 70 52 66 69 72 72 75 70 68 76 79 81 82 87 86 86 85 82 81 81 80 80 80 80 82 82 83 78 75 70 70 68 69 68 66
46 44 39 39 35 36 50 58 66 51 48 66 69 69 69 66 69 73 78 79 81 84 87 88 86 83 81 82 80 79 80 79 83 84 84 83 79 76 74 70 69 69 68 67
39 40 40 44 39 32 51 58 50 53 62 66 68 68 68 71 74 75 78 79 80 83 88 89 85 83 82 82 80 80 78 82 85 85 83 81 77 79 76 70 70 70 68 65
37 39 37 42 40 47 50 53 57 61 62 65 66 69 71 72 74 77 77 79 81 84 85 91 87 83 82 82 82 80 80 84 85 82 79 77 78 76 75 71 69 70 68 67
45 50 41 43 43 45 50 55 61 64 64 67 66 69 72 71 75 77 79 81 83 85 86 91 87 83 81 82 83 82 83 86 84 80 77 77 76 73 74 75 73 73 71 67
44 46 45 43 46 48 53 56 63 63 66 67 69 69 71 74 74 77 79 81 84 86 88 90 87 84 83 84 83 84 85 85 81 78 77 76 77 74 74 75 72 75 62 69
47 45 42 42 53 52 55 59 62 61 64 66 67 68 71 74 74 76 78 81 83 85 88 89 87 85 85 85 85 85 87 85 80 77 78 78 78 77 76 72 69 44 48 48

GFSCGP_sfc_temp_039.txt.gz
Temp
58 51 48 53 57 58 61 59 58 64 71 68 67 68 73 77 75 76 78 74 75 76 80 80 81 77 75 73 73 71 70 70 73 72 68 67 67 67 68 69 72 71 70 71
52 47 57 62 61 59 58 55 56 64 71 68 67 66 73 77 77 79 79 78 74 73 78 81 79 75 73 70 70 69 69 69 69 69 68 68 68 68 69 69 70 70 71 69
48 53 63 60 58 57 56 55 56 57 64 68 65 60 65 73 74 77 77 78 76 74 75 77 75 71 69 68 68 69 69 69 69 69 68 68 67 67 66 66 67 68 70 69
51 60 59 57 56 59 51 63 62 61 58 50 62 47 61 68 71 74 78 78 74 76 76 76 71 68 68 68 69 68 68 68 69 69 68 67 65 64 65 66 65 66 70 69
48 53 54 54 56 62 56 65 62 61 57 55 57 47 60 64 64 66 71 76 73 74 75 76 71 71 69 69 67 67 68 68 69 68 68 66 65 65 66 65 65 65 66 67
53 62 58 57 62 64 66 61 59 59 55 44 54 53 55 60 65 66 71 75 76 75 76 72 72 72 69 69 67 67 66 67 68 68 68 67 65 64 63 63 62 62 63 64
51 53 59 62 54 60 58 51 39 38 40 41 57 52 58 62 69 70 72 73 74 74 71 70 70 69 69 68 67 66 66 65 67 68 67 67 65 65 64 63 62 63 62 62
39 35 52 61 55 50 51 51 42 32 36 43 57 49 55 70 75 77 78 77 75 74 71 71 70 69 69 68 68 67 66 65 67 67 67 66 66 64 63 64 63 63 62 62
36 39 56 56 57 58 52 46 56 47 51 43 51 59 67 71 72 75 75 74 73 68 71 70 70 70 69 69 68 66 66 66 66 67 66 66 66 66 64 65 65 63 64 65
44 33 50 55 59 58 53 58 44 49 36 35 48 52 53 64 67 72 69 70 67 70 71 70 70 69 70 70 67 67 67 66 67 67 66 67 66 68 65 64 64 64 64 65
44 38 41 49 46 46 50 49 50 48 49 40 39 47 63 64 68 67 68 70 70 70 70 70 70 71 71 70 69 67 67 67 66 67 66 70 67 66 65 64 64 64 64 64
42 37 32 39 52 57 54 52 52 43 41 49 47 49 68 69 67 69 70 70 72 72 72 72 72 72 71 69 69 67 67 67 67 68 66 68 66 65 64 64 64 64 64 66
41 34 29 35 44 51 48 53 54 52 52 47 45 49 71 71 72 72 69 71 73 72 72 72 72 71 71 70 70 68 68 68 69 69 67 68 64 64 63 64 65 65 65 66
45 38 34 28 35 41 38 43 46 42 46 49 52 56 65 68 69 70 70 73 73 73 73 72 72 71 71 72 71 69 68 70 69 72 66 65 64 64 63 65 66 65 66 68
40 33 38 40 44 46 39 42 44 40 44 48 56 58 65 68 68 68 73 73 72 72 73 73 71 71 71 71 70 71 69 70 69 68 69 66 64 65 65 66 65 66 65 66
42 33 38 35 43 47 40 45 45 44 46 49 59 60 68 70 75 73 72 74 72 73 74 74 73 73 72 71 71 71 69 69 69 68 66 67 66 66 65 64 64 64 63 62
40 36 35 31 44 41 34 44 46 47 50 51 53 63 67 64 65 67 70 74 73 75 75 75 75 74 73 72 72 68 68 69 68 68 69 69 66 67 65 66 64 63 61 61
40 38 37 33 37 26 46 55 54 51 56 61 64 68 65 66 62 66 69 72 75 76 76 76 75 73 73 70 72 68 70 69 69 69 70 69 68 67 65 64 62 61 61 60
47 42 33 31 33 38 44 48 45 44 51 59 65 69 68 69 67 63 67 71 71 76 77 76 76 75 73 73 71 72 69 70 70 70 70 71 69 66 64 63 62 61 61 61
51 48 37 35 30 29 40 46 51 50 43 55 60 60 62 64 53 55 63 67 69 75 78 76 76 76 73 72 71 71 68 68 69 72 72 72 70 66 64 62 62 62 61 60
40 38 33 34 33 36 42 47 51 40 43 55 62 61 61 57 60 64 63 66 68 69 78 78 77 75 73 73 71 69 68 67 71 74 73 71 68 65 64 62 62 62 61 60
33 34 35 37 34 30 46 47 44 47 51 57 61 61 60 62 66 67 69 66 68 66 73 78 75 73 73 74 73 67 67 70 72 73 73 69 68 70 66 63 62 62 60 57
35 38 33 33 35 44 46 45 49 50 55 59 60 63 63 62 64 67 69 69 69 64 71 70 76 73 73 74 74 67 70 71 72 70 71 69 68 68 65 63 62 61 60 58
43 46 40 39 39 43 46 50 52 58 60 61 63 63 64 62 65 68 71 70 72 69 68 72 76 74 72 74 74 70 72 73 72 69 69 67 68 63 65 65 64 62 61 59
42 43 42 41 45 47 50 50 52 58 60 63 64 64 64 64 65 69 69 69 72 72 71 73 76 75 74 74 73 71 75 73 70 70 69 67 68 64 63 59 59 64 63 63
46 42 37 37 46 46 48 53 57 57 58 61 63 62 64 65 65 69 68 68 71 72 71 72 77 74 76 76 76 73 77 71 71 69 69 68 68 65 62 58 55 44 43 50

GFSCGP_sfc_temp_042.txt.gz
Temp
53 45 44 50 54 56 55 54 52 58 66 63 62 63 67 72 70 70 73 75 76 77 79 80 79 75 73 70 69 68 67 67 70 70 67 65 64 65 65 66 68 67 67 66
47 43 53 57 56 54 52 49 49 56 63 61 61 61 68 71 72 74 75 74 74 70 72 76 74 70 70 70 68 67 67 67 67 66 65 66 65 65 67 67 67 69 68 67
44 49 59 56 53 52 51 49 50 50 59 62 59 55 60 68 69 72 73 73 72 72 74 75 72 69 66 67 66 66 66 67 67 67 67 65 65 65 64 64 64 65 67 67
46 54 54 52 50 54 46 57 56 54 51 44 59 43 57 64 67 71 71 73 69 72 74 73 70 65 65 65 66 66 67 67 67 67 66 65 62 61 62 63 63 65 68 67
44 48 48 49 52 57 50 59 56 55 50 49 51 43 55 58 60 63 68 68 73 78 70 72 68 68 65 65 64 66 66 66 66 66 66 63 62 62 61 62 63 63 63 65
50 57 54 52 57 58 59 54 53 53 45 38 48 46 50 56 61 65 65 69 72 71 72 66 65 66 64 65 65 66 65 64 65 65 65 64 63 61 60 60 60 61 62 62
47 49 55 58 50 54 50 41 32 30 33 36 51 46 53 57 62 66 67 70 70 70 64 63 64 65 64 64 64 65 64 63 64 64 64 63 63 62 61 61 60 61 60 61
38 34 49 57 50 44 44 42 33 27 29 38 51 42 52 64 71 72 74 73 72 67 63 64 65 65 65 65 64 64 64 63 64 64 63 63 63 61 62 61 61 61 61 61
34 37 52 54 55 51 44 40 48 38 45 36 44 51 61 67 68 71 71 69 68 63 62 63 64 64 65 64 63 64 64 63 64 64 63 63 63 62 61 62 62 61 61 63
41 32 47 51 54 54 48 51 38 37 30 30 40 43 48 56 61 65 66 68 62 61 63 64 64 64 65 65 64 63 64 63 63 63 64 64 62 63 63 63 62 62 62 63
41 36 38 45 45 42 42 41 42 41 38 35 33 41 55 58 60 63 68 66 63 63 63 64 65 65 65 65 66 64 64 63 63 64 63 62 63 64 62 62 62 62 62 62
41 34 29 37 48 54 47 43 41 35 36 39 43 44 63 60 62 64 63 64 65 65 66 65 65 66 65 66 65 64 63 64 64 64 64 63 63 62 62 62 63 62 62 62
40 31 25 30 39 45 42 46 43 40 42 40 37 42 64 64 64 70 62 64 65 65 65 65 65 66 66 66 66 65 65 65 64 65 63 62 62 62 62 62 62 62 63 63
41 34 32 23 34 40 37 43 44 38 32 41 45 48 57 63 65 68 62 63 65 66 66 66 66 67 67 68 67 67 65 66 65 66 63 62 61 61 61 62 62 63 64 65
41 32 36 37 39 41 40 41 43 39 41 34 45 43 53 61 66 68 67 67 66 66 66 66 66 67 67 67 68 68 67 66 65 64 65 61 62 62 62 62 63 63 63 65
38 33 37 34 40 41 38 44 42 44 45 44 44 43 59 63 66 65 67 67 66 66 68 68 68 68 68 68 68 68 67 64 65 65 65 65 63 63 62 62 62 61 61 61
35 35 32 29 38 40 34 42 43 47 48 47 41 49 59 58 60 60 67 69 68 68 69 69 70 69 70 70 70 65 67 65 65 65 66 66 64 63 62 62 62 60 59 59
36 33 33 29 33 23 42 49 49 46 51 52 53 55 58 59 59 59 63 70 70 70 70 70 72 71 70 70 68 65 67 66 66 66 67 66 65 64 62 61 60 59 58 58
43 36 31 29 31 37 43 43 42 42 44 52 50 57 61 58 59 59 65 67 68 72 73 73 73 71 70 70 66 68 67 66 67 66 66 67 66 63 62 61 59 59 59 58
45 43 35 31 28 27 36 45 48 47 38 51 51 55 54 57 50 51 61 65 70 74 74 73 73 72 70 69 69 68 66 65 67 67 68 67 66 64 62 60 59 59 59 60
37 36 31 31 30 35 40 41 47 38 41 49 51 53 58 53 55 59 61 63 65 74 74 74 73 71 71 69 70 68 66 65 68 70 69 67 64 62 62 60 60 59 58 58
32 32 33 33 32 29 43 44 38 43 48 50 52 57 57 57 58 61 61 63 66 68 72 74 73 71 70 70 70 67 66 67 68 70 69 65 62 67 63 61 59 59 58 56
33 36 32 32 33 41 45 43 47 48 48 49 50 57 59 58 60 60 61 63 65 68 68 75 72 69 71 71 71 67 69 66 67 68 65 64 64 62 61 61 59 59 56 57
41 46 40 36 41 44 45 48 49 49 48 50 56 60 58 58 60 58 61 65 64 67 69 71 69 69 69 70 71 72 68 68 68 66 65 64 63 60 61 61 61 59 56 56
40 41 40 41 44 45 47 48 49 49 52 53 59 61 61 61 59 60 61 64 65 68 67 70 69 67 69 70 70 70 70 69 67 66 65 65 63 62 60 59 59 61 59 59
44 40 36 35 45 43 45 50 53 49 49 53 56 58 62 63 63 63 62 62 65 66 69 70 71 69 68 70 70 71 70 70 68 66 65 65 63 61 59 56 52 42 45 49

GFSCGP_sfc_temp_045.txt.gz
Temp
51 45 42 48 52 52 50 50 47 55 61 61 59 59 64 68 66 68 70 71 72 69 74 77 77 74 71 69 68 68 69 64 66 65 64 63 63 62 62 64 67 67 66 66
44 43 52 54 53 50 48 44 44 52 58 56 55 56 60 63 66 68 69 70 71 73 70 75 74 71 70 70 68 66 65 65 65 65 63 63 62 62 63 64 66 67 68 68
40 47 56 53 50 48 46 45 46 46 54 57 53 51 55 62 63 67 70 67 68 67 70 73 71 69 68 67 66 65 64 65 65 65 65 63 63 63 62 61 62 65 69 67
43 50 50 47 47 49 42 52 52 50 46 40 53 40 52 59 62 66 68 70 66 67 71 69 70 68 66 65 64 64 65 65 66 66 66 68 62 61 61 62 62 63 65 65
41 44 45 45 47 52 45 53 50 50 44 41 45 39 50 56 57 61 64 68 66 72 70 69 69 67 64 63 63 64 65 65 64 65 67 64 61 61 60 60 61 61 62 64
45 53 50 48 53 53 54 49 47 47 41 31 42 41 46 51 56 61 65 64 70 67 67 67 66 62 61 62 63 64 65 63 64 64 63 63 62 60 60 59 60 60 60 61
44 46 52 54 46 49 46 37 28 27 27 32 46 42 49 53 57 59 59 62 65 66 65 63 61 60 61 62 63 63 64 62 63 62 62 62 61 61 61 60 59 60 59 60
34 31 46 54 48 41 40 39 29 26 27 35 48 39 48 60 66 69 70 67 65 65 63 63 60 60 62 62 63 63 63 61 62 62 61 60 61 60 60 60 60 60 59 60
36 37 52 52 53 49 41 36 44 35 37 33 38 46 57 62 61 64 62 65 63 62 62 60 59 60 62 62 62 62 62 62 62 61 61 61 61 61 60 60 60 60 60 61
39 31 45 50 52 52 46 48 35 32 27 26 35 39 44 51 59 64 63 61 62 62 59 58 60 61 62 62 61 62 62 63 62 62 62 62 61 61 61 61 60 61 61 61
37 34 37 43 41 39 41 38 39 38 35 29 29 35 49 54 57 56 59 62 63 62 57 59 61 62 62 62 62 62 63 63 62 62 61 60 61 61 61 61 61 61 61 61
39 32 28 34 44 50 44 41 39 34 32 39 34 38 60 53 56 59 60 63 59 55 58 60 61 61 61 62 62 63 62 63 62 62 61 60 60 60 60 61 61 60 61 61
38 30 24 29 36 42 38 43 42 37 36 35 34 38 57 57 60 62 60 61 60 58 58 60 61 61 62 63 63 62 62 63 62 62 61 60 60 60 60 61 61 61 60 61
43 34 29 23 32 37 34 40 43 36 29 37 39 43 52 57 56 58 60 58 57 59 60 61 61 62 64 64 64 64 62 63 62 62 60 60 59 60 60 61 61 61 62 61
39 32 33 35 38 38 37 37 40 39 38 32 43 43 46 50 53 59 62 60 59 60 61 61 61 62 64 63 64 65 63 63 62 62 60 60 60 61 61 61 61 61 62 63
36 28 33 33 39 39 36 39 40 40 42 41 42 41 52 56 57 61 59 63 62 62 62 63 64 64 64 64 65 65 63 62 63 62 61 61 61 61 60 61 61 60 60 62
35 32 28 28 39 36 30 37 40 42 45 44 37 44 55 53 56 59 58 59 64 64 64 64 65 65 66 66 67 64 62 61 62 62 63 64 62 61 60 61 60 59 59 59
37 31 32 27 33 22 39 46 48 45 47 49 49 50 54 53 54 58 59 58 64 66 66 66 66 66 67 67 65 63 62 63 62 62 64 63 63 61 60 60 59 57 57 58
40 36 29 27 28 35 39 41 40 39 40 49 49 51 53 56 55 57 62 61 63 68 68 68 69 68 68 65 63 64 62 62 64 63 63 64 63 61 60 59 58 57 56 57
41 41 32 29 26 25 34 41 45 43 35 47 48 48 48 53 48 52 59 60 60 70 70 69 69 69 68 65 64 63 61 62 63 64 64 64 63 61 60 59 58 57 58 59
33 33 29 30 28 34 37 39 44 34 36 45 49 49 48 48 52 56 58 60 62 69 70 70 68 67 69 65 65 63 62 63 66 66 65 63 62 61 60 59 58 57 59 60
31 31 32 32 29 27 41 38 37 41 46 48 48 49 49 52 55 57 60 61 62 63 68 71 69 68 67 67 67 62 62 65 65 65 65 62 61 64 61 59 57 57 57 56
32 36 32 32 32 41 43 39 46 47 46 47 48 49 50 53 55 58 58 61 62 64 67 72 69 66 66 67 69 64 65 63 65 64 62 60 61 61 60 58 59 59 56 58
40 43 37 37 41 40 45 45 47 48 47 49 50 50 54 53 57 57 58 60 62 64 64 69 67 66 64 67 68 69 63 66 66 62 60 61 60 59 59 59 61 60 58 58
38 40 39 39 44 45 46 47 46 48 48 49 51 52 55 57 58 57 58 59 62 64 64 67 69 68 67 67 66 65 65 66 64 62 62 61 60 59 58 59 59 59 57 59
41 39 37 37 44 43 43 48 48 46 46 48 49 51 58 59 58 59 58 59 63 65 68 66 66 65 66 68 67 65 66 66 63 61 62 61 59 59 58 57 55 41 45 48

GFSCGP_sfc_temp_048.txt.gz
Temp
48 42 40 47 51 52 49 48 44 51 58 58 57 58 61 63 64 66 68 70 72 73 74 71 73 72 68 67 65 64 63 62 63 63 62 62 64 64 64 65 67 67 67 67
43 39 48 50 50 49 46 43 41 49 56 52 52 50 55 58 60 62 65 67 67 68 66 71 72 68 66 66 65 64 63 62 63 64 62 63 62 63 64 65 67 68 67 67
37 45 53 51 47 45 44 43 43 44 51 53 49 49 52 58 60 63 65 65 65 67 65 69 70 68 67 65 65 65 63 63 64 64 63 61 62 63 62 63 64 66 67 67
40 48 48 44 45 46 39 49 50 48 44 37 49 38 49 56 57 60 64 66 67 63 66 69 66 67 67 67 64 64 63 64 65 64 64 65 62 62 62 62 64 65 67 66
40 41 43 43 45 49 43 51 47 47 42 39 41 36 44 50 51 57 62 65 67 65 68 65 66 68 67 64 62 63 64 64 64 64 65 64 62 61 61 62 63 63 64 65
43 49 47 46 51 51 52 46 43 42 38 29 39 39 43 49 54 58 61 63 62 62 63 63 64 63 62 61 62 63 63 62 63 64 64 63 62 61 61 61 61 61 62 63
40 43 47 52 43 46 43 35 26 25 25 29 43 39 46 51 55 56 58 59 60 61 61 61 62 61 60 60 61 63 63 61 63 63 63 63 62 62 62 61 60 60 60 61
32 29 43 50 45 40 38 36 27 24 24 30 43 35 44 56 63 65 65 61 60 60 60 61 62 60 59 61 62 63 62 61 62 62 62 62 62 62 61 61 61 61 61 62
31 34 47 50 49 48 40 33 40 33 33 29 34 41 52 58 60 60 58 59 59 60 60 62 61 58 60 61 61 62 62 61 61 61 61 61 61 61 61 61 61 61 61 62
38 33 45 49 50 48 43 47 34 29 26 25 32 36 40 48 52 60 57 56 58 60 60 59 57 59 61 61 61 62 63 62 61 61 62 62 62 62 62 61 61 61 61 62
39 34 36 42 39 39 38 35 37 34 31 27 27 33 46 51 53 53 54 56 57 57 55 56 60 61 61 61 62 61 62 62 61 62 61 61 61 62 62 62 62 62 62 62
38 32 28 34 42 45 40 36 36 30 31 35 30 32 50 51 52 52 53 59 61 56 56 60 62 61 61 61 61 61 62 62 62 62 61 61 61 61 61 61 62 62 62 63
38 30 24 30 35 40 35 39 38 35 33 29 31 34 53 54 56 55 54 59 59 56 56 61 61 61 61 61 62 62 63 62 62 62 61 60 60 60 61 62 61 62 62 62
43 32 28 23 30 35 32 37 39 34 28 33 36 40 49 53 54 53 56 58 56 57 57 60 61 61 61 62 63 63 61 62 62 62 61 60 60 61 61 62 61 62 63 63
38 31 34 34 36 37 36 35 37 34 37 32 38 40 45 48 51 54 56 58 59 57 57 58 59 59 61 61 63 63 63 62 62 62 61 61 61 61 62 62 62 63 63 64
37 31 31 31 37 37 34 37 38 38 38 38 39 38 49 53 56 55 57 58 59 60 60 60 61 61 61 62 63 63 62 62 62 61 61 61 61 61 61 61 62 62 62 63
35 33 31 25 35 35 27 35 37 39 41 40 34 42 49 50 52 54 56 58 59 60 61 61 62 63 63 63 64 62 62 61 62 62 63 63 62 62 61 62 61 61 60 60
34 31 33 26 26 20 38 44 43 41 42 44 45 47 50 52 51 54 56 57 58 62 63 63 64 64 64 65 64 62 62 62 62 63 63 63 63 62 61 61 60 59 59 59
39 36 30 24 23 33 40 40 38 37 38 45 45 47 50 53 51 52 59 61 59 62 65 65 66 65 64 64 63 63 62 62 63 63 63 64 64 62 61 60 59 58 58 58
40 39 32 29 24 23 32 38 41 41 34 45 47 46 49 49 43 50 57 60 61 64 65 65 65 66 64 63 64 62 61 62 62 63 64 65 64 62 61 60 59 59 60 59
32 32 28 29 27 32 37 40 41 32 34 45 47 47 48 45 48 50 55 57 61 64 66 66 66 65 64 62 63 62 61 62 65 66 65 64 63 62 61 60 60 59 60 59
31 30 31 31 28 26 43 38 32 37 41 45 47 48 47 49 50 52 56 58 61 64 65 67 66 64 62 64 64 61 61 64 65 65 65 63 62 64 62 60 59 59 60 59
30 35 33 32 32 41 44 38 40 42 43 46 46 48 48 49 49 53 55 58 61 62 63 66 66 62 62 64 65 62 63 64 64 64 63 62 62 61 61 59 60 59 59 58
38 41 36 38 41 43 44 46 45 46 45 48 49 49 50 49 52 54 55 58 60 61 63 66 64 63 61 64 65 66 62 65 65 62 61 61 61 59 60 61 62 61 59 59
37 38 39 39 43 44 46 46 46 47 48 49 49 50 50 51 54 55 55 58 62 64 63 65 66 64 64 65 64 63 65 65 63 62 61 61 60 60 59 61 59 61 61 59
38 38 37 36 43 42 43 47 48 46 47 48 48 49 52 54 56 57 56 59 61 63 64 63 64 64 65 67 65 64 66 66 63 61 62 61 61 60 60 58 56 43 45 48

GFSCGP_sfc_temp_051.txt.gz
Temp
56 50 46 52 55 57 59 56 55 61 66 62 61 64 69 72 73 74 75 76 76 77 82 82 80 82 82 81 79 81 78 77 76 76 76 76 76 74 76 77 76 76 76 75
50 44 53 55 56 54 54 52 53 59 62 61 63 62 68 68 69 72 73 75 75 76 78 79 79 81 80 79 78 79 78 75 74 77 76 78 77 73 76 78 76 76 75 75
47 51 55 53 52 50 51 50 51 52 57 61 58 56 60 68 70 72 73 74 74 75 75 78 79 80 81 80 79 79 79 75 74 76 75 74 74 74 75 75 75 75 75 75
49 56 51 51 49 53 46 56 55 53 51 48 59 47 60 65 66 69 71 73 74 75 76 77 79 80 79 81 82 78 77 75 75 74 75 74 78 76 77 76 77 76 76 76
47 50 49 48 50 54 49 57 55 55 52 51 52 47 56 64 62 66 70 72 74 77 78 78 80 81 81 81 79 77 75 74 74 74 76 76 76 77 77 77 73 74 75 76
49 56 53 54 57 57 58 53 53 53 51 40 50 48 52 59 62 66 71 74 74 75 76 77 79 79 78 80 78 75 74 73 73 74 74 75 73 73 75 74 74 75 75 75
47 48 55 56 51 55 54 49 38 36 37 37 52 48 53 64 64 66 67 70 73 76 76 77 77 79 78 78 76 75 74 72 73 74 74 75 74 74 73 74 76 74 74 74
35 36 48 55 52 49 50 49 42 32 35 41 50 43 54 65 69 70 70 71 72 75 77 77 77 77 78 76 73 75 74 73 74 75 74 75 75 77 77 75 76 75 75 75
31 37 49 53 55 55 48 44 53 43 44 43 47 53 61 65 66 69 69 71 71 72 73 74 74 74 76 74 73 74 74 74 74 74 74 73 74 74 74 72 73 74 73 74
42 35 43 46 54 55 52 56 42 45 34 34 44 46 53 58 61 66 67 67 68 71 73 72 70 71 73 73 73 74 75 74 74 74 75 74 74 74 73 73 72 72 72 73
45 40 41 48 43 44 49 46 48 49 47 40 41 47 59 61 62 61 64 67 69 71 71 68 66 66 70 73 75 73 74 73 73 74 74 73 74 74 74 73 73 72 72 73
45 39 35 40 51 50 49 46 46 41 40 45 44 45 62 61 62 63 63 66 70 71 72 68 65 64 68 72 73 73 73 74 75 75 75 74 74 74 73 73 72 73 72 73
44 39 32 38 43 47 44 46 47 46 44 41 40 46 63 63 65 66 63 66 69 70 73 69 63 64 66 72 73 73 74 74 75 75 75 73 72 72 72 72 72 73 73 73
47 38 36 31 36 42 39 42 45 43 39 42 44 48 56 60 60 62 63 66 70 71 72 69 64 65 67 72 73 73 74 75 75 75 75 73 72 72 72 72 72 73 73 73
44 35 39 39 41 41 41 41 43 41 44 38 45 47 53 58 57 59 63 66 69 72 73 74 67 64 70 72 73 74 74 74 75 75 75 73 72 73 73 72 72 72 72 74
45 35 37 35 41 42 39 42 43 44 45 44 45 45 56 58 60 60 64 66 67 70 72 74 71 69 71 71 72 73 73 74 75 75 75 73 73 72 72 71 71 71 72 73
37 36 35 32 39 39 34 42 44 45 48 48 42 51 57 56 58 60 63 65 65 67 69 73 71 71 72 73 73 72 73 75 75 75 74 73 73 72 71 72 71 71 70 70
34 34 37 32 34 23 43 49 47 42 47 51 51 53 56 58 60 63 66 65 65 68 69 73 73 72 73 74 74 75 75 75 75 75 75 74 74 72 72 71 71 69 69 69
38 35 31 29 28 36 41 39 37 35 36 47 49 54 56 60 61 59 64 68 69 70 72 74 75 74 73 74 75 74 74 75 75 75 75 75 74 72 72 71 69 69 69 68
37 37 33 32 25 24 33 42 44 40 32 45 44 51 55 57 46 57 66 63 64 69 74 75 75 74 73 74 74 73 74 75 74 76 76 76 75 73 72 70 68 68 69 68
34 33 30 30 29 35 40 43 41 30 36 41 43 42 49 48 54 60 61 61 65 68 71 75 74 73 73 74 74 73 74 74 77 78 77 75 75 73 72 70 69 68 67 64
32 32 32 32 29 28 45 41 33 42 42 42 43 47 48 52 56 57 60 61 65 68 72 75 73 73 74 75 74 74 72 77 78 77 76 75 73 74 72 69 69 69 67 63
34 39 33 33 33 44 46 42 45 45 42 43 44 49 50 50 52 58 59 63 66 70 73 75 75 73 73 75 76 73 75 76 76 76 75 73 73 73 72 69 66 64 64 62
45 48 39 41 45 45 46 46 46 47 45 47 48 50 49 50 53 57 61 65 67 70 72 74 74 72 71 74 75 77 77 76 76 75 73 73 72 71 71 70 68 67 61 62
45 44 44 42 47 45 46 46 47 47 48 49 51 50 51 54 54 59 62 65 68 71 71 73 74 74 74 75 75 77 76 76 74 74 73 73 73 72 65 66 65 66 64 64
47 43 38 37 46 42 44 48 49 46 46 48 49 51 55 53 54 59 61 66 69 71 71 69 74 75 75 76 76 76 78 76 74 73 73 74 73 70 65 62 60 43 47 48

GFSCGP_sfc_temp_054.txt.gz
Temp
65 58 54 59 63 63 63 62 63 69 76 73 69 68 73 79 80 82 83 84 85 86 90 92 92 91 89 89 88 88 88 87 85 88 89 87 86 86 87 87 85 83 83 82
58 52 60 63 62 60 60 57 58 68 72 71 70 68 73 77 79 82 83 83 84 86 88 89 89 88 88 88 88 87 87 86 84 88 86 90 88 89 88 87 84 83 83 81
53 58 64 60 57 54 56 54 56 59 66 69 67 64 69 77 80 82 82 83 84 83 83 84 85 87 89 88 88 88 87 86 85 85 85 83 86 84 84 84 83 83 82 81
55 61 58 56 54 56 49 61 60 59 58 54 66 52 66 71 73 77 79 81 83 84 85 84 84 86 87 89 92 90 87 85 85 83 84 81 84 84 87 86 86 82 82 82
52 55 54 51 54 59 54 62 60 59 56 57 61 56 63 73 70 75 78 80 82 84 84 86 88 89 91 91 91 89 86 85 84 82 84 83 84 88 87 87 80 81 80 81
55 63 59 56 59 60 62 58 57 58 56 45 55 57 59 66 70 74 79 81 82 84 86 87 89 89 88 91 90 88 85 83 83 81 81 81 83 83 84 82 82 83 82 82
47 54 59 57 53 59 56 50 38 38 43 44 58 55 58 71 72 75 77 77 80 83 85 86 87 88 89 88 88 87 84 82 81 81 81 82 81 81 80 81 84 82 83 83
40 35 52 58 54 52 52 50 41 35 41 48 58 50 60 72 77 79 79 77 79 81 84 84 86 87 88 89 87 87 84 82 81 82 82 82 81 85 84 84 84 85 85 83
35 40 54 56 57 58 52 45 57 47 52 51 56 59 67 71 72 74 76 76 76 78 81 82 83 84 85 87 85 85 83 82 82 82 81 81 83 83 83 81 81 83 83 83
45 36 49 50 53 58 55 59 47 50 36 38 52 54 57 65 68 73 76 73 76 78 81 81 79 78 82 85 83 84 84 82 82 82 82 82 81 81 81 80 81 80 80 81
53 43 41 50 45 38 52 51 51 53 53 45 45 54 69 68 68 69 71 73 75 78 80 81 77 74 81 84 85 83 83 82 81 82 82 81 81 81 81 80 80 80 79 79
52 45 40 46 54 55 52 47 50 43 44 53 52 54 70 70 70 71 71 73 76 78 82 82 77 70 81 83 83 83 82 83 83 82 82 81 81 81 79 79 80 79 78 80
46 44 37 42 49 53 49 51 54 54 49 46 47 54 69 69 71 72 71 72 74 77 81 83 79 69 75 82 83 82 83 83 83 83 82 80 79 79 78 78 78 79 79 79
49 43 40 36 42 47 43 48 52 48 44 49 51 56 64 67 69 71 71 71 73 76 79 82 81 70 71 81 83 82 83 83 83 83 82 79 78 78 78 78 78 78 79 79
45 36 45 48 49 49 47 47 50 49 51 45 52 54 61 65 67 68 70 71 72 75 78 80 81 73 71 78 81 82 82 83 83 82 81 78 79 79 79 78 78 79 78 80
47 37 45 43 49 49 46 50 51 51 52 52 53 53 64 67 69 68 69 71 72 74 76 79 80 77 72 76 79 80 81 81 82 81 80 80 80 79 78 77 77 77 78 79
39 41 37 37 46 45 40 49 52 53 56 55 49 58 65 64 65 67 69 71 71 72 75 77 79 80 74 78 79 79 81 82 81 82 81 80 80 79 78 78 78 77 75 76
36 40 39 37 40 27 49 54 53 49 52 54 55 56 61 64 67 70 73 72 72 73 75 77 80 81 76 79 81 82 82 82 82 82 81 81 81 79 79 78 76 76 74 74
40 37 35 33 32 40 45 46 43 42 41 52 52 56 61 65 67 66 71 74 73 74 76 78 82 81 76 77 81 82 81 82 83 82 81 82 81 79 78 77 75 74 74 73
38 36 34 36 27 26 37 47 47 43 34 44 44 47 53 56 55 64 72 74 73 74 76 77 82 80 75 77 81 80 80 81 82 83 83 83 82 80 78 76 75 75 74 72
35 34 31 34 31 39 47 49 43 32 40 48 47 47 49 46 55 62 69 69 72 74 75 78 81 78 74 79 81 80 80 81 84 85 84 83 81 79 78 75 75 74 72 72
34 33 35 34 31 30 52 45 34 48 47 45 48 48 46 51 57 58 65 67 70 73 76 80 78 76 76 80 81 80 79 83 85 85 84 81 80 80 78 75 75 73 71 70
39 42 35 35 38 50 51 45 47 46 44 45 47 49 48 49 53 58 62 67 71 73 76 80 77 76 76 81 82 80 81 84 84 83 81 80 80 80 77 74 71 70 70 70
49 53 42 42 49 51 51 49 48 47 46 48 49 50 51 51 57 61 66 69 72 76 77 78 78 77 78 81 82 83 83 85 83 81 80 80 79 76 76 77 72 72 71 70
49 49 45 46 51 50 47 46 47 48 48 48 50 51 54 59 60 62 65 69 72 76 79 79 80 80 80 82 83 84 84 84 81 80 80 79 80 78 77 75 70 72 69 66
53 46 38 41 51 44 43 47 49 48 47 48 48 50 54 56 58 63 62 69 70 77 81 79 81 81 82 83 84 85 85 84 81 78 80 81 81 78 77 75 70 44 46 45

GFSCGP_sfc_temp_057.txt.gz
Temp
69 62 58 63 66 67 65 62 62 70 78 75 74 74 78 82 80 82 86 88 90 91 95 99 99 97 96 93 90 89 89 90 89 91 90 92 91 92 92 92 90 88 86 85
63 57 65 67 66 63 62 59 59 67 73 72 73 73 79 82 81 81 83 87 88 90 93 94 95 94 92 90 89 88 89 88 88 89 87 93 94 95 92 92 88 87 85 84
57 62 67 65 63 59 60 57 58 59 67 71 69 67 73 81 84 84 85 87 89 89 89 91 92 92 92 90 88 88 87 86 87 87 90 89 90 91 90 89 86 85 85 84
59 65 62 60 59 61 54 64 62 59 58 53 68 54 66 74 77 81 82 84 87 89 90 90 90 90 90 90 92 91 88 87 88 88 86 85 86 86 88 89 88 86 85 80
55 57 58 57 59 63 57 65 61 60 56 56 59 58 65 74 72 76 81 84 87 89 89 90 92 92 93 94 94 92 89 88 87 88 85 88 84 90 90 90 83 83 80 80
59 67 64 62 64 63 64 59 59 59 56 46 55 57 61 68 72 77 82 85 87 89 90 91 92 93 93 95 95 93 88 86 87 86 83 84 84 87 88 86 83 83 78 79
55 59 65 66 58 62 59 53 41 39 42 41 57 56 60 74 78 79 81 84 87 89 89 89 90 92 92 92 91 92 88 86 86 85 83 84 85 86 85 82 85 83 79 81
42 42 54 59 57 54 52 49 39 30 37 43 57 50 61 74 79 81 82 84 84 84 87 89 90 90 92 93 92 89 88 86 86 84 83 84 85 87 87 85 88 87 86 85
41 43 56 59 62 58 54 45 51 43 43 34 45 59 68 74 75 78 81 80 80 81 83 86 88 88 89 90 90 89 89 87 85 85 84 84 84 86 86 84 84 86 85 84
51 41 54 58 61 60 56 60 42 47 34 31 44 48 57 66 71 76 77 78 79 81 84 85 85 83 85 89 90 89 89 86 85 85 84 84 85 86 84 83 84 84 84 84
56 48 49 54 48 48 54 50 51 49 46 35 39 49 66 70 72 74 78 78 78 80 84 85 83 80 83 90 90 87 87 85 84 84 85 84 84 84 83 83 83 82 82 82
56 46 43 48 60 60 56 52 48 41 43 48 44 45 70 74 77 78 76 77 78 81 84 87 83 79 86 87 87 86 86 86 86 86 85 83 83 83 81 81 82 82 81 83
50 45 37 44 47 56 50 53 50 49 43 41 40 44 70 73 74 75 75 76 76 78 82 86 84 80 85 86 86 86 86 87 87 86 84 82 81 81 80 80 81 82 81 82
52 46 40 36 42 38 37 46 54 50 35 46 50 46 60 69 71 74 74 76 76 77 80 83 84 79 82 87 87 86 87 87 86 86 84 81 80 80 80 81 80 81 82 81
48 39 45 49 52 51 52 52 54 52 53 46 52 47 49 58 67 73 74 74 75 77 80 81 82 79 81 76 86 87 87 87 86 85 83 80 81 81 81 81 81 81 81 82
50 39 46 45 53 54 51 55 55 55 55 54 56 55 66 68 72 71 72 73 74 76 78 81 82 78 74 74 80 84 85 86 86 84 82 82 82 82 78 76 78 80 80 81
42 41 40 38 49 49 45 52 55 56 58 56 51 60 68 67 68 70 72 73 74 76 77 79 81 78 76 74 76 82 84 86 84 83 83 83 82 79 75 76 75 78 78 75
39 42 42 39 43 29 50 58 57 54 56 53 55 61 64 66 69 71 75 75 75 77 77 79 82 78 77 75 78 83 86 85 85 84 84 84 84 81 79 75 75 77 76 76
44 37 34 32 32 41 46 49 48 44 48 57 56 61 64 66 67 66 74 76 77 77 79 81 83 78 78 74 77 84 85 85 85 84 84 85 85 82 81 76 76 75 74 73
44 39 34 37 29 27 39 46 51 51 39 50 51 51 52 54 46 65 70 75 78 79 80 80 81 79 76 74 77 84 84 84 84 86 86 87 86 83 78 74 75 76 75 74
41 34 32 35 31 40 43 47 51 33 39 48 52 54 53 48 57 63 67 68 74 76 77 80 81 74 79 74 75 83 83 83 87 88 88 86 79 78 75 75 77 75 73 73
35 37 36 36 33 31 50 52 36 48 51 49 50 51 50 57 57 60 65 67 70 72 77 81 82 74 77 74 75 83 81 86 88 88 87 83 75 77 79 75 73 72 71 71
40 45 37 37 41 54 56 53 52 49 45 47 48 54 55 53 55 59 62 67 70 73 77 82 79 73 72 76 80 83 83 87 88 86 84 80 76 75 76 75 71 72 73 72
52 55 45 44 52 54 57 56 52 48 46 48 49 50 51 51 55 60 63 68 72 75 78 81 75 72 71 76 82 85 86 88 87 84 83 80 74 72 75 73 73 72 72 73
52 50 47 48 53 55 56 54 49 47 48 48 51 52 52 51 57 62 66 69 73 77 80 78 75 72 74 78 85 86 87 88 84 83 82 81 73 77 75 74 71 72 72 68
52 50 44 39 52 53 53 50 49 47 46 48 47 49 54 55 56 61 65 68 69 73 73 73 73 77 78 85 86 86 88 87 83 81 82 83 82 82 79 75 71 43 45 43

GFSCGP_sfc_temp_060.txt.gz
Temp
69 61 57 62 65 65 63 61 59 65 72 69 69 71 76 81 81 81 81 81 82 85 92 93 93 93 91 86 84 83 83 83 83 82 80 78 78 80 82 82 84 84 82 82
62 56 65 68 67 63 61 57 57 63 68 66 65 65 73 79 81 81 82 82 82 85 87 91 91 90 87 84 82 82 82 82 82 80 78 80 82 82 82 82 83 83 82 80
56 60 67 64 62 59 59 57 56 56 63 66 62 60 66 75 80 83 85 84 84 84 85 88 89 87 86 82 80 80 80 80 80 79 78 78 80 81 81 81 80 82 81 81
59 66 62 60 58 61 53 64 62 59 56 48 62 48 61 69 72 77 82 84 83 84 86 88 88 86 84 83 81 80 79 78 79 78 76 76 76 76 80 81 81 80 81 80
56 58 58 54 57 62 56 64 60 59 55 53 54 50 56 67 66 73 78 83 84 85 86 87 89 89 89 87 83 79 79 78 79 79 78 77 78 80 82 81 79 78 78 78
60 66 61 59 61 60 65 60 58 57 53 42 51 51 52 59 66 73 79 82 85 86 87 88 90 89 88 90 88 81 78 78 79 79 78 77 77 78 80 80 78 78 77 74
55 58 60 60 55 60 61 53 40 39 39 39 53 50 54 64 70 74 78 82 85 87 87 88 88 89 88 87 86 85 82 78 79 79 79 78 79 77 80 77 78 76 74 74
44 41 54 61 57 53 54 51 38 27 30 35 48 39 54 68 72 76 78 83 83 86 88 87 88 87 89 87 85 84 83 79 80 80 80 79 80 81 82 80 80 77 76 75
44 44 59 62 62 59 53 47 55 42 43 35 40 46 58 64 67 73 76 80 80 82 84 85 88 86 86 86 85 83 82 80 81 81 80 79 80 80 80 79 80 78 78 79
52 42 56 59 63 61 56 59 41 40 28 27 40 42 45 56 62 70 73 75 79 80 82 84 85 86 85 85 84 84 82 82 82 82 81 81 80 82 81 80 79 79 77 78
55 47 45 55 53 51 53 51 52 49 44 35 31 42 55 57 62 66 72 77 78 79 82 84 85 84 83 83 86 83 83 83 81 81 81 80 81 80 79 79 79 77 77 77
55 46 40 46 58 54 48 51 44 33 36 42 36 39 60 58 58 64 74 77 79 80 82 84 82 81 81 80 85 83 83 83 82 82 81 80 79 78 77 77 77 77 77 78
47 44 35 41 50 46 40 47 48 44 45 40 36 41 58 55 50 52 67 75 76 77 80 82 82 81 82 85 84 84 82 83 83 83 80 78 77 77 76 76 76 77 77 77
52 45 40 32 40 43 36 45 50 43 38 43 46 46 44 44 43 49 53 74 76 76 78 81 81 81 83 84 85 84 83 84 83 82 79 76 76 76 76 76 76 76 77 77
50 38 44 47 49 50 49 47 49 49 52 46 49 49 50 46 45 49 54 67 73 75 78 79 80 80 81 77 80 84 83 83 82 81 78 76 76 77 77 76 76 76 76 77
51 39 44 42 50 51 46 50 55 55 55 54 55 52 62 50 51 54 63 71 72 75 77 79 80 79 78 74 72 83 83 82 82 78 77 79 78 77 75 75 76 75 76 76
44 42 39 35 47 48 41 45 46 45 50 53 46 49 58 59 60 62 66 70 72 74 77 78 79 78 79 70 72 77 79 80 81 80 80 79 78 78 76 76 75 74 74 72
39 38 38 35 41 29 49 54 52 47 53 56 56 57 60 61 64 67 69 69 71 74 77 78 79 75 78 72 74 76 80 79 82 80 80 81 80 77 76 74 73 72 71 70
45 40 33 32 34 42 46 49 44 41 43 55 54 56 58 60 61 62 69 69 71 74 77 78 80 74 75 72 73 76 78 82 82 81 81 82 80 75 74 72 72 71 69 69
46 42 35 36 29 28 39 46 51 47 37 53 49 47 49 52 47 58 65 65 67 70 78 79 78 77 75 72 72 73 79 82 81 83 83 84 82 75 72 71 72 70 70 70
39 35 32 33 31 39 47 49 51 33 40 47 48 49 49 48 54 59 63 64 66 67 72 77 77 74 73 73 74 72 77 80 84 85 85 84 77 73 73 71 71 70 70 70
35 37 35 35 32 30 53 48 35 47 49 50 50 51 48 52 56 59 62 63 64 67 71 74 77 76 73 74 74 72 76 83 86 86 84 78 75 76 74 71 70 71 69 67
40 45 37 37 40 53 53 50 49 52 51 48 46 49 50 51 53 57 58 60 64 67 71 75 77 77 73 73 74 71 80 84 85 83 77 76 75 73 72 71 71 70 67 67
52 56 46 44 49 51 53 58 58 53 48 49 48 48 49 49 53 56 58 60 64 68 71 75 76 74 72 72 74 73 83 86 85 78 75 75 73 71 73 71 69 67 67 66
52 53 46 45 52 54 56 56 53 53 52 48 49 49 49 51 52 54 58 60 65 70 74 74 76 76 71 71 75 76 85 86 81 76 76 73 73 70 69 64 64 68 59 60
55 49 41 40 53 51 53 56 52 49 46 47 48 48 51 51 53 57 57 62 67 71 72 71 71 73 72 76 77 77 86 85 80 77 75 74 72 74 72 69 62 43 44 43

GFSCGP_sfc_temp_063.txt.gz
Temp
60 50 44 51 55 57 56 53 51 57 63 59 57 58 63 68 70 72 76 74 78 79 86 86 84 82 79 76 77 78 77 75 75 73 72 70 71 70 72 74 77 76 75 76
52 45 57 62 61 57 55 51 50 57 62 59 57 56 62 65 66 69 71 76 77 78 80 83 85 85 78 77 78 76 78 73 74 72 71 72 70 72 73 73 75 76 75 74
47 54 63 60 56 54 53 50 51 51 58 59 56 52 56 64 67 70 72 75 78 77 78 81 81 82 83 74 73 75 75 75 73 73 70 70 71 72 72 71 72 73 75 75
51 59 59 55 53 55 46 56 55 54 49 41 53 38 51 58 61 65 69 72 74 77 80 81 81 78 73 77 78 77 75 75 74 73 71 72 76 71 69 71 71 72 75 73
50 54 51 50 52 52 47 56 54 53 47 43 46 39 47 55 55 60 65 70 73 76 79 80 81 78 77 78 76 76 76 76 76 75 77 75 70 70 70 70 72 70 71 73
54 61 57 52 56 55 57 50 50 50 42 34 43 41 43 49 55 60 65 69 73 76 77 81 82 78 74 75 78 77 74 74 75 73 73 72 71 69 69 69 72 72 69 70
50 52 57 59 49 55 52 43 29 26 27 30 46 41 41 50 59 63 64 67 71 74 77 79 76 75 72 74 73 75 75 73 73 73 74 73 72 69 70 70 72 70 68 67
37 35 51 59 54 49 46 41 29 24 25 31 45 35 43 56 61 63 62 68 72 73 76 78 81 79 74 76 73 73 72 71 71 73 73 74 70 69 72 72 73 72 71 70
32 39 55 57 58 54 46 38 44 33 34 29 33 43 52 57 57 58 58 68 70 73 70 78 74 72 72 72 72 72 70 69 71 72 72 70 71 71 73 72 73 72 70 71
44 34 49 53 55 55 49 50 35 32 21 23 33 37 39 43 43 47 48 53 63 70 73 69 72 71 71 71 72 72 70 70 71 71 71 71 71 72 74 74 73 72 71 72
47 39 40 48 45 42 41 36 39 35 32 25 24 33 45 41 44 43 48 51 55 64 73 70 70 71 73 72 71 71 70 70 70 71 71 71 71 72 74 72 72 72 72 72
44 37 32 40 51 52 46 41 40 31 30 32 33 33 46 44 45 47 48 52 55 68 67 70 69 70 70 70 70 70 70 72 73 74 72 72 71 72 70 69 68 70 70 72
43 35 27 33 40 44 40 46 45 37 35 30 29 35 49 49 47 48 46 50 52 56 68 70 69 69 70 70 69 71 73 74 74 74 71 71 74 73 70 67 67 69 69 69
50 36 33 28 34 38 36 44 46 39 29 35 38 43 46 43 44 45 47 49 51 58 61 66 67 68 67 70 74 75 74 74 74 71 70 70 72 71 68 67 67 68 70 69
44 33 38 41 45 46 44 45 46 43 43 36 40 41 43 44 44 46 49 50 53 58 61 68 67 68 67 67 71 76 75 75 73 73 73 72 71 69 70 68 67 68 68 69
45 34 39 37 44 45 43 45 43 47 46 45 46 44 49 48 49 48 53 56 57 63 66 69 69 68 67 65 66 72 72 72 74 73 73 73 72 70 68 67 67 67 67 68
39 36 35 30 43 41 34 43 44 45 48 46 38 41 53 48 50 53 57 59 62 63 66 67 68 68 71 66 65 69 73 73 73 73 73 73 71 70 67 68 67 66 65 69
38 36 36 30 34 23 42 50 50 47 48 46 47 46 48 49 51 57 61 57 59 60 61 63 66 67 68 66 64 68 73 73 75 74 74 73 72 69 67 68 67 67 64 66
42 39 31 27 26 37 42 43 41 38 38 46 43 47 49 50 52 54 60 59 58 60 61 63 68 68 68 66 65 69 72 76 76 73 73 73 72 68 66 67 68 65 63 62
43 42 34 30 23 20 36 46 50 44 30 46 46 45 46 48 38 45 56 57 58 61 62 63 67 69 69 64 64 66 72 76 75 74 75 74 72 69 66 64 64 63 63 63
36 34 31 31 28 33 46 46 46 31 33 44 45 44 43 41 46 51 54 55 59 60 62 65 66 66 66 64 61 65 73 75 75 77 76 74 73 71 68 66 64 63 63 63
30 32 31 32 30 25 49 45 36 41 46 46 45 45 44 47 50 50 53 54 57 58 61 64 64 63 65 67 66 66 70 72 78 75 75 73 72 73 70 66 63 63 62 61
32 37 35 35 34 48 50 46 48 48 45 46 45 45 47 48 48 49 50 53 56 58 59 63 63 65 65 65 66 66 72 74 77 72 71 69 69 69 66 64 62 62 61 61
45 48 39 40 45 46 47 50 50 50 48 47 48 48 47 47 49 50 52 52 55 57 59 62 64 63 64 67 68 73 74 75 74 69 68 68 67 65 66 64 62 62 61 61
43 45 42 42 46 46 49 50 50 49 48 48 48 48 48 48 48 49 50 52 55 57 59 62 65 65 66 69 71 73 75 75 72 69 68 67 66 64 56 52 53 59 54 56
45 44 39 38 46 45 45 50 51 47 47 48 46 46 48 49 49 51 51 54 55 57 60 61 63 66 66 70 68 73 75 74 72 68 67 66 65 63 59 56 54 42 42 41

GFSCGP_sfc_temp_066.txt.gz
Temp
55 46 41 46 48 52 50 48 46 51 58 55 54 54 59 63 62 62 63 66 69 71 80 85 80 78 77 73 73 72 76 73 75 70 71 68 73 69 68 70 72 73 73 73
48 42 52 57 56 53 50 47 46 51 57 54 52 53 59 62 62 62 64 66 67 70 74 79 82 77 74 74 72 71 76 76 77 80 78 72 73 68 70 72 72 73 73 72
42 50 58 56 51 50 47 45 45 46 53 55 51 48 53 60 61 64 64 65 67 68 71 75 80 81 78 72 70 75 76 77 78 78 69 67 67 67 67 68 68 71 72 72
47 55 55 50 49 48 41 51 50 49 44 35 50 35 48 53 54 59 63 63 63 66 69 72 77 79 78 75 74 76 78 77 78 75 73 69 69 68 68 69 70 71 71 72
46 49 49 48 48 51 45 53 50 48 42 39 42 35 45 51 51 56 60 63 66 68 70 71 74 78 81 77 74 76 77 76 77 74 77 74 68 70 67 68 68 69 69 71
51 57 52 51 54 53 55 49 44 42 38 29 40 37 40 46 50 55 59 61 64 67 70 73 75 77 78 76 72 74 74 75 74 73 73 73 71 68 67 66 66 67 68 68
47 48 52 55 46 51 46 38 26 25 25 27 41 37 40 49 53 55 54 51 54 57 63 69 72 73 76 68 71 73 71 72 70 72 70 71 72 70 69 67 68 67 67 66
34 33 46 54 47 42 42 38 26 23 24 30 41 30 39 52 51 52 54 53 55 56 57 59 70 73 76 77 73 74 73 74 71 70 70 71 72 71 69 68 70 71 71 69
30 36 51 53 54 48 41 34 40 32 31 23 30 38 47 49 49 50 50 53 53 56 57 57 63 73 75 78 75 75 76 76 73 72 72 67 69 67 68 68 70 70 70 70
41 32 47 50 52 50 43 46 30 29 19 19 28 33 35 41 43 46 48 51 53 57 57 57 62 68 75 77 76 70 75 76 73 71 69 70 68 69 68 69 69 69 68 71
40 35 38 44 41 38 37 34 38 32 30 24 24 29 41 41 44 43 46 49 50 51 53 58 60 67 68 66 67 68 69 68 65 66 66 67 68 69 69 70 70 69 69 69
41 34 28 36 47 50 43 37 35 24 28 31 27 30 46 43 44 45 47 48 50 53 55 58 58 59 67 66 66 67 65 66 68 69 69 68 68 69 69 70 69 69 69 70
41 32 28 32 37 42 37 41 39 34 33 27 26 30 46 47 48 46 47 48 50 52 55 57 59 63 66 67 66 67 66 66 69 71 69 68 68 69 68 68 69 69 69 69
47 34 31 26 33 35 34 39 42 39 30 30 34 36 42 46 45 47 47 47 50 52 53 55 61 61 63 67 67 67 68 70 70 70 69 68 67 67 67 67 67 68 68 69
40 32 35 38 40 42 40 41 42 39 40 34 38 36 42 45 46 48 48 49 51 51 53 58 62 64 63 63 65 70 69 71 70 69 68 67 67 68 68 67 66 67 67 68
40 32 37 34 41 41 38 42 44 44 43 41 43 39 48 50 49 49 49 50 50 52 60 61 61 62 61 62 62 65 69 69 70 68 67 69 70 69 68 67 66 66 65 65
36 34 34 29 38 37 32 40 42 43 43 41 34 40 46 46 48 49 51 53 53 55 58 59 59 61 62 62 62 63 65 69 69 68 69 70 70 69 67 68 66 63 62 62
39 37 34 30 30 23 39 48 47 45 47 45 44 44 47 48 50 52 55 53 55 54 55 57 59 61 64 62 62 65 66 68 69 69 70 72 71 68 67 66 63 62 61 62
43 38 31 28 23 35 39 43 42 39 40 45 43 45 47 48 49 51 56 56 53 53 55 58 60 61 61 60 62 62 64 68 69 70 71 71 71 67 66 64 62 61 61 63
40 41 33 28 25 22 32 44 47 43 31 47 44 43 43 44 37 44 53 53 53 54 56 58 59 61 59 59 61 60 61 66 68 72 72 71 70 67 65 63 62 62 61 61
35 34 31 31 28 32 42 44 46 28 35 44 44 44 42 39 45 49 51 51 53 53 55 58 59 59 59 60 59 59 60 62 70 72 72 71 69 66 63 62 62 60 61 61
30 31 30 32 29 23 46 43 35 39 44 47 45 45 43 45 47 48 50 50 52 52 54 57 58 58 59 61 60 59 59 64 71 73 71 69 68 70 65 63 61 61 60 60
31 35 33 34 32 42 46 44 46 46 45 45 46 46 45 45 46 48 48 49 51 52 53 56 57 59 59 61 62 62 62 66 73 71 69 69 69 66 66 63 61 60 60 59
43 45 36 36 41 43 47 48 50 48 46 48 46 45 45 44 47 48 50 49 50 52 53 55 56 56 58 60 61 63 64 68 71 70 69 68 64 62 62 62 62 61 60 59
41 41 38 38 44 46 48 49 49 48 49 47 47 47 48 49 48 49 49 49 50 52 53 55 56 56 59 61 59 64 65 69 69 68 68 66 64 60 56 51 53 60 58 58
41 38 36 36 45 44 46 49 50 48 46 46 46 48 50 49 48 49 48 50 50 51 53 55 56 57 60 60 60 62 67 71 70 67 66 64 60 57 56 55 52 41 42 42

GFSCGP_sfc_temp_069.txt.gz
Temp
51 44 39 44 46 48 46 43 42 48 54 50 49 51 56 59 60 60 62 63 64 66 72 74 74 74 71 71 72 72 72 73 76 76 73 71 73 72 68 69 71 70 70 70
45 39 50 53 52 49 46 41 41 47 53 51 48 49 55 58 57 59 60 61 63 64 66 72 74 73 72 70 70 71 71 74 72 76 78 77 79 68 75 70 69 70 70 70
41 48 55 52 49 47 42 41 41 42 48 50 47 45 49 54 57 60 59 61 62 62 63 66 71 69 69 71 67 70 72 75 75 77 70 65 67 67 67 67 67 68 70 70
45 51 51 48 47 46 38 49 48 45 40 31 46 31 43 48 52 55 58 57 59 61 63 65 69 70 72 74 76 69 70 72 74 76 70 70 77 77 74 68 66 68 69 70
46 46 47 44 47 49 44 50 46 45 39 34 38 31 39 48 47 50 54 57 56 55 57 59 63 68 72 74 74 71 70 72 75 75 76 74 69 73 66 68 68 66 67 70
48 53 51 50 52 51 52 45 42 38 33 24 36 35 39 42 45 48 52 52 53 55 57 58 61 64 65 71 74 73 73 72 74 74 74 76 77 72 66 66 67 66 67 68
44 45 50 53 44 48 43 33 24 23 24 25 38 33 40 47 51 51 47 50 52 53 54 56 57 58 61 63 70 66 68 71 73 73 74 76 76 76 72 68 67 66 66 66
32 32 44 51 45 40 39 35 23 19 23 27 39 29 36 48 50 51 52 51 53 53 56 56 57 57 60 62 65 71 70 69 71 73 74 75 76 74 69 67 66 67 68 68
28 34 49 51 50 46 38 32 37 28 28 21 28 37 44 50 48 49 49 52 51 52 54 55 57 58 59 61 64 68 71 71 71 72 74 71 70 66 66 65 67 67 67 68
39 30 44 48 48 48 41 43 29 22 16 18 27 30 33 41 45 46 47 47 48 51 52 53 55 57 60 62 63 67 72 74 73 72 73 70 69 68 65 66 67 67 67 68
38 34 36 42 38 35 36 32 33 29 30 24 22 28 40 41 43 43 45 47 47 50 52 53 55 57 59 62 63 65 71 73 72 67 66 65 64 65 66 67 67 68 68 68
39 33 28 34 45 46 41 36 34 23 26 27 26 30 47 43 44 45 44 47 49 51 51 53 54 55 60 61 63 63 62 68 69 67 65 64 64 66 66 67 67 67 67 69
39 32 27 31 37 41 38 39 37 33 32 27 25 31 46 44 46 46 43 46 48 49 50 52 54 57 57 60 62 66 62 69 68 66 64 64 66 67 67 67 67 67 67 68
47 34 33 27 33 34 34 39 39 33 29 29 31 35 42 45 45 47 46 48 50 48 53 53 54 55 57 59 62 64 64 64 65 67 66 66 67 67 67 67 67 68 68 68
38 29 32 36 39 40 38 38 39 37 37 30 35 36 42 44 44 47 49 50 51 50 52 51 51 54 56 57 60 62 64 65 66 67 67 66 66 66 66 67 67 67 67 67
37 31 38 33 40 39 37 41 41 41 40 39 41 38 45 45 46 48 50 52 51 50 51 51 52 56 56 56 59 61 63 66 67 67 66 66 66 66 65 65 66 66 66 66
33 31 31 29 37 36 31 38 40 41 42 41 34 41 43 43 46 48 49 51 51 49 49 52 55 57 57 57 59 59 61 67 66 66 66 66 66 66 66 67 67 65 64 65
34 34 35 30 29 21 38 46 47 43 44 43 41 43 44 45 48 49 52 51 53 52 52 54 56 56 58 59 59 60 62 65 65 66 66 67 68 67 68 67 65 61 61 63
40 37 32 28 26 32 37 41 42 38 38 45 41 43 45 48 47 48 55 54 53 52 53 54 55 56 57 57 59 61 61 61 65 66 66 68 68 68 66 64 63 60 60 59
39 40 34 30 25 18 32 43 47 42 31 44 43 41 42 44 36 44 52 52 52 54 54 52 54 56 53 54 58 59 60 61 60 66 67 68 69 67 65 63 61 59 61 60
34 34 30 31 28 30 41 44 47 31 33 43 43 44 43 41 44 50 51 50 52 53 52 53 53 53 53 55 58 57 59 60 62 67 68 69 68 66 64 61 61 59 60 59
28 31 29 31 29 25 46 42 34 41 41 46 47 47 46 47 48 48 48 49 50 49 51 53 52 53 56 56 59 59 59 60 62 63 66 66 65 66 64 61 62 61 60 59
28 33 32 33 30 41 45 45 46 46 47 47 45 46 47 46 46 47 46 48 49 50 51 53 53 54 56 56 59 59 59 61 61 62 65 66 65 64 63 61 60 59 60 59
38 41 33 34 41 42 44 47 49 48 47 49 48 45 46 45 45 46 47 50 50 50 50 52 52 52 53 57 60 60 61 61 62 62 65 63 62 61 62 62 61 60 59 59
39 39 35 35 40 43 46 47 49 48 49 48 48 47 46 45 46 47 50 51 51 51 50 51 52 52 54 57 59 61 61 63 62 62 63 62 61 61 57 52 56 60 59 58
38 35 34 34 43 42 42 48 49 46 46 45 44 44 46 47 48 50 48 50 50 51 50 50 52 53 55 59 58 61 62 64 64 62 63 64 60 59 56 55 52 41 41 43

GFSCGP_sfc_temp_072.txt.gz
Temp
49 43 38 43 45 45 44 41 40 45 51 46 46 48 52 56 57 58 60 62 63 64 69 70 70 69 68 68 67 68 68 68 70 69 68 68 70 72 71 73 73 70 70 69
43 38 47 51 49 46 43 40 39 45 50 48 45 47 52 55 54 57 58 60 61 62 65 69 69 67 65 63 64 65 66 66 68 72 73 73 74 75 76 74 71 71 70 69
40 46 52 50 45 45 42 40 39 40 45 46 43 40 44 51 53 56 58 59 60 60 60 63 65 65 64 63 62 64 65 66 66 69 68 67 68 67 68 68 69 71 71 70
43 49 49 45 44 45 36 47 45 43 38 30 43 27 40 48 50 52 55 55 55 56 57 60 62 62 63 64 65 64 64 64 67 67 69 70 74 75 76 71 74 69 70 70
45 43 44 42 45 48 42 47 43 42 36 31 35 28 36 45 44 47 51 53 53 54 54 57 59 62 64 63 63 63 62 64 66 66 70 71 72 78 74 68 68 68 68 70
46 50 48 47 49 48 49 43 40 34 31 23 33 32 31 38 44 47 52 53 53 53 54 56 59 60 60 63 62 62 61 60 64 66 69 71 72 72 67 67 69 67 67 68
43 43 47 50 42 45 41 32 24 22 22 24 35 31 37 44 51 49 50 50 52 52 52 54 56 57 59 60 61 62 62 61 63 65 68 70 72 73 69 71 69 66 66 67
34 33 43 49 43 38 37 34 23 18 21 25 36 28 35 47 51 50 51 50 51 51 50 52 55 56 57 58 59 60 60 61 63 65 68 70 72 75 74 73 70 70 70 69
29 34 48 50 48 45 35 30 35 27 25 20 26 34 44 50 48 48 48 50 49 48 49 52 55 56 56 57 58 59 60 61 62 64 67 69 72 72 73 70 70 70 69 69
38 30 43 46 46 45 40 42 27 21 15 12 25 28 32 41 46 46 47 48 49 48 49 52 55 55 56 57 58 59 61 61 62 64 68 70 70 71 70 67 68 68 68 69
38 33 35 40 37 34 34 30 31 27 23 18 22 28 38 40 43 43 45 47 46 46 48 52 53 55 55 57 58 59 61 61 62 65 68 69 69 68 67 69 69 68 68 68
38 31 27 33 42 44 39 34 32 22 25 26 25 29 47 47 46 43 45 49 47 47 48 52 53 55 56 57 59 60 61 61 63 66 69 68 66 65 65 67 67 68 68 69
39 31 25 29 34 38 34 37 35 34 31 27 25 30 47 44 44 49 47 47 48 48 49 51 53 53 52 53 56 58 61 63 63 66 65 63 64 65 65 66 67 67 68 68
46 33 31 26 31 31 31 38 39 36 28 29 30 34 41 44 45 46 46 47 47 49 51 52 51 51 51 52 55 58 60 63 62 64 63 64 64 66 66 67 67 67 68 68
38 29 32 36 38 38 36 36 38 35 36 30 35 34 40 43 44 44 46 48 51 52 54 52 50 50 50 51 53 55 61 63 63 64 64 65 66 67 67 67 67 67 68 68
39 30 32 31 37 37 35 39 39 39 38 38 38 36 48 50 45 45 47 49 49 51 53 52 50 51 51 51 51 54 60 62 65 65 65 66 66 67 68 68 68 68 68 68
33 31 32 28 35 34 29 36 39 39 41 39 32 41 44 44 45 45 47 49 49 52 52 51 49 50 51 50 51 52 60 63 65 65 66 66 67 67 67 67 67 66 66 67
32 34 33 29 31 23 37 43 44 41 43 43 43 44 46 45 46 47 51 49 51 51 51 51 51 54 54 54 54 55 60 62 67 65 66 67 67 66 66 66 66 66 65 65
39 35 31 28 25 30 38 40 39 36 38 46 43 45 45 46 45 48 54 54 52 52 52 53 54 54 54 53 54 54 58 60 65 66 66 67 67 65 66 65 64 63 63 63
39 38 32 30 24 18 32 42 45 41 32 44 43 42 42 44 38 44 52 53 53 53 53 53 53 54 53 53 53 53 58 60 60 67 66 67 66 66 65 64 63 63 63 62
32 32 29 30 27 30 40 43 45 29 33 42 42 42 42 41 45 50 51 50 51 51 52 54 53 51 52 53 53 55 59 59 62 65 67 66 66 65 63 63 62 62 61 60
31 30 28 30 27 24 45 42 34 39 44 44 45 46 46 48 48 48 48 49 49 50 52 53 51 51 53 54 53 55 57 61 63 63 64 65 64 63 63 62 61 61 60 58
27 31 27 31 29 42 45 42 45 43 42 45 46 47 48 45 46 47 47 48 47 49 51 51 50 50 52 53 54 55 58 61 62 62 63 62 63 63 63 62 60 60 59 58
36 38 32 33 40 40 42 46 48 47 46 47 48 47 46 44 46 47 46 47 48 51 54 54 50 49 49 53 55 58 61 62 61 59 60 61 61 61 63 62 61 61 59 59
39 37 34 34 38 40 43 47 47 46 47 48 47 46 44 44 45 47 47 47 49 52 53 53 51 50 50 53 55 59 61 61 60 59 61 61 61 61 55 51 56 61 60 60
38 36 33 33 40 39 40 45 48 45 45 45 45 45 47 46 44 45 45 48 50 50 50 49 50 49 51 54 58 58 61 60 59 61 60 61 61 59 56 56 52 41 43 45

GFSCGP_sfc_temp_075.txt.gz
Temp
59 56 52 55 55 54 53 50 49 54 60 55 56 56 60 63 64 64 65 65 66 68 76 78 77 77 76 76 74 73 69 71 73 78 79 77 77 77 78 79 78 78 76 76
56 51 58 58 56 53 51 50 50 54 57 56 55 54 59 63 63 64 65 66 65 67 68 72 73 74 73 73 72 72 72 73 74 74 75 79 79 80 80 80 80 80 75 72
51 55 58 55 54 52 52 49 49 49 54 56 53 53 55 61 65 65 66 68 68 64 66 66 68 70 72 70 71 71 70 71 73 76 79 79 80 79 80 81 79 77 77 73
54 58 55 54 52 54 48 55 53 50 48 43 53 41 52 58 59 61 64 66 67 65 64 65 65 66 67 70 71 71 70 69 73 75 77 76 79 79 84 83 84 82 77 79
53 54 54 52 54 56 52 54 52 51 48 46 48 42 50 54 55 58 63 66 67 67 66 65 64 64 66 68 69 69 68 69 69 70 73 76 76 81 83 85 81 79 79 80
56 59 57 57 56 57 55 52 52 47 46 38 45 44 47 52 55 57 63 66 66 66 66 66 66 65 65 67 68 68 67 67 69 69 71 72 73 77 80 79 79 78 81 80
52 53 57 57 52 54 53 48 39 37 37 38 45 42 47 55 59 61 62 64 66 66 66 65 64 65 64 65 66 66 67 66 68 68 69 71 73 75 76 77 79 78 79 80
44 42 52 56 53 50 49 47 38 27 33 39 47 38 49 58 62 63 63 62 64 65 66 65 64 64 66 65 65 65 65 65 67 67 68 70 73 77 79 79 79 79 81 82
41 41 53 54 55 54 46 42 47 40 41 34 41 47 54 59 58 59 60 60 62 64 64 63 64 64 64 65 64 64 64 65 66 67 67 66 69 72 75 75 73 75 79 82
47 39 49 52 54 54 50 52 38 38 27 26 38 41 43 51 54 57 58 60 62 63 64 63 63 63 65 66 65 65 66 65 67 68 69 69 70 70 72 75 73 74 77 79
50 43 44 47 46 46 46 43 42 41 38 31 31 40 52 53 56 55 57 59 61 62 63 63 63 65 66 66 67 65 64 65 66 68 69 69 71 73 75 75 76 76 78 79
50 43 39 42 52 52 50 46 45 36 35 38 37 38 57 56 57 56 57 60 62 62 63 64 64 64 64 64 63 64 63 64 66 68 70 70 71 74 75 75 76 77 78 79
47 41 35 39 44 45 43 46 46 44 41 34 30 39 55 56 57 59 57 58 60 61 62 63 62 63 62 61 59 62 63 64 64 63 67 70 70 73 74 75 76 78 78 78
50 42 39 34 40 42 39 44 46 43 32 38 39 43 49 52 54 56 56 57 59 59 60 61 61 61 61 60 57 59 62 63 62 60 63 68 70 73 74 75 76 77 79 78
46 36 40 43 44 45 43 43 45 42 42 34 40 41 48 52 54 55 57 57 58 59 59 60 59 59 59 57 59 61 61 61 63 57 60 68 71 74 75 75 76 77 77 78
45 37 41 37 43 43 39 44 45 44 45 44 44 43 54 57 58 57 56 56 56 57 59 60 59 58 58 56 56 58 58 58 61 56 57 68 72 74 74 75 75 76 77 77
41 39 35 32 42 41 35 43 45 46 48 47 42 50 56 54 55 56 57 56 56 57 57 58 57 56 56 55 54 54 55 58 56 54 57 68 73 75 75 75 75 74 72 73
39 37 35 32 37 25 46 51 50 48 50 52 51 53 55 55 56 57 58 57 57 58 58 57 57 57 57 54 51 50 53 52 53 54 60 73 75 76 75 73 72 69 70 72
44 38 31 29 31 40 44 50 47 44 46 53 52 52 54 56 56 55 60 61 59 59 59 59 60 58 55 54 54 50 51 51 52 62 67 71 75 72 69 69 68 68 70 70
38 37 33 32 28 26 40 48 51 49 38 51 50 50 51 52 43 51 59 59 59 60 61 59 59 59 57 55 55 53 52 55 60 65 68 72 72 70 69 68 68 69 70 68
33 32 30 32 29 38 48 49 51 34 41 50 50 50 51 48 51 54 57 57 59 59 59 60 59 57 57 57 56 54 53 56 62 63 69 72 73 71 69 67 68 67 65 64
31 33 33 33 30 29 50 48 39 48 51 50 49 50 50 51 53 55 56 56 57 57 58 59 59 58 58 58 57 52 52 57 63 64 68 70 70 69 68 67 67 64 64 63
35 41 35 36 38 51 53 49 51 51 46 48 48 48 48 48 51 55 55 55 56 56 57 58 57 58 58 59 57 52 54 57 63 65 64 66 68 67 67 66 66 67 66 68
44 46 40 39 45 46 48 50 49 50 49 52 52 51 51 50 53 53 54 54 55 56 56 58 57 58 58 59 56 53 55 61 63 62 62 64 64 64 66 66 66 66 68 68
42 43 40 40 45 43 44 47 49 50 50 51 53 53 52 51 51 52 52 51 51 51 53 55 55 57 56 58 56 56 58 61 64 61 62 61 62 62 58 56 65 71 71 68
41 36 33 33 39 38 40 48 52 50 49 52 50 46 46 47 45 45 46 48 48 48 51 52 55 56 56 57 57 57 59 60 64 64 62 61 59 59 59 60 56 42 46 45

GFSCGP_sfc_temp_078.txt.gz
Temp
68 63 60 64 64 63 61 59 58 63 67 64 63 65 69 74 74 74 75 74 75 73 79 82 82 81 80 77 78 77 75 71 79 81 86 88 84 81 83 89 86 86 84 84
63 58 66 65 64 61 60 58 58 63 66 63 62 62 68 72 73 75 75 75 75 74 75 77 79 79 77 76 76 75 75 75 76 74 77 83 83 89 84 89 87 87 86 83
59 63 66 63 61 58 60 57 57 56 62 64 62 59 65 70 72 74 76 75 75 74 72 73 73 75 77 76 75 76 75 75 76 72 74 76 79 79 85 86 84 85 84 84
62 67 62 61 59 61 54 63 59 57 56 51 62 48 61 67 68 68 71 72 74 74 72 72 72 72 73 75 76 76 75 74 78 77 73 70 71 76 77 83 87 89 86 85
60 61 60 58 60 64 58 62 60 58 55 54 56 52 59 64 62 65 69 72 73 75 74 73 71 71 74 74 75 75 74 74 75 75 74 74 74 79 80 80 81 87 86 84
63 71 65 63 65 64 65 60 59 59 56 46 55 54 57 62 63 66 70 72 73 73 74 74 74 74 75 77 75 74 73 73 74 75 75 74 73 75 82 83 84 88 90 88
61 62 66 66 60 62 60 55 46 46 47 45 54 50 56 63 66 68 68 70 73 74 73 73 74 75 74 72 74 75 74 72 73 74 74 75 74 74 76 79 85 86 89 90
51 49 61 65 61 58 58 55 46 35 42 49 55 46 58 65 68 69 70 70 70 72 74 74 74 74 75 74 74 74 73 72 73 73 73 74 74 77 80 81 84 87 89 87
49 50 63 61 64 62 57 49 58 48 50 45 50 56 63 66 65 66 67 67 69 70 71 73 75 74 73 73 73 72 72 72 72 73 72 72 74 74 75 77 81 86 84 88
57 46 60 61 61 62 57 62 46 46 32 34 47 50 53 58 60 64 65 67 69 70 72 74 74 74 74 74 74 74 73 72 72 72 74 75 75 76 75 76 77 80 83 83
60 52 52 56 53 52 54 51 51 50 47 39 40 50 61 59 62 62 65 67 68 70 71 73 74 75 76 75 76 74 73 72 73 72 73 73 74 75 76 76 78 80 82 81
59 52 46 50 61 62 57 54 54 40 43 47 47 47 64 63 64 64 65 67 70 70 71 73 74 74 74 74 74 73 72 71 73 74 72 72 73 74 75 76 78 80 79 81
56 49 41 46 53 53 50 54 54 52 50 42 39 47 64 66 65 66 65 67 68 69 70 72 72 72 72 72 72 72 71 71 72 73 73 71 69 70 74 76 77 80 81 81
54 49 43 39 46 50 45 50 53 50 38 43 46 50 57 61 61 64 65 66 67 68 68 70 70 72 72 71 71 71 69 70 71 72 71 70 69 67 71 77 77 81 83 83
51 42 47 49 50 50 48 49 51 48 49 44 49 50 56 60 62 64 66 66 66 66 68 68 69 70 71 70 70 69 69 68 70 69 69 69 70 68 72 77 78 81 83 84
54 42 46 44 50 49 44 48 51 52 52 52 53 52 63 65 66 65 65 65 65 66 67 67 68 68 68 68 67 66 66 65 67 66 67 70 71 70 71 78 78 80 82 83
47 41 39 36 48 46 40 48 51 53 56 55 49 57 63 62 62 63 64 65 65 65 66 67 67 67 66 65 65 64 63 64 63 63 66 68 69 70 71 78 79 80 80 82
44 41 39 38 42 28 50 60 58 54 57 60 59 61 62 63 64 66 68 66 64 65 66 65 67 65 65 65 62 60 56 58 57 59 62 64 68 70 73 78 79 79 81 80
48 41 32 31 34 43 49 54 53 52 52 61 59 61 61 62 61 61 69 69 67 66 66 66 67 66 65 64 62 55 52 52 52 54 59 65 68 69 75 78 79 80 80 80
40 38 32 33 29 29 44 54 58 57 44 57 57 55 56 58 50 58 65 65 62 62 65 66 67 66 64 63 59 58 53 52 53 59 66 69 70 71 78 80 76 77 79 79
35 33 32 35 31 42 55 55 56 36 41 55 57 57 55 50 53 57 61 60 60 62 66 67 66 65 64 63 61 57 54 50 52 53 57 61 72 77 76 72 72 73 73 74
35 36 33 35 32 31 55 53 41 50 55 53 55 54 52 55 58 58 61 62 63 64 66 67 65 65 66 64 61 58 53 52 52 61 68 69 69 70 70 70 70 71 72 71
38 46 38 41 43 55 55 50 52 52 46 48 52 55 52 55 57 60 60 61 62 63 64 66 65 64 64 65 63 59 54 52 54 61 63 66 68 68 69 68 69 70 73 70
47 50 43 43 50 50 51 54 56 56 54 57 58 57 58 54 58 58 57 55 55 58 61 62 60 60 60 63 65 58 56 56 56 60 63 64 66 66 67 70 75 75 74 73
46 47 41 44 50 44 48 51 50 52 53 56 60 57 54 52 54 50 51 53 53 53 55 57 58 59 60 63 65 62 58 57 56 61 61 63 63 63 63 62 70 77 74 74
40 36 34 33 38 36 39 45 49 49 54 55 51 49 50 46 44 49 48 49 52 54 54 53 56 56 60 64 65 66 60 60 57 63 60 59 60 62 64 64 58 45 49 47

GFSCGP_sfc_temp_081.txt.gz
Temp
75 67 64 69 72 71 67 64 63 69 75 70 68 68 73 78 80 79 79 80 81 81 85 84 84 83 81 80 78 81 79 73 78 81 83 87 89 87 84 87 87 89 87 87
68 62 71 74 70 66 65 62 62 68 73 69 67 66 72 75 76 78 79 80 81 83 83 83 83 80 80 77 76 74 78 78 73 70 75 81 84 89 90 89 89 89 87 84
64 69 71 69 66 63 64 61 62 62 67 69 65 62 67 75 78 79 81 82 82 82 82 80 81 80 78 77 74 75 75 76 75 75 74 74 77 79 82 84 84 87 88 87
68 73 67 65 63 66 58 69 66 62 59 53 67 52 64 71 72 75 77 78 79 80 80 79 78 77 77 77 77 76 75 74 79 78 73 70 72 73 83 80 82 87 90 87
63 67 65 62 64 68 62 68 65 62 59 58 59 55 62 71 68 72 74 76 78 80 80 79 78 77 78 77 78 77 75 73 74 75 74 73 72 77 81 76 77 79 76 84
68 75 71 68 70 69 69 64 63 63 60 49 57 57 59 66 68 71 74 75 77 79 80 80 80 79 78 81 80 78 75 74 73 73 74 73 71 71 75 76 79 78 76 76
65 67 72 73 65 68 66 58 48 46 45 46 63 57 61 68 71 72 73 75 76 79 79 79 78 79 79 77 78 78 77 75 75 74 74 74 74 73 73 73 76 75 78 78
55 53 67 72 66 61 61 57 47 35 41 48 57 50 60 70 74 75 74 75 76 77 79 79 79 79 79 79 77 77 77 75 76 75 74 74 74 76 78 76 75 78 81 82
53 55 70 71 69 67 60 55 62 50 52 44 52 60 68 70 69 70 72 73 73 75 76 76 78 79 79 78 77 76 76 76 75 76 75 74 75 73 75 76 75 78 77 82
61 51 65 67 69 67 62 66 49 47 36 36 48 50 52 59 64 69 69 70 72 75 76 77 78 78 79 80 78 77 76 76 76 76 76 76 75 76 76 75 75 75 77 80
63 57 56 63 59 57 58 55 56 55 49 38 37 44 62 58 66 66 68 71 73 74 76 77 78 80 81 81 81 79 78 76 76 76 75 75 76 76 77 77 77 77 76 78
64 55 48 54 65 66 62 57 52 39 43 49 48 50 64 61 68 68 68 71 74 76 76 78 78 79 79 79 80 79 77 76 76 76 76 75 75 75 75 76 77 78 78 79
60 51 42 48 57 61 56 58 58 56 54 45 42 46 65 66 68 71 70 72 73 74 75 76 77 77 78 78 78 78 78 77 77 76 75 74 74 73 73 74 75 78 80 80
57 52 47 41 48 42 38 48 53 53 41 46 49 51 60 63 66 68 69 71 72 73 73 74 75 76 76 77 78 78 78 78 77 75 73 72 72 73 73 74 73 76 80 80
56 44 46 49 52 53 52 52 54 51 53 45 50 52 56 62 66 68 70 71 71 72 72 73 73 73 75 75 75 76 77 77 75 73 71 66 69 72 74 73 73 75 77 80
54 40 46 45 51 52 50 53 54 55 55 54 53 51 63 69 71 70 70 69 68 71 71 71 73 74 74 74 74 74 73 73 73 71 69 68 67 68 71 73 73 72 75 79
51 48 43 38 49 49 42 51 53 56 59 57 50 57 65 64 67 66 67 69 69 70 71 72 72 73 73 71 71 70 71 71 70 69 67 65 66 66 66 72 73 73 73 77
49 47 44 38 44 31 53 60 60 56 59 61 58 59 63 65 67 69 67 68 69 69 66 69 72 71 70 71 71 70 69 68 67 65 64 64 64 64 66 68 71 72 74 76
56 47 37 33 36 46 51 54 48 46 46 60 56 58 57 59 62 64 70 71 67 67 66 69 70 69 69 69 69 66 63 63 61 60 60 61 61 60 62 65 68 72 74 77
44 39 35 37 29 30 42 46 53 60 46 56 52 56 58 60 53 60 67 67 67 68 68 67 69 69 69 69 67 65 62 60 57 57 56 56 56 57 61 65 68 73 75 77
40 35 34 38 33 43 52 57 61 39 44 56 58 58 57 54 57 57 61 62 65 67 69 71 70 70 70 70 66 62 61 58 58 56 54 53 54 56 62 66 71 73 74 76
38 38 34 38 33 31 55 56 43 50 55 56 59 59 57 57 57 60 62 61 64 65 67 68 67 68 70 69 64 60 58 57 55 54 53 53 56 59 68 70 71 73 73 73
40 43 40 43 44 57 58 54 54 55 53 54 55 58 58 56 56 58 58 61 62 63 65 65 64 64 65 65 60 57 57 55 53 52 55 59 61 66 67 68 70 71 70 70
50 54 46 46 54 53 55 56 57 57 55 56 57 55 57 53 56 55 56 57 58 60 60 59 59 60 60 62 62 60 58 55 53 53 64 62 60 58 64 70 69 68 68 70
48 51 41 47 53 50 51 49 50 50 52 51 53 56 55 56 54 53 53 54 57 57 57 58 55 57 58 60 61 63 63 55 53 56 61 65 67 68 66 64 67 70 74 77
47 38 35 34 41 38 38 41 44 44 47 50 49 46 49 50 49 51 51 53 53 53 54 54 54 54 56 60 62 66 68 60 55 58 59 60 62 61 61 61 57 44 47 49

GFSCGP_sfc_temp_084.txt.gz
Temp
74 66 62 67 71 71 69 65 62 67 74 71 69 70 73 77 77 77 79 78 79 80 85 84 84 80 77 76 75 76 75 73 75 75 75 74 75 75 78 80 82 82 81 82
68 62 70 74 72 69 66 62 61 67 72 70 68 67 72 74 75 76 77 78 80 81 82 82 80 78 76 75 74 73 74 73 72 70 72 75 74 76 77 78 80 81 80 80
63 68 75 71 67 65 64 60 60 61 67 70 66 62 65 72 75 77 79 80 81 80 80 81 79 76 77 74 74 74 73 70 72 72 69 69 70 71 73 73 75 79 82 79
67 74 71 68 64 66 58 68 67 63 60 52 65 49 61 68 70 75 77 78 79 81 82 82 79 76 75 76 75 76 75 72 71 74 70 68 67 67 69 71 74 77 81 81
64 67 67 64 65 68 62 69 65 63 58 57 57 52 59 67 65 70 75 77 78 80 80 78 78 79 79 78 76 73 73 72 73 70 69 69 69 70 69 70 71 72 75 77
67 75 71 69 72 71 71 65 63 61 58 47 54 54 55 62 66 71 76 76 77 78 79 79 79 78 77 78 76 74 74 72 72 71 69 67 68 68 67 68 70 70 74 77
65 67 72 73 65 70 67 58 46 44 45 44 58 52 54 63 69 72 72 74 76 78 78 78 78 76 75 75 76 76 72 71 72 70 71 68 68 68 68 68 68 68 71 75
54 52 67 73 67 61 61 59 47 34 36 43 57 44 52 66 70 76 76 76 77 76 78 78 79 77 79 78 75 75 75 73 74 73 71 70 68 68 68 68 69 70 72 74
52 54 70 72 73 69 61 54 62 50 48 40 47 56 66 68 68 71 73 74 73 74 75 77 79 78 77 77 75 75 73 72 74 72 71 70 70 69 67 67 68 70 71 73
59 49 63 68 71 70 62 66 50 51 34 33 46 49 52 58 61 68 68 70 72 74 75 76 77 76 77 77 76 75 75 73 72 73 72 72 70 71 70 68 67 68 70 71
63 56 55 62 59 57 58 53 55 54 49 38 37 45 56 58 63 64 67 71 72 73 75 76 77 78 79 79 80 75 74 74 73 72 72 71 71 71 71 70 70 70 70 71
63 55 48 51 63 66 62 55 52 41 39 42 42 43 60 63 63 62 66 71 73 74 75 77 78 78 78 77 78 77 76 76 76 75 73 70 72 71 69 70 70 71 71 72
61 51 41 45 54 60 46 48 48 46 44 41 38 44 64 63 55 55 60 63 66 74 75 76 76 76 77 77 77 78 77 76 76 76 74 70 68 68 68 69 69 71 71 71
59 51 46 39 46 51 43 48 49 43 34 40 44 50 58 60 56 59 60 59 59 71 73 74 75 76 76 76 77 77 77 76 74 75 74 70 69 67 67 68 69 70 71 70
54 42 47 49 52 52 52 50 52 42 43 38 47 50 57 61 63 64 60 58 67 72 73 74 73 74 74 73 74 76 77 76 75 71 69 69 69 69 68 67 67 69 70 71
49 37 45 44 50 50 48 52 53 54 54 51 54 53 65 67 69 68 68 69 69 69 71 72 72 74 73 72 72 72 72 72 74 72 71 71 70 68 67 65 65 65 66 69
50 47 43 38 48 47 37 46 50 54 56 56 48 51 57 53 59 60 60 63 62 68 69 70 69 70 69 68 68 67 70 71 71 71 71 71 70 68 66 65 64 64 63 65
49 47 45 38 43 29 49 60 58 53 54 54 50 52 51 52 59 64 65 63 65 68 67 67 68 68 69 70 68 67 68 68 68 69 69 70 68 65 64 63 62 61 61 62
55 49 39 34 35 44 50 48 47 43 41 49 48 51 55 59 61 61 67 68 65 64 66 67 69 68 68 68 68 66 65 65 65 65 66 67 68 64 63 61 60 61 60 60
49 45 38 38 30 30 43 45 52 52 38 52 54 54 55 58 49 56 62 64 64 65 66 66 67 68 67 67 66 65 64 63 63 64 64 65 65 63 61 60 59 59 59 60
40 38 32 37 33 42 49 54 58 39 39 53 55 55 54 50 54 58 62 62 64 63 64 66 65 65 65 65 64 61 61 58 61 61 61 59 58 56 56 57 58 57 57 59
39 39 35 35 33 31 50 50 40 46 53 53 53 53 51 54 56 59 60 60 61 62 63 64 63 63 64 64 61 58 58 59 59 58 56 54 54 53 54 53 55 56 56 58
40 45 38 41 42 54 56 52 55 54 51 52 52 53 53 51 50 54 55 57 59 60 59 61 61 61 61 60 58 55 57 58 57 53 52 52 52 52 52 52 52 54 57 58
52 56 46 46 52 53 50 54 52 52 49 50 51 51 49 47 48 49 53 54 56 58 57 58 58 57 56 57 57 57 57 56 52 51 52 53 56 52 53 54 56 55 59 60
49 51 44 46 52 46 50 47 47 47 48 47 45 43 44 45 48 49 49 51 54 54 54 55 53 51 52 53 54 56 57 53 51 53 55 61 55 53 53 54 56 60 64 65
48 41 35 34 43 39 38 42 46 45 44 44 42 44 45 46 44 45 47 49 50 50 50 49 48 48 50 53 55 57 57 55 53 54 60 62 59 58 57 58 56 43 52 50

GFSCGP_sfc_temp_087.txt.gz
Temp
63 52 48 54 59 61 60 57 54 60 66 61 59 59 63 67 65 65 66 66 68 70 73 72 71 70 68 67 67 68 69 69 68 70 70 77 71 71 74 74 77 77 76 77
56 50 61 67 66 62 59 55 52 59 65 62 58 57 62 65 64 64 66 67 66 67 69 70 68 68 67 66 66 66 66 67 66 67 67 71 75 68 71 76 76 77 77 76
53 60 70 67 62 60 56 54 53 53 61 62 57 54 58 64 66 69 71 71 72 67 67 68 69 67 64 63 63 65 65 65 65 66 66 67 69 70 71 68 72 75 77 76
57 66 66 62 60 61 50 61 62 59 51 40 55 40 53 58 62 67 70 71 72 73 69 67 68 62 63 64 65 65 64 64 65 64 63 64 63 64 70 73 72 73 74 76
56 59 59 58 61 64 56 63 59 57 49 45 48 42 51 56 56 62 67 70 67 71 67 65 65 66 66 65 64 64 64 63 64 63 63 62 63 64 66 68 69 69 71 73
59 68 64 62 67 66 67 58 55 51 44 37 47 45 47 53 56 61 65 70 69 66 66 68 69 67 65 66 65 63 63 63 63 63 62 62 61 63 64 65 66 66 69 71
57 59 66 69 59 64 60 49 37 33 32 35 50 47 49 54 60 60 62 65 65 66 64 65 64 65 64 64 64 63 63 62 63 64 64 62 62 62 63 63 65 66 67 70
48 45 61 69 62 57 56 53 42 30 27 36 50 39 46 60 61 65 68 70 68 65 63 63 66 67 65 66 64 65 63 62 63 64 64 64 63 62 61 62 63 65 68 70
45 48 64 66 66 63 55 47 54 43 44 34 37 46 55 61 60 65 65 67 62 65 63 63 64 62 64 64 65 65 63 64 64 64 63 64 63 62 62 62 62 64 65 69
52 43 59 63 64 62 56 60 41 41 29 25 35 39 41 50 53 59 59 62 66 64 63 64 64 65 65 65 65 64 65 66 65 64 64 64 63 64 63 62 62 62 63 66
57 48 49 57 52 47 48 45 43 40 34 29 28 35 49 48 49 51 54 57 57 61 62 64 65 65 66 66 64 63 65 66 64 65 63 64 64 64 64 62 62 63 64 66
58 50 41 45 55 59 53 43 40 33 31 34 33 33 56 53 51 52 56 59 59 62 60 59 64 65 64 64 66 65 63 65 66 66 64 64 63 63 62 63 63 62 63 66
54 42 32 36 44 50 43 44 44 41 36 32 30 34 55 53 57 59 55 56 60 61 63 62 64 62 65 64 65 66 64 64 67 67 66 62 61 62 61 62 62 62 62 63
55 44 39 30 37 43 41 45 48 39 32 33 35 37 46 53 53 55 53 57 57 62 64 64 62 61 65 65 66 66 65 65 65 64 63 61 61 60 61 61 62 62 63 62
46 36 39 42 45 45 43 45 46 43 42 34 40 43 48 51 52 54 55 57 60 62 63 65 67 63 62 62 63 65 65 66 64 64 66 64 61 61 61 60 61 62 61 63
44 34 38 37 45 47 44 47 47 47 46 45 45 44 48 51 52 52 56 57 60 60 61 63 59 61 61 62 61 62 61 61 64 63 61 62 62 62 60 59 59 59 59 59
39 35 32 30 42 42 33 43 46 45 42 43 35 39 48 47 48 49 52 55 57 57 56 58 60 60 60 59 61 60 60 61 61 61 62 63 62 62 61 61 58 57 56 57
39 36 34 29 34 22 42 50 50 40 45 46 45 46 49 48 50 54 58 55 54 56 59 58 59 58 57 58 58 58 59 59 59 61 64 66 65 64 63 60 58 55 55 56
45 39 28 25 24 37 44 43 42 40 39 46 41 46 51 53 53 51 59 58 55 54 55 56 57 58 59 60 61 59 60 61 61 61 63 65 66 65 63 60 58 57 56 56
43 39 30 27 21 21 36 47 52 49 34 47 47 46 46 48 38 44 53 54 55 57 58 58 59 60 59 60 60 60 57 59 57 58 60 62 65 66 65 64 61 60 58 58
35 34 27 27 24 35 43 46 50 32 34 45 46 46 44 41 44 49 52 52 53 55 56 58 59 58 57 59 59 57 58 56 58 57 58 59 59 59 61 64 64 60 56 57
34 30 30 33 30 22 47 46 37 40 43 44 44 44 42 44 46 46 48 48 50 51 53 57 55 55 57 58 57 56 55 57 56 55 56 57 57 57 57 56 56 58 57 54
31 39 35 35 32 43 46 45 44 43 40 41 41 43 44 44 43 44 44 46 48 50 51 53 53 54 55 55 55 53 55 56 54 53 53 53 53 53 54 53 53 52 54 54
44 47 37 38 45 41 44 46 45 43 41 44 46 45 43 41 42 43 44 46 46 47 48 51 50 50 50 54 54 53 53 53 51 50 51 52 51 50 51 51 51 51 51 52
42 44 37 38 42 41 46 43 43 43 46 46 46 43 42 41 41 43 43 43 44 46 47 48 48 48 49 51 51 52 51 50 49 49 50 50 51 51 51 51 51 52 53 54
43 36 34 33 40 37 37 41 43 43 43 44 43 41 41 41 40 40 39 41 42 43 44 45 45 45 47 49 50 52 52 51 50 49 50 52 51 50 50 51 49 46 49 46

GFSCGP_sfc_temp_090.txt.gz
Temp
58 49 45 51 52 56 54 51 50 54 61 55 53 54 59 62 62 62 63 63 64 65 70 68 69 67 65 65 66 67 67 65 67 67 67 67 68 68 70 74 75 72 72 75
51 45 57 60 60 56 54 50 49 54 60 57 55 54 60 60 61 62 64 64 63 63 65 70 65 63 65 64 64 64 65 64 63 64 63 64 66 68 68 71 74 75 75 74
48 54 64 61 58 56 54 50 49 50 56 55 52 47 52 58 61 64 64 64 65 65 64 64 64 62 61 61 61 61 61 63 63 63 63 63 64 66 68 68 71 73 75 74
52 60 60 57 55 56 47 58 58 55 47 39 50 39 47 54 57 60 64 63 63 64 68 65 67 60 59 60 61 61 62 62 63 63 62 61 61 61 62 65 70 72 74 74
53 55 55 53 56 60 53 60 56 54 46 41 44 39 43 52 53 58 61 62 64 67 68 64 67 63 64 62 61 61 60 60 61 61 61 60 59 59 61 63 64 67 69 74
57 62 59 58 62 61 62 54 50 46 41 34 41 41 45 48 53 55 60 61 63 66 68 65 65 64 62 64 61 59 59 59 60 60 59 59 59 59 58 59 61 63 66 67
55 56 62 63 54 58 54 42 37 32 32 34 45 41 46 52 57 59 59 61 62 60 58 62 62 62 62 61 60 60 59 59 59 60 60 59 58 57 58 58 59 59 61 65
43 43 56 64 57 50 49 48 37 28 27 36 45 35 46 56 59 61 62 61 61 64 67 62 64 64 64 64 61 62 60 60 59 59 59 60 59 59 59 59 59 59 60 63
41 44 60 62 63 59 49 44 53 43 39 28 33 41 50 57 59 59 60 61 59 64 67 66 63 64 66 62 60 61 62 63 61 62 61 59 60 59 59 59 59 59 59 64
46 38 55 59 61 61 55 56 41 36 28 26 32 35 38 49 52 54 53 52 53 55 61 63 64 64 63 60 61 62 64 64 64 64 63 63 62 61 61 60 59 59 60 61
48 42 45 52 48 46 47 44 43 40 33 29 26 30 49 47 50 51 50 52 49 52 56 59 58 61 59 60 61 63 63 64 65 62 63 62 62 62 59 59 60 60 60 60
51 43 37 43 53 57 52 42 38 29 28 33 31 32 52 51 52 52 52 55 54 62 58 59 57 59 57 58 59 59 63 65 67 65 65 64 64 60 60 59 59 60 60 61
48 37 30 35 43 47 42 44 40 36 34 27 22 31 53 53 53 55 53 57 57 58 58 59 60 58 59 60 59 60 60 63 66 66 65 64 63 61 61 62 61 59 60 61
53 42 37 32 37 40 38 42 44 39 30 31 33 37 46 50 50 51 52 55 56 55 59 61 62 61 62 64 68 64 68 64 64 64 64 63 63 63 64 63 61 61 60 60
46 35 40 42 43 43 41 41 42 38 40 32 39 38 45 50 48 50 53 53 54 56 58 58 58 57 59 61 64 63 62 61 60 60 62 63 64 63 63 62 62 61 59 61
43 32 37 37 42 42 39 43 43 44 44 38 39 39 43 47 48 48 50 53 55 57 56 57 57 57 58 58 59 61 61 60 60 59 58 59 58 59 60 62 61 59 59 58
39 35 31 28 39 38 30 38 42 43 42 39 34 39 45 45 46 48 49 51 53 54 55 55 55 56 56 57 58 56 57 58 57 58 59 60 59 58 58 60 60 59 59 59
38 34 31 26 30 21 38 46 46 42 43 43 41 41 43 45 49 51 54 47 48 50 52 53 53 53 53 54 55 55 55 56 57 58 60 62 61 61 61 60 60 59 59 58
43 35 31 27 21 34 40 42 41 39 38 43 42 44 46 48 47 47 53 50 49 50 51 53 55 56 55 55 55 54 54 53 54 57 59 62 63 63 63 59 59 61 59 57
41 36 30 23 23 19 37 44 47 45 32 43 42 41 39 41 32 40 47 49 48 49 50 51 53 54 55 56 54 51 51 52 54 57 58 61 62 62 62 61 59 61 60 59
31 28 24 26 25 32 42 44 49 32 31 40 41 39 38 36 40 44 47 48 49 48 48 49 50 50 53 52 54 52 53 52 55 56 58 59 58 57 58 59 60 61 61 59
30 31 27 31 29 26 45 44 34 38 39 40 40 42 41 43 45 46 45 45 47 45 46 48 48 49 52 53 52 51 51 54 54 54 54 54 56 57 58 57 59 61 62 60
31 37 31 34 30 40 44 40 41 40 37 38 40 44 44 43 43 43 42 44 43 45 47 48 47 47 49 51 51 49 51 53 53 52 52 53 54 54 55 54 54 55 58 59
41 43 37 35 40 38 42 44 46 44 41 42 45 44 43 41 43 41 42 43 43 43 43 46 46 45 46 48 50 50 51 52 51 48 48 48 48 48 50 51 51 50 52 56
37 40 36 35 38 41 44 44 43 43 43 44 45 43 42 42 39 40 40 41 42 42 43 44 43 44 45 47 48 49 50 49 48 47 48 47 48 48 48 49 50 51 52 54
38 34 27 27 36 38 39 43 44 40 41 43 42 41 42 39 37 39 39 40 40 41 42 42 43 44 45 47 48 50 51 50 48 47 48 49 49 50 50 50 50 48 50 49

GFSCGP_sfc_temp_093.txt.gz
Temp
54 47 43 49 50 52 50 47 46 52 58 53 52 52 55 59 58 59 60 59 61 62 66 68 66 65 62 63 64 65 65 65 66 66 66 65 67 66 67 68 70 71 72 74
48 43 53 56 55 52 49 46 46 52 57 52 52 51 55 56 57 58 60 60 60 60 63 67 65 63 64 64 63 62 64 64 65 64 62 64 65 66 66 68 69 70 70 71
46 52 59 56 53 51 49 45 46 48 53 53 49 46 51 56 57 60 61 61 61 61 62 62 65 63 61 61 61 63 62 62 63 62 61 61 62 62 63 64 66 69 70 70
49 58 56 53 51 53 44 54 54 52 45 39 49 40 45 52 54 56 59 59 60 61 63 62 61 61 61 64 58 59 60 60 61 62 61 62 62 61 60 61 63 63 69 70
50 52 52 50 53 56 50 56 52 51 43 37 42 35 42 50 50 55 56 58 59 60 60 62 63 64 65 61 60 61 59 59 59 61 61 60 58 59 59 60 62 61 63 65
55 58 57 56 60 58 58 52 47 41 38 32 41 40 42 45 51 53 57 59 61 60 59 58 63 67 60 60 58 57 58 58 58 59 59 60 59 58 58 58 59 59 60 62
53 54 57 60 52 55 50 39 30 29 29 34 44 38 43 50 55 56 56 60 59 58 58 56 55 57 58 59 59 58 58 57 57 59 58 58 58 56 57 57 56 57 58 59
40 41 54 60 54 49 48 45 34 26 25 34 42 33 41 53 57 58 58 57 59 58 57 56 55 56 58 57 56 59 57 57 56 58 59 58 58 57 56 57 56 57 57 58
39 42 58 60 60 57 49 43 49 39 34 30 33 39 48 52 53 54 54 55 55 58 57 58 58 57 59 61 60 60 58 58 59 59 58 57 57 56 58 58 57 57 58 60
45 36 51 55 58 59 54 55 37 35 28 25 30 32 34 43 45 49 50 50 52 54 54 56 58 59 61 60 58 56 59 63 61 60 60 60 59 59 59 57 57 56 57 58
48 40 42 49 47 46 47 42 42 40 35 28 27 30 43 44 44 45 48 52 52 52 54 54 56 57 61 61 62 59 58 59 60 60 60 59 59 60 59 58 59 58 57 58
50 43 35 42 51 55 52 45 43 32 30 33 31 29 49 46 48 51 52 56 57 58 58 58 55 58 60 60 60 59 62 61 62 63 63 61 61 61 59 59 60 59 58 58
48 39 29 35 42 47 43 45 42 38 34 27 26 29 49 48 50 49 48 51 56 58 59 62 57 55 59 59 59 58 56 58 60 61 60 60 61 60 59 60 61 58 60 59
50 37 34 30 36 41 38 42 44 39 30 30 31 35 42 46 47 49 49 52 54 55 57 59 54 54 54 58 59 59 59 58 59 61 62 61 62 63 63 62 61 59 61 61
43 32 36 41 44 43 41 40 41 36 36 30 36 36 40 41 42 44 47 50 53 54 56 56 54 52 53 54 56 58 58 59 57 56 58 60 63 64 65 63 63 61 60 61
43 32 38 37 43 42 38 41 41 41 41 38 37 34 40 44 45 47 46 49 50 52 52 53 54 55 55 55 58 58 57 57 58 57 56 57 57 58 58 58 58 60 59 59
39 35 31 30 38 37 30 36 39 40 39 37 31 36 45 44 44 45 45 49 48 49 50 50 51 52 53 54 55 55 55 55 55 55 57 57 57 56 56 58 58 58 58 58
37 34 32 29 31 22 36 44 44 41 41 43 42 41 41 42 45 44 48 48 44 46 47 48 49 50 52 53 54 55 54 56 56 56 57 58 57 57 58 55 56 57 59 58
43 36 29 25 24 33 37 41 40 36 38 41 38 40 43 44 41 43 49 46 45 46 47 47 49 49 50 50 52 52 53 54 55 56 57 58 59 58 58 57 58 57 58 59
40 38 30 23 23 19 33 42 48 45 32 42 41 38 37 38 31 37 44 46 47 50 51 47 49 49 48 49 49 50 50 52 51 53 55 57 57 56 56 56 57 59 60 61
32 28 28 30 27 30 41 44 48 30 30 38 38 37 36 36 40 44 47 46 49 50 47 48 48 46 47 49 49 48 49 50 52 53 54 54 56 56 57 58 59 60 59 60
29 30 29 31 28 26 45 42 34 35 38 39 38 38 38 40 44 45 45 44 47 46 46 48 47 46 48 49 47 46 46 49 51 51 52 52 54 55 57 56 57 59 59 58
29 35 28 33 30 38 41 40 40 40 40 40 40 40 42 42 42 43 42 43 42 42 45 47 46 45 45 48 48 46 47 49 49 49 49 51 52 54 55 53 54 55 56 57
38 40 34 38 37 39 40 42 42 43 43 44 43 43 43 41 41 40 38 40 41 42 42 45 44 43 43 46 47 47 48 49 48 47 47 48 48 49 50 50 51 53 54 54
35 37 33 34 36 38 41 43 43 44 43 43 43 44 42 41 41 39 37 38 40 41 42 43 42 42 43 45 46 48 48 48 46 46 46 46 47 47 47 48 48 48 51 54
41 36 26 27 35 35 37 41 43 41 40 42 42 41 43 42 40 38 37 38 39 39 40 40 41 41 43 45 46 48 49 49 47 46 46 46 47 47 48 48 47 46 47 47

GFSCGP_sfc_temp_096.txt.gz
Temp
51 46 42 47 48 49 47 43 43 48 56 50 49 49 54 57 56 56 58 58 59 60 63 64 64 64 62 62 63 65 65 67 68 67 67 67 68 68 68 70 71 72 72 73
47 42 51 53 52 49 47 43 42 48 53 49 48 48 53 54 55 57 58 59 60 59 61 63 63 64 62 61 61 62 64 65 68 70 65 67 65 66 67 68 69 70 71 72
44 50 56 53 50 47 45 42 43 45 50 49 46 43 48 55 54 58 58 58 59 59 60 61 62 62 62 60 60 61 64 65 66 66 62 61 61 63 65 67 67 69 71 71
47 54 53 49 48 49 42 50 52 49 42 37 47 37 45 49 52 54 57 56 57 59 59 58 60 59 61 63 60 60 60 64 67 64 65 63 64 62 63 64 64 67 70 69
49 49 47 47 51 52 47 52 50 48 41 35 40 34 39 45 47 52 55 57 58 59 58 59 60 60 61 62 61 61 60 60 62 64 67 63 60 61 60 61 63 63 65 68
52 55 54 53 57 56 56 49 43 38 36 29 39 37 38 43 49 52 56 57 58 59 59 59 60 59 60 61 61 59 59 60 60 61 61 62 61 60 59 58 60 61 62 63
50 52 55 57 50 56 49 39 29 28 29 33 42 36 40 48 54 53 53 54 55 57 56 57 57 58 56 55 55 56 58 58 58 60 60 60 60 59 59 59 59 58 58 59
38 40 53 59 53 47 45 42 31 25 24 33 40 32 40 50 52 52 53 52 54 53 55 54 56 56 56 55 55 56 56 56 56 58 58 59 59 60 58 58 58 58 58 60
37 40 54 57 59 56 49 43 49 38 32 27 34 38 46 49 49 51 51 52 51 52 52 53 55 55 55 55 54 56 57 58 60 61 59 58 57 57 58 58 58 59 59 61
45 35 48 54 55 56 52 54 39 37 26 23 29 31 35 43 45 47 48 49 50 51 53 54 54 55 56 56 56 56 58 56 58 58 59 60 59 58 58 57 58 58 59 60
48 40 40 50 45 45 46 40 41 39 36 27 29 30 41 42 43 45 47 50 48 49 51 53 55 56 56 57 58 58 59 59 59 59 59 57 58 58 58 58 59 59 59 59
47 41 33 38 51 55 50 44 44 32 30 34 32 30 45 44 47 46 47 51 52 51 52 54 55 55 56 57 58 57 60 60 64 61 60 59 59 59 57 59 59 59 59 59
44 36 28 33 40 47 41 43 41 38 34 29 26 30 47 48 47 49 45 48 49 51 53 54 56 56 55 56 57 60 58 59 61 61 61 59 58 58 57 59 59 59 60 60
45 36 33 30 35 39 35 39 40 36 30 31 32 36 42 42 41 42 44 46 48 50 52 53 52 54 54 55 56 56 56 58 59 59 59 59 58 59 60 60 61 60 61 61
40 33 35 37 40 42 41 40 42 38 38 29 36 36 42 40 40 42 45 46 48 50 51 51 50 52 53 54 55 55 57 58 58 57 56 55 56 58 59 60 60 61 61 61
39 31 37 34 41 40 36 40 41 40 40 39 38 37 40 42 43 43 44 46 47 48 50 50 51 52 51 52 53 53 53 55 56 55 56 57 56 56 57 57 58 58 59 60
35 34 32 29 38 35 30 37 39 39 39 37 31 36 39 38 41 41 42 44 45 46 46 47 47 49 50 49 50 50 51 53 54 54 56 57 57 57 56 57 58 58 57 58
33 32 31 28 31 22 36 43 42 39 41 42 40 39 41 41 42 42 44 44 43 43 45 46 47 48 48 49 50 50 50 50 51 53 55 57 58 58 58 56 56 55 57 56
41 33 25 25 24 32 36 40 38 36 36 40 40 41 43 43 39 42 47 46 44 46 47 48 50 50 47 49 50 49 48 48 49 50 52 55 57 57 58 56 55 55 55 56
38 36 30 26 20 21 33 41 45 42 31 41 41 37 36 36 29 37 45 46 47 49 49 47 49 52 50 49 48 47 46 46 46 49 51 54 56 56 56 56 55 55 56 57
32 30 27 26 23 31 40 43 46 30 29 38 38 36 36 34 36 42 45 46 48 47 46 49 50 48 49 49 49 47 46 45 48 50 51 52 53 53 54 54 54 55 55 57
31 31 28 31 25 22 43 42 34 35 36 38 41 41 40 41 41 43 45 45 46 44 46 46 46 45 47 49 49 46 44 47 48 48 48 48 50 52 54 52 54 55 55 54
29 34 29 30 28 37 39 39 41 38 38 42 42 41 40 40 41 42 42 43 43 44 43 44 44 45 46 47 47 45 46 48 48 48 48 49 50 51 51 50 51 53 54 54
36 38 32 33 36 37 38 40 41 41 41 43 43 42 42 40 41 41 41 41 42 41 41 43 43 42 42 45 46 46 47 48 47 45 46 47 47 48 49 50 51 51 51 52
34 36 32 33 35 38 38 40 41 43 44 44 45 44 43 42 41 41 38 40 40 40 41 41 40 40 41 44 44 46 47 46 44 45 45 45 45 45 45 46 47 48 51 53
36 37 30 27 38 38 35 38 42 40 42 43 41 42 43 42 40 40 39 38 39 37 38 38 39 40 41 43 44 45 47 46 45 44 44 45 45 46 46 46 46 45 46 46

GFSCGP_sfc_temp_099.txt.gz
Temp
62 60 56 60 60 60 57 54 54 59 64 59 61 61 66 71 70 72 73 74 74 75 80 79 78 77 77 76 74 75 77 77 77 78 78 79 77 79 79 81 81 81 82 82
59 55 63 62 60 57 56 54 54 59 62 59 62 60 66 68 69 72 72 74 75 77 77 78 80 78 76 75 75 74 75 77 76 79 79 81 80 80 81 80 79 80 81 81
56 60 61 59 58 55 56 54 54 55 62 61 59 58 62 67 67 70 72 74 74 73 75 77 77 77 76 75 74 74 74 76 76 77 78 75 77 77 77 78 79 79 80 80
58 65 59 58 56 58 52 61 59 57 54 50 58 46 58 63 64 68 71 73 73 75 76 75 74 75 75 76 78 75 73 73 77 77 76 74 78 78 81 82 82 81 79 79
57 58 56 55 59 59 57 60 58 57 54 52 54 49 56 59 59 65 70 73 74 72 71 71 73 75 77 76 76 76 73 72 74 76 76 77 76 82 82 82 79 78 78 79
61 64 62 62 63 62 64 60 59 53 52 43 52 50 53 59 62 66 69 70 66 68 70 71 73 74 74 77 76 73 72 71 73 74 74 75 75 76 75 76 77 79 77 76
58 59 64 64 59 64 60 54 44 43 43 42 56 50 53 62 66 66 65 65 66 67 69 69 70 71 71 72 72 71 70 69 71 72 73 74 74 73 72 73 76 74 76 76
48 46 57 63 60 58 57 55 45 35 39 44 53 44 54 63 65 62 63 63 66 67 69 68 70 70 71 71 71 70 69 69 70 70 71 73 72 71 72 71 73 76 77 77
47 47 59 60 61 60 56 50 59 48 50 41 47 53 59 61 60 61 61 63 63 64 66 68 70 70 71 70 70 68 67 68 68 69 70 71 70 69 70 69 68 73 73 75
53 44 55 59 60 62 56 59 46 47 33 32 44 45 48 55 56 58 59 61 62 64 66 67 69 68 70 71 71 69 68 68 68 68 70 71 69 69 70 70 69 70 71 72
54 47 48 53 51 50 52 49 48 46 44 34 35 44 54 54 54 54 57 60 60 61 64 66 68 69 70 71 71 69 70 70 71 71 69 68 68 67 67 69 70 71 71 71
51 46 39 44 55 58 54 50 48 35 34 36 38 40 56 55 56 56 57 58 60 61 63 65 66 65 66 66 66 66 66 69 70 71 71 70 69 68 68 68 67 70 72 73
48 38 35 40 47 49 46 49 46 42 36 33 33 43 55 57 57 58 56 58 58 59 62 63 63 63 63 63 63 62 63 65 67 68 69 70 68 68 69 70 70 70 70 73
45 42 40 35 41 39 36 38 40 36 33 37 37 42 50 54 52 53 55 56 57 58 59 61 62 61 61 62 62 62 61 63 65 66 66 66 65 64 64 68 67 69 67 72
41 34 37 40 41 41 40 42 43 37 38 33 41 43 49 52 50 51 53 54 55 56 58 58 59 59 59 59 60 60 59 60 63 63 64 64 66 66 64 63 66 68 68 71
45 37 39 37 43 44 41 44 45 45 45 44 45 44 53 51 52 52 52 53 53 55 56 57 57 57 57 57 57 58 57 58 60 60 61 64 65 66 66 66 63 66 68 69
40 39 36 34 42 42 36 44 45 46 48 46 40 49 50 49 50 51 52 52 52 53 54 55 55 56 57 57 57 55 55 56 57 58 60 61 63 64 65 67 66 66 65 67
40 39 36 34 38 26 43 48 48 45 47 50 49 50 50 50 51 53 55 53 52 54 54 54 56 56 57 58 57 58 56 56 56 57 58 59 61 62 64 64 65 65 66 65
44 38 32 30 33 40 43 45 43 41 42 50 48 49 50 50 49 51 57 57 54 53 53 54 56 57 57 56 56 56 55 55 55 55 56 57 59 60 61 61 62 64 65 65
43 42 34 32 27 27 40 46 49 48 36 45 46 46 46 45 34 45 53 53 52 53 52 51 52 53 53 53 54 52 52 53 53 54 55 57 58 58 57 59 60 62 64 64
32 33 31 32 30 38 46 48 50 33 38 47 47 46 44 40 44 47 50 50 52 52 52 51 51 50 49 51 52 50 50 50 53 55 55 55 56 56 57 57 58 59 61 63
34 32 31 32 29 28 48 47 39 45 48 48 47 47 44 44 44 45 46 48 48 47 47 48 48 48 49 51 50 49 48 51 53 53 52 52 53 55 56 55 56 57 58 59
35 40 36 38 40 45 49 47 50 48 46 47 47 46 45 43 44 47 45 44 44 45 44 47 46 45 48 49 49 46 49 51 51 50 50 52 53 54 55 53 54 55 56 57
43 45 42 42 44 46 49 49 50 51 48 48 48 46 45 44 44 42 43 43 44 43 43 43 43 42 43 46 47 47 48 49 48 46 47 48 48 49 50 52 52 51 52 54
45 46 43 43 47 48 48 51 50 49 49 48 46 47 46 45 43 43 42 43 43 41 40 40 40 40 41 43 44 47 47 46 44 44 45 45 46 45 45 47 48 49 51 53
46 42 37 39 47 42 46 50 50 46 46 46 45 44 46 47 44 43 41 42 41 39 38 39 40 41 43 43 43 44 46 46 44 43 43 43 43 44 45 45 45 44 45 45

GFSCGP_sfc_temp_102.txt.gz
Temp
73 67 64 69 71 70 67 64 64 69 73 69 68 70 74 78 80 80 80 82 82 84 89 90 90 88 88 88 86 84 84 85 86 86 86 86 86 88 88 89 88 88 87 88
67 62 71 73 70 66 65 63 63 69 71 69 68 68 74 77 77 80 80 81 82 84 86 88 89 89 87 85 85 85 83 82 85 87 86 89 89 91 90 90 88 88 88 87
64 68 69 68 66 62 64 62 63 63 68 71 67 64 69 76 79 79 81 82 83 83 84 85 86 86 86 85 84 84 84 84 83 85 87 86 87 87 89 88 88 87 87 87
67 73 68 66 63 66 60 69 66 63 62 57 70 54 66 72 74 76 78 81 83 84 84 84 83 83 84 85 88 85 83 82 84 83 83 83 85 83 88 88 90 89 87 87
64 65 64 63 65 69 63 70 65 64 61 61 62 58 64 72 68 71 76 79 81 79 79 79 81 82 84 85 86 85 83 81 81 82 81 84 81 87 89 91 87 85 86 86
67 74 69 69 69 69 70 66 66 66 63 52 60 59 61 67 70 74 78 78 75 76 77 78 80 82 83 86 86 83 80 78 80 80 80 79 80 82 85 87 88 89 89 86
65 66 72 71 64 70 67 60 51 50 52 51 64 60 62 69 73 74 75 76 74 75 77 77 78 79 79 80 81 81 81 78 79 79 78 79 79 80 81 83 86 85 87 87
53 51 65 70 66 63 65 63 53 42 44 51 62 53 62 70 73 73 73 73 74 74 75 75 77 77 79 79 79 79 79 77 78 77 77 77 77 81 83 84 86 86 88 86
52 53 65 65 67 66 61 57 64 52 55 50 55 62 69 72 70 70 70 69 70 71 73 75 77 78 77 77 77 77 77 77 77 76 76 75 76 76 79 81 81 84 84 87
53 43 60 64 67 66 61 65 50 52 37 37 51 53 56 60 62 65 66 66 68 71 73 75 76 76 77 77 77 77 77 77 78 78 77 77 75 74 73 75 77 80 79 82
55 49 52 60 55 53 56 53 53 51 49 38 40 50 62 61 63 62 64 67 68 69 71 73 75 76 76 77 77 74 74 76 76 77 78 75 74 73 74 75 77 78 78 79
56 47 43 51 62 65 61 56 54 39 41 47 43 45 67 64 64 64 66 68 70 70 70 73 73 73 73 73 74 73 72 73 74 75 75 76 77 76 74 74 77 78 78 79
50 40 39 45 53 57 52 55 55 52 40 35 37 47 61 61 63 66 65 66 67 67 68 69 71 71 71 72 72 72 72 72 72 73 73 71 72 75 76 76 76 77 75 78
47 45 44 38 46 49 43 49 52 46 34 40 43 49 57 59 61 64 64 64 65 65 66 68 68 70 70 70 70 70 71 72 71 70 69 69 66 65 71 74 75 76 77 77
45 35 44 46 48 49 48 47 50 46 43 36 46 48 55 59 61 62 63 63 63 64 65 66 66 67 68 68 68 69 69 70 69 68 67 64 69 69 67 70 72 75 73 75
44 39 44 43 50 49 46 51 52 52 52 52 52 51 62 62 63 61 62 62 61 62 63 65 65 65 65 65 65 66 66 66 67 65 64 66 69 70 71 71 68 69 70 71
40 44 39 39 49 48 43 52 53 54 57 55 49 57 62 59 57 59 61 61 61 62 62 63 63 63 63 64 64 63 64 65 64 64 64 64 67 68 69 71 72 72 71 68
38 40 39 39 43 32 51 56 55 52 54 57 57 59 59 58 61 63 64 62 62 62 62 62 63 63 63 64 62 62 63 63 62 63 64 65 66 67 68 68 69 69 70 69
49 40 35 33 37 46 51 53 50 49 48 58 55 57 59 59 59 58 64 64 62 61 61 62 63 62 61 60 60 56 55 57 58 60 63 65 66 65 65 65 66 67 68 68
47 39 36 36 30 31 45 52 55 55 42 54 54 53 52 54 42 53 61 60 58 59 60 55 56 58 55 55 55 54 54 52 53 58 60 62 64 64 63 63 63 65 67 67
36 35 34 35 33 43 52 53 55 37 39 53 53 53 52 48 51 55 54 51 53 55 54 57 55 50 51 55 54 52 52 51 55 57 59 59 61 61 62 61 62 63 63 65
35 33 34 36 33 32 54 53 43 51 55 53 54 55 49 48 48 49 52 53 52 54 53 57 52 51 52 54 51 50 50 55 56 54 53 53 54 56 60 59 60 62 62 61
37 41 38 40 42 51 55 53 57 56 52 55 55 55 50 48 48 51 51 51 53 53 53 52 49 48 51 51 50 48 51 53 53 51 51 52 53 55 56 55 55 57 58 59
49 52 46 48 52 54 56 58 57 55 56 57 57 54 50 48 50 51 50 49 52 51 47 46 44 44 44 47 48 49 50 50 48 47 48 50 50 51 53 55 55 55 55 57
50 53 49 50 53 54 55 56 57 57 57 56 56 53 53 50 47 50 49 48 46 44 43 42 42 41 41 44 46 48 49 46 44 44 46 46 48 48 48 51 52 53 55 56
55 50 43 41 51 50 52 57 57 55 54 54 52 47 48 50 49 48 43 43 41 41 41 39 40 39 41 42 42 44 46 46 44 42 43 43 43 44 44 44 45 45 46 45

GFSCGP_sfc_temp_108.txt.gz
Temp
75 68 64 70 73 74 73 71 70 76 82 77 74 74 78 83 84 82 83 83 84 85 90 91 90 90 89 87 85 85 83 81 81 84 78 78 83 83 85 86 86 85 85 85
70 63 73 77 77 74 73 69 68 74 78 76 74 73 78 80 81 83 83 84 84 85 87 88 88 87 86 83 82 83 83 83 80 80 81 84 84 86 87 87 86 85 83 83
65 71 78 75 72 70 70 67 66 67 74 76 73 68 71 78 81 83 85 85 86 85 85 86 87 86 85 84 84 85 83 82 82 80 78 79 83 83 82 85 85 85 85 84
70 77 74 72 69 71 63 74 71 69 65 58 72 56 68 75 77 80 81 83 84 85 86 86 86 83 83 84 85 84 83 83 83 81 78 76 76 75 83 83 85 85 85 84
67 71 71 68 70 74 67 75 71 70 65 63 64 59 65 74 72 77 81 83 85 86 86 83 83 82 84 84 83 82 80 80 82 81 78 76 74 78 78 81 80 80 81 83
67 76 74 73 76 75 75 70 69 68 64 53 60 60 61 68 73 78 82 84 85 85 82 83 83 83 83 84 83 79 77 77 79 80 78 75 74 74 75 76 76 80 84 81
63 66 73 75 68 73 70 62 51 49 51 50 65 61 64 74 77 79 80 81 80 80 81 81 80 81 80 81 81 80 79 76 77 77 76 76 75 74 73 73 76 76 78 80
54 51 66 73 68 63 63 61 51 40 44 50 62 52 62 75 79 81 82 81 79 79 80 79 79 80 81 80 80 80 78 74 76 75 75 76 76 75 75 74 75 76 77 79
53 54 69 67 71 68 62 55 63 51 51 47 53 60 70 71 73 75 78 79 77 77 76 77 79 80 79 79 79 78 76 76 75 73 73 73 74 73 73 73 72 74 74 78
59 48 61 65 68 68 62 65 47 47 34 37 50 53 56 58 65 70 72 73 75 76 76 77 78 78 78 79 78 76 77 76 76 74 73 74 72 73 74 73 72 73 74 74
61 54 53 60 57 55 58 53 53 52 49 37 39 49 66 62 63 64 68 71 72 72 73 74 76 78 78 78 79 75 76 75 74 74 73 71 71 72 71 71 72 73 72 74
60 51 46 51 62 66 63 58 57 40 41 46 43 41 66 64 66 67 68 70 72 73 74 75 76 76 76 75 76 76 75 74 75 73 72 72 72 70 69 68 69 72 72 74
57 49 40 46 57 58 49 51 50 47 46 38 37 46 67 64 61 64 65 67 68 71 73 74 74 74 74 75 75 75 73 74 74 73 72 70 69 69 67 67 68 68 69 68
56 50 44 37 45 51 47 49 49 45 35 40 43 50 58 61 56 62 65 65 67 70 71 72 72 73 73 74 74 74 73 74 72 72 71 68 66 67 67 67 67 68 68 67
53 42 48 50 52 52 51 52 53 50 51 44 50 52 58 62 63 66 62 65 66 67 69 69 69 71 72 72 72 73 73 72 71 69 68 66 67 67 67 67 67 67 66 65
53 41 47 45 52 52 50 54 56 56 56 56 56 55 65 67 68 64 63 64 65 67 69 69 71 71 70 68 68 68 68 69 70 67 67 68 68 67 65 65 65 65 66 65
47 42 41 37 50 47 43 53 56 56 58 57 51 58 63 61 60 60 62 65 65 66 67 67 66 66 65 65 65 64 65 66 65 65 65 66 65 64 64 66 66 64 64 63
47 44 40 35 43 32 52 60 59 57 59 57 57 61 62 61 63 65 67 66 62 62 62 63 63 63 63 64 64 62 62 62 62 60 61 62 63 62 62 61 62 62 63 62
54 46 36 34 37 46 51 55 50 43 51 56 54 58 60 62 63 62 68 65 63 62 62 62 63 63 61 60 61 59 58 58 58 58 59 60 59 58 58 58 59 60 62 63
54 50 36 38 31 31 46 53 58 56 43 55 56 56 57 59 50 56 62 64 64 63 63 63 62 62 58 58 58 56 55 55 54 55 56 58 57 57 56 56 57 58 59 63
40 38 34 34 33 43 52 54 59 41 41 55 57 57 57 54 57 59 63 63 63 63 63 62 61 57 55 55 53 50 51 52 54 55 56 55 55 55 55 55 57 57 56 58
40 37 35 38 35 33 54 55 46 50 56 57 58 59 58 58 60 60 61 60 60 59 60 61 55 51 51 51 49 47 45 49 52 52 52 51 52 54 55 54 55 55 56 55
40 44 40 42 43 53 56 54 56 59 57 58 59 60 59 58 58 58 57 57 58 59 58 55 50 46 47 47 47 42 46 47 48 48 48 49 50 52 53 53 52 53 53 54
51 54 46 47 53 56 59 58 58 60 59 61 62 60 59 56 56 56 57 57 57 56 53 51 44 41 40 42 42 43 44 45 45 45 45 47 47 49 51 52 52 52 52 52
50 54 50 51 55 53 58 57 59 60 61 61 61 60 58 56 56 56 56 55 54 51 48 43 40 38 38 39 39 41 41 42 42 42 44 44 45 46 48 49 49 49 52 52
55 49 44 42 53 51 53 58 61 58 59 60 58 56 58 58 56 56 54 53 50 47 43 39 38 37 37 37 37 39 41 40 40 39 40 41 42 43 44 44 45 44 44 44

GFSCGP_sfc_temp_111.txt.gz
Temp
64 54 49 56 61 63 63 60 59 64 70 64 62 64 68 72 69 69 70 71 72 74 78 78 79 80 76 72 73 74 74 73 69 68 72 72 73 73 78 80 80 79 78 80
58 51 63 68 68 66 64 59 58 63 69 65 61 61 67 70 69 69 69 70 70 71 73 78 77 76 73 72 72 71 72 72 72 68 67 71 72 72 74 75 82 81 74 79
54 61 72 68 65 64 61 57 58 57 65 65 61 57 61 68 69 72 73 72 71 71 71 73 75 72 70 69 69 71 71 71 70 71 69 67 68 71 71 72 75 75 75 73
59 68 68 66 64 65 55 66 66 63 56 48 59 46 55 62 65 71 73 73 71 72 74 73 69 68 69 69 71 69 69 69 72 70 68 67 64 65 73 74 72 73 72 68
59 63 62 60 65 68 59 68 63 62 54 46 52 44 50 62 62 66 67 75 74 72 70 70 69 70 71 71 68 68 68 68 69 70 68 66 65 64 67 72 71 73 71 68
61 70 67 65 71 70 70 62 58 54 48 42 49 48 50 57 63 65 71 72 76 73 70 69 70 71 69 69 68 67 67 66 68 68 68 67 65 65 65 68 69 72 75 72
58 60 66 70 62 66 62 50 38 35 36 38 54 51 52 61 67 70 67 67 68 68 66 66 67 66 68 68 67 68 66 65 66 66 66 66 66 66 65 65 68 68 71 73
48 47 62 69 59 53 55 50 41 31 32 38 51 41 50 64 68 68 70 67 69 68 67 66 67 68 68 68 67 67 66 65 65 65 64 64 64 64 65 64 65 67 65 70
45 49 65 66 67 63 54 47 53 41 41 36 42 51 60 62 63 66 69 69 66 65 64 66 68 66 67 66 66 66 66 66 65 65 63 63 62 62 62 64 66 67 67 71
51 42 57 62 63 63 57 60 41 39 31 28 40 45 46 53 57 61 62 64 65 64 65 64 64 66 66 64 65 65 65 64 65 65 64 64 63 63 62 62 62 65 66 66
51 45 46 54 50 48 49 46 48 46 39 32 28 37 55 53 57 57 60 62 64 63 65 66 66 65 64 64 65 64 63 64 63 63 63 62 63 63 62 60 61 62 63 65
51 44 37 45 55 59 55 49 47 35 36 38 37 38 60 56 56 57 60 62 64 64 63 65 66 66 65 63 64 65 64 64 65 64 63 61 63 62 60 60 60 61 61 62
47 39 31 37 46 51 46 47 46 43 41 36 34 37 58 59 58 59 59 62 64 63 63 62 62 62 64 63 63 63 63 63 63 64 61 60 59 58 59 59 59 59 61 63
52 41 36 29 38 43 41 46 50 42 33 36 37 40 50 55 55 54 57 57 55 60 62 60 59 59 61 63 64 65 63 63 62 62 60 59 58 58 57 58 59 58 60 61
45 34 40 43 47 48 47 47 48 43 43 35 43 45 50 56 56 54 54 59 60 61 63 62 60 59 59 59 58 60 59 60 59 58 57 57 57 58 58 58 58 58 57 60
48 34 40 39 46 47 45 49 49 49 50 50 50 50 56 56 56 54 55 58 60 57 59 59 59 59 57 57 58 60 57 56 57 56 57 58 58 58 57 56 55 55 56 57
39 36 36 31 43 42 35 45 48 50 51 47 40 45 50 51 53 52 55 56 55 56 56 56 56 56 56 54 55 53 54 55 55 55 57 58 57 57 55 56 55 54 54 56
41 37 37 31 35 25 44 56 55 49 47 49 51 51 50 51 55 56 56 51 53 55 55 54 53 54 53 53 52 53 54 54 54 55 57 58 58 57 57 56 54 54 55 55
48 40 34 27 27 39 45 47 46 43 43 48 48 51 54 54 52 52 56 57 52 52 53 54 57 56 52 51 51 50 50 52 52 54 55 56 57 56 56 54 53 54 54 54
50 45 36 30 27 26 40 49 51 50 34 50 52 50 49 50 41 47 52 55 54 53 53 54 55 56 52 48 47 47 46 47 47 50 54 55 56 56 55 55 53 53 53 54
37 37 33 33 30 35 47 52 52 35 36 47 49 49 48 44 45 49 53 52 53 53 54 55 54 45 45 47 48 45 46 44 46 50 50 51 52 53 54 54 54 54 52 53
35 34 32 34 30 28 51 50 41 45 49 50 50 50 47 47 49 50 52 52 52 52 53 51 50 49 47 48 46 44 42 45 46 44 46 48 50 51 53 52 52 53 53 52
34 38 36 37 36 48 51 46 50 50 48 51 49 53 49 47 48 50 51 51 52 51 51 51 48 45 46 45 44 40 40 42 43 43 43 46 47 49 50 49 49 49 50 51
44 49 40 42 48 47 49 50 51 54 54 53 52 50 49 46 49 50 50 50 50 51 48 47 45 43 41 42 41 39 39 40 40 39 40 42 43 45 47 48 48 48 49 49
43 47 42 43 48 48 49 49 51 53 54 54 53 51 49 49 49 49 48 49 48 46 46 45 41 39 38 38 37 38 39 39 37 37 39 40 42 43 44 46 46 47 50 50
47 43 36 35 44 43 46 51 56 52 51 51 50 49 50 50 49 48 48 45 44 43 43 41 39 37 36 36 35 37 39 39 37 36 37 38 38 39 39 40 41 44 43 44

GFSCGP_sfc_temp_114.txt.gz
Temp
59 52 47 53 55 57 56 53 52 59 66 59 57 58 62 67 64 65 66 66 68 71 76 74 76 73 67 68 70 71 68 68 66 66 70 71 71 72 72 72 74 75 72 73
53 48 57 61 60 58 57 53 53 58 64 60 57 58 62 65 64 66 67 67 68 68 71 74 73 69 69 69 70 68 68 65 67 66 65 70 70 70 71 72 72 72 73 74
49 57 65 62 59 58 56 53 53 54 61 59 56 52 57 63 65 68 68 67 67 68 70 70 71 67 66 64 65 67 68 68 65 66 65 65 64 65 67 67 69 70 72 73
54 64 62 59 58 60 53 62 61 58 52 44 55 39 50 58 60 64 67 65 66 66 69 71 65 63 66 65 65 65 66 66 67 66 65 64 62 61 62 64 66 67 70 72
54 56 56 55 59 61 56 63 59 56 49 44 48 41 47 55 58 60 63 66 68 72 66 64 65 67 65 65 63 64 64 65 65 65 65 63 63 61 62 62 63 64 67 69
58 64 62 60 66 64 65 56 53 48 44 36 45 43 43 51 55 60 65 64 64 63 63 64 64 65 63 63 63 63 63 62 63 64 63 63 62 62 61 63 63 63 62 65
53 55 60 65 56 59 56 47 37 34 34 34 48 43 45 55 60 61 61 61 62 61 60 61 62 63 62 62 62 63 63 62 63 63 63 63 62 62 61 60 60 61 61 61
44 44 57 62 55 48 49 45 36 29 30 35 47 39 48 58 61 64 66 61 63 62 61 61 62 63 63 63 63 63 63 62 62 63 63 62 61 60 59 59 59 60 61 63
43 47 61 62 63 57 50 45 47 38 37 32 38 46 54 57 58 60 61 61 58 60 61 61 63 63 63 62 61 62 62 61 61 62 61 61 61 60 60 59 59 59 60 65
46 40 53 57 59 59 51 56 39 35 27 26 35 40 43 51 52 57 56 56 57 58 61 63 64 63 62 62 62 62 62 62 63 62 62 63 62 61 60 58 58 58 58 60
48 42 44 51 47 43 44 41 43 42 40 31 28 35 49 49 52 54 57 58 59 57 59 61 63 65 65 64 65 65 63 62 61 60 60 60 60 60 60 58 58 58 58 59
47 41 36 42 51 53 48 41 41 33 34 38 36 36 51 52 54 56 56 60 62 62 64 64 65 65 67 66 64 60 59 60 61 61 60 60 59 59 58 58 58 58 57 58
46 37 30 35 42 47 43 44 41 41 36 34 33 34 56 56 54 58 57 61 60 61 61 63 62 60 59 58 58 59 58 58 59 59 59 58 57 56 56 57 57 57 57 58
50 38 35 29 36 38 38 42 45 42 32 34 36 39 47 51 53 53 57 56 55 58 59 56 53 54 55 57 57 56 56 56 57 57 56 55 54 54 55 55 56 56 57 56
42 33 37 40 42 43 42 43 44 39 39 33 40 41 48 51 48 49 53 55 55 55 56 55 53 52 53 53 54 55 55 56 54 54 54 53 54 54 54 54 54 54 54 55
40 32 37 36 43 43 40 44 45 46 46 44 45 44 51 54 52 53 51 53 54 54 55 55 55 55 54 54 54 55 54 53 53 52 52 54 54 54 54 53 53 53 53 53
38 34 31 30 39 39 32 41 44 45 43 42 36 40 47 47 49 47 48 51 51 53 54 54 54 53 52 52 54 50 51 52 51 52 54 55 56 56 56 56 54 52 50 52
36 35 35 30 32 23 40 51 52 45 45 44 47 50 49 48 53 53 50 45 50 52 52 51 50 49 49 50 49 49 49 49 49 49 51 54 54 55 56 56 55 54 49 48
45 38 32 26 24 36 42 45 44 41 40 46 45 50 51 50 48 49 52 51 49 48 48 48 48 49 51 49 46 45 45 46 47 48 49 50 52 51 52 54 54 54 49 48
45 44 35 31 27 24 37 47 50 48 35 50 51 46 46 45 36 41 50 50 49 49 49 49 50 48 44 46 45 44 45 46 46 47 48 49 48 48 50 52 53 54 50 52
37 36 33 32 30 33 45 50 51 31 34 47 47 48 44 41 43 47 48 47 48 48 48 48 45 45 44 44 43 44 45 44 45 47 46 46 47 46 47 47 49 51 52 52
34 33 31 33 31 29 49 49 40 41 43 47 48 46 45 45 45 46 47 46 47 46 47 47 45 45 47 48 46 44 43 44 44 43 42 42 43 46 47 46 48 50 50 50
29 36 35 35 36 45 50 45 46 46 45 47 46 47 45 43 44 45 46 45 45 45 46 46 46 45 46 46 44 40 41 42 41 40 39 40 42 44 45 43 45 47 48 48
40 45 39 38 43 46 47 47 48 49 49 52 49 45 44 43 45 44 44 43 46 43 44 45 42 41 42 43 41 40 39 38 38 37 38 39 39 40 42 44 45 45 45 45
38 41 38 38 45 44 47 49 49 50 52 49 49 47 46 45 44 44 43 44 42 43 43 42 40 40 39 39 38 39 38 37 36 36 37 37 38 38 39 41 42 44 47 46
40 37 33 33 43 41 43 47 50 49 51 51 47 45 46 46 44 44 41 41 41 41 41 39 40 38 36 36 36 37 38 36 34 34 34 35 36 37 37 37 38 41 41 41

GFSCGP_sfc_temp_117.txt.gz
Temp
58 51 47 53 54 55 54 51 50 56 61 56 56 55 61 64 62 61 62 65 65 66 72 72 72 69 67 66 67 67 67 69 69 65 65 66 68 70 71 71 71 70 70 71
52 47 56 58 57 55 53 49 49 55 60 56 55 55 59 62 62 61 63 63 64 64 68 71 69 66 65 67 67 66 67 66 65 65 68 69 69 69 70 69 70 71 71 70
48 55 61 58 54 53 51 48 49 51 57 55 53 49 54 61 62 64 64 63 64 65 65 67 68 65 63 64 63 64 65 65 65 64 62 62 63 63 63 64 65 67 69 71
51 58 58 54 54 55 46 57 58 54 49 42 52 38 47 54 57 60 63 63 63 63 65 67 66 62 62 62 63 64 64 63 63 62 62 62 60 59 60 61 63 64 68 69
51 53 54 52 55 58 53 59 55 54 47 42 44 39 45 51 55 57 60 62 62 62 62 63 62 63 60 62 61 61 62 62 62 62 62 61 59 59 59 60 61 61 63 67
54 60 58 57 61 60 61 54 49 44 41 35 42 42 39 48 51 56 60 59 59 57 57 58 59 61 59 59 60 60 61 60 61 62 62 62 62 61 60 60 60 59 59 61
50 52 57 61 52 56 53 43 34 32 32 33 44 40 43 51 56 56 56 57 58 58 60 60 60 59 60 59 60 61 62 60 60 61 61 61 61 60 60 59 58 58 58 59
43 41 52 59 53 47 46 43 35 29 29 34 43 37 45 54 56 58 59 56 58 57 56 58 59 59 60 59 60 61 60 60 59 60 61 60 60 59 58 58 57 57 58 59
44 47 59 59 60 58 48 40 44 36 34 31 36 43 51 53 54 55 56 56 54 55 56 58 59 58 59 59 60 60 60 60 60 60 60 60 60 58 58 58 57 57 58 61
47 40 50 55 58 56 50 51 39 35 28 25 32 37 40 46 49 53 54 53 55 57 56 58 59 60 62 60 61 61 61 63 62 61 60 60 59 59 59 57 56 56 57 58
45 42 43 48 44 41 42 39 40 37 34 26 26 33 46 46 47 50 53 57 60 61 63 62 62 61 61 60 61 61 62 62 62 60 58 58 58 59 58 56 57 57 56 57
45 40 35 40 47 49 44 40 38 28 30 35 36 34 50 49 49 50 53 55 55 57 59 60 63 62 59 56 59 58 58 58 56 57 57 55 55 56 55 56 56 56 56 56
46 36 30 35 40 45 41 41 39 36 33 31 27 32 50 52 53 54 54 55 56 56 55 54 53 56 57 57 57 57 56 55 55 56 55 54 53 53 53 53 54 54 55 55
50 37 35 29 34 36 34 39 42 37 30 29 32 36 44 48 49 52 53 51 51 53 55 53 51 51 53 55 55 55 55 54 55 55 53 53 53 53 52 52 53 53 54 53
42 34 36 38 40 41 40 40 40 35 36 31 36 39 44 45 47 47 49 51 52 53 55 53 52 51 51 51 52 53 53 54 53 53 52 51 52 52 52 53 53 53 52 53
38 32 35 34 41 40 38 41 41 41 42 41 41 40 46 47 48 47 47 49 50 51 53 53 53 53 53 51 52 54 53 53 51 49 51 53 52 52 51 51 51 51 52 51
37 33 30 29 37 37 31 37 40 42 43 41 35 40 44 46 48 45 44 49 52 51 51 50 50 50 50 49 52 50 51 49 47 47 50 51 52 52 52 53 53 51 51 51
34 32 30 28 31 23 38 47 48 44 44 43 43 44 45 45 48 48 53 46 48 49 49 48 47 46 47 47 46 46 46 46 47 47 49 50 51 50 51 51 51 51 53 54
40 35 32 26 23 33 40 43 42 39 39 45 43 46 49 49 46 46 50 47 46 46 47 47 47 46 45 44 45 45 47 49 48 48 49 49 49 47 48 48 46 47 49 52
41 42 35 31 27 24 36 45 49 45 32 46 46 46 48 43 35 39 48 48 47 48 47 46 46 45 44 45 45 43 46 46 45 47 48 48 46 47 45 45 46 47 48 50
30 31 32 32 30 33 43 48 49 31 32 43 46 45 44 40 41 44 46 45 46 45 45 45 44 42 42 45 45 44 45 45 47 46 46 45 45 44 44 44 44 45 46 48
31 32 32 33 31 28 48 47 38 40 42 44 44 44 44 44 44 44 45 44 45 44 44 44 41 44 46 47 44 42 42 44 44 43 42 41 42 43 43 41 43 44 45 45
29 34 29 32 31 42 47 45 46 45 44 44 45 46 45 43 43 44 42 43 43 43 42 42 43 43 44 44 43 41 41 41 41 40 39 38 39 40 40 38 39 41 43 42
37 41 35 37 40 42 47 49 48 48 48 52 48 45 43 42 42 42 42 42 41 41 41 43 41 40 40 42 42 40 39 39 38 37 37 37 36 35 37 38 39 39 40 41
36 38 36 35 40 43 46 47 48 49 49 47 46 44 44 42 42 41 41 40 39 40 42 42 39 39 39 40 39 37 38 38 35 35 35 34 35 35 36 37 37 38 40 40
37 35 30 30 40 41 42 49 50 46 46 45 43 44 44 43 42 41 38 38 40 40 41 39 39 38 38 38 36 37 38 37 33 32 33 34 34 35 36 36 37 39 38 39

GFSCGP_sfc_temp_120.txt.gz
Temp
55 49 46 51 54 55 53 50 49 54 59 54 53 53 59 62 60 62 64 61 62 65 70 68 68 68 66 64 66 67 67 66 68 66 66 66 70 70 70 69 70 70 70 71
50 45 55 58 56 54 51 47 48 53 57 54 53 54 57 60 60 61 62 62 61 62 65 67 64 65 64 65 66 66 68 66 70 71 67 67 68 69 70 71 71 72 71 70
47 53 58 57 53 52 48 46 48 50 54 54 52 48 51 59 59 61 60 61 62 63 64 65 66 65 63 63 63 66 67 66 66 64 65 64 64 64 64 65 66 68 70 71
49 56 56 52 52 53 43 54 55 52 47 41 49 37 46 52 56 58 60 58 58 59 60 62 64 62 62 64 62 63 62 63 64 63 63 63 62 61 61 62 64 65 68 69
49 50 51 49 53 55 51 56 52 51 46 41 42 39 45 48 52 54 57 57 57 56 55 56 57 59 60 61 60 61 61 62 62 62 61 61 60 61 61 62 63 64 65 66
52 57 55 55 58 57 58 52 48 43 40 33 40 41 39 46 48 53 55 54 55 56 56 57 57 57 57 57 58 59 60 60 61 62 62 62 62 61 61 61 61 61 62 64
48 49 54 58 50 53 50 42 33 32 32 32 41 39 42 48 52 52 51 53 54 54 54 55 56 57 58 58 59 61 61 59 60 61 62 63 63 62 62 61 60 60 60 61
40 38 49 56 50 47 43 43 34 29 29 33 41 36 43 51 53 54 55 53 55 55 54 56 56 56 57 59 59 60 60 59 60 61 61 60 60 60 60 60 59 60 60 61
42 42 55 57 56 52 44 38 41 34 33 30 35 41 48 50 51 53 54 56 55 54 55 57 59 58 57 58 58 59 60 61 61 60 59 58 58 58 58 59 59 59 60 62
49 41 50 54 55 54 47 49 37 33 26 25 31 34 38 45 46 50 51 52 54 56 57 58 60 61 59 59 58 58 58 59 60 60 59 59 59 59 59 58 58 58 59 60
46 43 43 48 44 41 43 38 37 36 32 26 26 32 44 45 48 48 49 52 52 55 59 60 61 61 61 59 59 57 57 57 58 57 57 57 57 58 58 58 57 57 57 58
43 39 34 38 45 46 42 38 37 28 30 32 35 32 48 47 47 49 49 52 54 54 56 55 54 55 55 56 56 58 58 58 57 59 57 58 57 57 56 55 56 56 56 57
45 35 30 33 39 43 39 38 37 34 31 32 28 31 48 48 49 50 49 52 52 52 52 52 52 53 54 54 54 55 55 55 57 56 56 55 55 54 54 54 55 55 55 56
49 36 35 29 33 35 33 38 38 34 30 28 29 34 42 47 48 50 49 48 48 50 52 52 51 50 51 52 53 54 54 54 54 54 53 52 53 53 53 53 54 54 56 55
42 34 34 35 38 38 37 38 37 34 34 30 34 36 41 44 46 47 47 48 49 50 51 51 50 50 51 51 51 52 52 52 52 51 51 50 51 51 52 52 53 54 54 56
38 32 34 33 39 38 36 39 39 38 38 36 38 37 47 48 46 45 46 48 48 49 51 51 51 51 50 50 50 51 50 50 50 48 49 50 51 52 52 51 52 52 52 53
36 32 30 29 35 35 30 35 38 39 40 39 33 39 44 44 45 44 46 48 49 49 49 49 49 49 48 48 49 48 49 48 48 48 50 52 52 51 51 52 52 51 51 51
34 32 28 27 30 23 37 44 45 42 43 43 42 44 45 45 46 47 50 51 50 48 48 48 47 46 46 46 46 47 46 47 48 49 50 51 50 50 50 50 48 48 49 49
38 32 26 24 24 32 39 42 40 37 38 44 43 45 46 46 45 45 53 49 48 47 47 46 47 46 46 45 47 46 46 48 48 47 48 48 49 49 49 47 46 48 48 47
39 37 29 30 22 23 35 44 47 44 31 44 44 43 43 43 35 39 47 48 48 47 47 47 46 45 44 45 44 45 45 45 45 46 47 49 47 46 45 45 45 46 46 45
30 30 27 31 28 33 41 45 48 30 32 43 44 44 41 39 42 45 45 45 46 46 46 45 44 43 43 45 44 44 44 43 45 47 46 44 45 44 43 43 43 43 42 43
32 33 32 33 30 27 44 46 37 39 41 44 44 44 43 43 44 44 45 44 44 45 44 44 41 43 45 47 45 42 41 44 44 43 41 41 41 41 40 38 37 38 38 39
29 33 29 32 30 39 44 44 47 45 44 45 44 45 44 42 43 43 42 42 44 42 42 43 41 43 44 45 43 39 42 43 40 38 38 38 38 38 37 36 35 35 37 36
36 38 34 35 38 40 43 45 46 47 46 48 48 45 44 42 42 41 41 42 43 41 41 43 41 40 40 42 42 41 41 39 37 36 36 36 35 36 37 37 36 36 36 37
35 36 34 34 38 41 43 44 45 47 49 48 47 44 43 42 41 41 41 41 39 40 42 41 39 38 39 40 39 40 37 37 35 35 35 34 34 35 35 36 36 37 39 38
34 34 29 29 38 38 40 45 47 46 45 44 44 43 43 42 41 41 40 38 39 39 40 39 38 38 38 38 37 36 36 36 34 32 32 33 33 33 34 34 34 39 38 39